[[{"header":{"parameterUnit":"m.s-1","parameterCategory":1,"la1":30.6,"la2":29.2853,"lo1":-89.7004,"lo2":-87.6739,"dy":0.0162,"dx":0.0183,"nx":112,"ny":82,"refTime":"2023-06-28T12:00:00:Z","depth":0,"parameterNumber":2,"parameterNumberName":"U-component_of_WINDS"},"data":[0.0,0.0,0.0,0.0,0.0,0.0,0.0,0.0,0.0,0.0,0.0,0.0,0.0,0.0,0.0,0.0,0.0,0.0,0.0,0.0,0.0,0.0,0.0,0.0,0.0,0.0,0.0,0.0,0.0,0.0,0.0,0.0,0.0,0.0,0.0,0.0,0.0,0.0,0.0,0.0,0.0,0.0,0.0,0.0,0.0,0.0,0.0,0.0,0.0,0.0,0.0,0.0,0.0,0.0,0.0,0.0,0.0,0.0,0.0,0.0,0.0,0.0,0.0,0.0,0.0,0.0,0.0,0.0,0.0,0.0,0.0,0.0,0.0,0.0,0.0,0.0,0.0,0.0,0.0,0.0,0.0,0.0,0.0,0.0,0.0,0.0,0.0,0.0,0.0,0.0,-4.5528,-4.8221,-4.9817,-5.0702,-5.0702,-5.0445,-4.8807,-4.5398,0.0,0.0,0.0,0.0,0.0,0.0,0.0,0.0,0.0,0.0,0.0,0.0,0.0,0.0,0.0,0.0,0.0,0.0,0.0,0.0,0.0,0.0,0.0,0.0,0.0,0.0,0.0,0.0,0.0,0.0,0.0,0.0,0.0,0.0,0.0,0.0,0.0,0.0,0.0,0.0,0.0,0.0,0.0,0.0,0.0,0.0,0.0,0.0,0.0,0.0,0.0,0.0,0.0,0.0,0.0,0.0,0.0,0.0,0.0,0.0,0.0,0.0,0.0,0.0,0.0,0.0,0.0,0.0,0.0,0.0,0.0,0.0,0.0,0.0,0.0,0.0,0.0,0.0,0.0,0.0,0.0,0.0,0.0,0.0,0.0,0.0,0.0,0.0,0.0,0.0,0.0,0.0,0.0,0.0,0.0,0.0,0.0,0.0,0.0,0.0,0.0,0.0,0.0,0.0,-4.6672,-4.9962,-5.0539,-5.0693,-5.0702,-5.034,-4.8691,-4.5333,0.0,0.0,0.0,0.0,0.0,0.0,0.0,0.0,0.0,0.0,0.0,0.0,0.0,0.0,0.0,0.0,0.0,0.0,0.0,0.0,0.0,0.0,0.0,0.0,0.0,0.0,0.0,0.0,0.0,0.0,0.0,0.0,0.0,0.0,0.0,0.0,0.0,0.0,0.0,0.0,0.0,0.0,0.0,0.0,0.0,0.0,0.0,0.0,0.0,0.0,0.0,0.0,0.0,0.0,0.0,0.0,0.0,0.0,0.0,0.0,0.0,0.0,0.0,0.0,0.0,0.0,0.0,0.0,0.0,0.0,0.0,0.0,0.0,0.0,0.0,0.0,0.0,0.0,0.0,0.0,0.0,0.0,0.0,0.0,0.0,0.0,0.0,0.0,0.0,0.0,0.0,0.0,0.0,0.0,0.0,0.0,0.0,0.0,0.0,0.0,0.0,0.0,0.0,-4.6797,-4.8961,-5.0539,-5.0712,-5.0712,-5.0749,-5.0453,-4.8812,-4.542,-4.495,0.0,0.0,0.0,0.0,0.0,0.0,0.0,0.0,0.0,0.0,0.0,0.0,0.0,0.0,0.0,0.0,0.0,0.0,0.0,0.0,0.0,0.0,0.0,0.0,0.0,0.0,0.0,0.0,0.0,0.0,0.0,0.0,0.0,0.0,0.0,0.0,0.0,0.0,0.0,0.0,0.0,0.0,0.0,0.0,0.0,0.0,0.0,0.0,0.0,0.0,0.0,0.0,0.0,0.0,0.0,0.0,0.0,0.0,0.0,0.0,0.0,0.0,0.0,0.0,0.0,0.0,0.0,0.0,0.0,0.0,0.0,0.0,0.0,0.0,0.0,0.0,0.0,0.0,0.0,0.0,0.0,0.0,0.0,0.0,0.0,0.0,0.0,0.0,0.0,0.0,0.0,0.0,0.0,0.0,0.0,0.0,0.0,0.0,0.0,0.0,0.0,0.0,-4.8817,-5.0481,-5.0673,-5.0702,-5.0702,-5.0711,-5.0467,-4.887,-4.5398,-4.4941,0.0,0.0,0.0,0.0,0.0,0.0,0.0,0.0,0.0,0.0,0.0,0.0,0.0,0.0,0.0,0.0,0.0,0.0,0.0,0.0,0.0,0.0,0.0,0.0,0.0,0.0,0.0,0.0,0.0,0.0,0.0,0.0,0.0,0.0,0.0,0.0,0.0,0.0,0.0,0.0,0.0,0.0,0.0,0.0,0.0,0.0,0.0,0.0,0.0,0.0,0.0,0.0,0.0,0.0,0.0,0.0,0.0,0.0,0.0,0.0,0.0,0.0,0.0,0.0,0.0,0.0,0.0,0.0,0.0,0.0,0.0,0.0,0.0,0.0,0.0,0.0,0.0,0.0,0.0,0.0,0.0,0.0,0.0,0.0,0.0,0.0,0.0,0.0,0.0,0.0,0.0,0.0,0.0,0.0,0.0,0.0,0.0,0.0,0.0,0.0,0.0,0.0,-4.7913,-4.9798,-5.0616,-5.0712,-5.0625,-5.0429,-5.0237,-4.861,-4.506,-4.464,0.0,0.0,0.0,0.0,0.0,0.0,0.0,0.0,0.0,0.0,0.0,0.0,0.0,0.0,0.0,0.0,0.0,0.0,0.0,0.0,0.0,0.0,0.0,0.0,0.0,0.0,0.0,0.0,0.0,0.0,0.0,0.0,0.0,0.0,0.0,0.0,0.0,0.0,0.0,0.0,0.0,0.0,0.0,0.0,0.0,0.0,0.0,0.0,0.0,0.0,0.0,0.0,0.0,0.0,0.0,0.0,0.0,0.0,0.0,0.0,0.0,0.0,0.0,0.0,0.0,0.0,0.0,0.0,0.0,0.0,0.0,0.0,0.0,0.0,0.0,0.0,0.0,0.0,0.0,0.0,0.0,0.0,0.0,0.0,0.0,0.0,0.0,0.0,0.0,0.0,0.0,0.0,0.0,0.0,0.0,0.0,0.0,0.0,0.0,0.0,0.0,0.0,-4.8307,-5.0346,-5.0654,-5.0692,-5.0682,-5.0645,-5.0298,-4.8669,-4.5322,0.0,0.0,0.0,0.0,0.0,0.0,0.0,0.0,0.0,0.0,0.0,0.0,0.0,0.0,0.0,0.0,0.0,0.0,0.0,0.0,0.0,0.0,0.0,0.0,0.0,0.0,0.0,0.0,0.0,0.0,0.0,0.0,0.0,0.0,0.0,0.0,0.0,0.0,0.0,0.0,0.0,0.0,0.0,0.0,0.0,0.0,0.0,0.0,0.0,0.0,0.0,0.0,0.0,0.0,0.0,0.0,0.0,0.0,0.0,0.0,0.0,0.0,0.0,0.0,0.0,0.0,0.0,0.0,0.0,0.0,0.0,0.0,0.0,0.0,0.0,0.0,0.0,0.0,0.0,0.0,0.0,0.0,0.0,0.0,0.0,0.0,0.0,0.0,0.0,0.0,0.0,0.0,0.0,0.0,0.0,0.0,0.0,0.0,0.0,0.0,0.0,0.0,-4.5594,-4.8596,-5.0712,-5.0712,-5.073,-5.071,-5.0692,-5.0404,-4.8774,-4.5388,0.0,0.0,0.0,0.0,0.0,0.0,0.0,0.0,0.0,0.0,0.0,0.0,0.0,0.0,0.0,0.0,0.0,0.0,0.0,0.0,0.0,0.0,0.0,0.0,0.0,0.0,0.0,0.0,0.0,0.0,0.0,0.0,0.0,0.0,0.0,0.0,0.0,0.0,0.0,0.0,0.0,0.0,0.0,0.0,0.0,0.0,0.0,0.0,0.0,0.0,0.0,0.0,0.0,0.0,0.0,0.0,0.0,0.0,0.0,0.0,0.0,0.0,0.0,0.0,0.0,0.0,0.0,0.0,0.0,0.0,0.0,0.0,0.0,0.0,0.0,0.0,0.0,0.0,0.0,0.0,0.0,0.0,0.0,0.0,0.0,0.0,0.0,0.0,0.0,0.0,0.0,0.0,0.0,0.0,0.0,0.0,0.0,0.0,0.0,0.0,0.0,0.0,-4.5594,-4.8596,-5.0712,-5.0712,-5.0758,-5.0682,-5.0425,-5.0457,-4.8903,0.0,0.0,0.0,0.0,0.0,0.0,0.0,0.0,0.0,0.0,0.0,0.0,0.0,0.0,0.0,0.0,0.0,0.0,0.0,0.0,0.0,0.0,0.0,0.0,0.0,0.0,0.0,0.0,0.0,0.0,0.0,0.0,0.0,0.0,0.0,0.0,0.0,0.0,0.0,0.0,0.0,0.0,0.0,0.0,0.0,0.0,0.0,0.0,0.0,0.0,0.0,0.0,0.0,0.0,0.0,0.0,0.0,0.0,0.0,0.0,0.0,0.0,0.0,0.0,0.0,0.0,0.0,0.0,0.0,0.0,0.0,0.0,0.0,0.0,0.0,0.0,0.0,0.0,0.0,0.0,0.0,0.0,0.0,0.0,0.0,0.0,0.0,0.0,0.0,0.0,0.0,0.0,0.0,0.0,0.0,0.0,0.0,0.0,0.0,0.0,0.0,0.0,0.0,-4.5594,-4.8596,-5.0712,-5.0712,-5.0758,-5.0775,-5.0701,-5.0557,-4.8985,-4.5398,0.0,0.0,0.0,0.0,0.0,0.0,0.0,0.0,0.0,0.0,0.0,0.0,0.0,0.0,0.0,0.0,0.0,0.0,0.0,0.0,0.0,0.0,0.0,0.0,0.0,0.0,0.0,0.0,0.0,0.0,0.0,0.0,0.0,0.0,0.0,0.0,0.0,0.0,0.0,0.0,0.0,0.0,0.0,0.0,0.0,0.0,0.0,0.0,0.0,0.0,0.0,0.0,0.0,0.0,0.0,0.0,0.0,0.0,0.0,0.0,0.0,0.0,0.0,0.0,0.0,0.0,0.0,0.0,0.0,0.0,0.0,0.0,0.0,0.0,0.0,0.0,0.0,0.0,0.0,0.0,0.0,0.0,0.0,0.0,0.0,0.0,0.0,0.0,0.0,0.0,0.0,0.0,0.0,0.0,0.0,0.0,0.0,0.0,0.0,0.0,0.0,0.0,-4.5594,-4.8596,-5.0712,-5.0712,-5.074,-5.0766,-5.0766,-5.0663,-4.9413,-4.6559,0.0,0.0,0.0,0.0,0.0,0.0,0.0,0.0,0.0,0.0,0.0,0.0,0.0,0.0,0.0,0.0,0.0,0.0,0.0,0.0,0.0,0.0,0.0,0.0,0.0,0.0,0.0,0.0,0.0,0.0,0.0,0.0,0.0,0.0,0.0,0.0,0.0,0.0,0.0,0.0,0.0,0.0,0.0,0.0,0.0,0.0,0.0,0.0,0.0,0.0,0.0,0.0,0.0,0.0,0.0,0.0,0.0,0.0,0.0,0.0,0.0,0.0,0.0,0.0,0.0,0.0,0.0,0.0,0.0,0.0,0.0,0.0,0.0,0.0,0.0,0.0,0.0,0.0,0.0,0.0,0.0,0.0,0.0,0.0,0.0,0.0,0.0,0.0,0.0,0.0,0.0,0.0,0.0,0.0,0.0,0.0,0.0,0.0,0.0,0.0,0.0,0.0,-4.5594,-4.8596,-5.0712,-5.0712,-5.0692,-5.0701,-5.0701,-5.0766,-4.9988,-4.8115,0.0,0.0,0.0,0.0,0.0,0.0,0.0,0.0,0.0,0.0,0.0,0.0,0.0,0.0,0.0,0.0,0.0,0.0,0.0,0.0,0.0,0.0,0.0,0.0,0.0,0.0,0.0,0.0,0.0,0.0,0.0,0.0,0.0,0.0,0.0,0.0,0.0,0.0,0.0,0.0,0.0,0.0,0.0,0.0,0.0,0.0,0.0,0.0,0.0,0.0,0.0,0.0,0.0,0.0,0.0,0.0,0.0,0.0,0.0,0.0,-4.8026,0.0,0.0,0.0,0.0,0.0,0.0,0.0,0.0,0.0,0.0,0.0,0.0,0.0,0.0,0.0,0.0,0.0,0.0,0.0,0.0,0.0,0.0,0.0,0.0,0.0,0.0,0.0,0.0,0.0,0.0,0.0,0.0,0.0,0.0,0.0,0.0,0.0,0.0,0.0,0.0,0.0,-4.5594,-4.8596,-5.0712,-5.0712,-5.0692,-5.0701,-5.0701,-5.071,-4.9951,-4.8115,-4.7373,0.0,0.0,0.0,0.0,0.0,0.0,0.0,0.0,0.0,0.0,0.0,0.0,0.0,0.0,0.0,0.0,0.0,0.0,0.0,0.0,0.0,0.0,0.0,0.0,0.0,0.0,0.0,0.0,0.0,0.0,0.0,0.0,0.0,0.0,0.0,0.0,0.0,0.0,0.0,0.0,0.0,0.0,0.0,0.0,0.0,0.0,0.0,0.0,0.0,0.0,0.0,0.0,0.0,0.0,0.0,0.0,0.0,0.0,0.0,0.0,-4.8414,0.0,0.0,0.0,0.0,0.0,0.0,0.0,0.0,0.0,0.0,0.0,0.0,0.0,0.0,0.0,0.0,0.0,0.0,0.0,0.0,0.0,0.0,0.0,0.0,0.0,0.0,0.0,0.0,0.0,0.0,0.0,0.0,0.0,0.0,0.0,0.0,0.0,0.0,0.0,0.0,-4.6163,-4.8836,-5.0712,-5.0712,-5.0693,-5.0702,-5.0702,-5.0702,-5.0298,-4.9365,-4.817,0.0,0.0,0.0,0.0,0.0,0.0,0.0,0.0,0.0,0.0,0.0,0.0,0.0,0.0,0.0,0.0,0.0,0.0,0.0,0.0,0.0,0.0,0.0,0.0,0.0,0.0,0.0,0.0,0.0,0.0,0.0,0.0,0.0,0.0,0.0,0.0,0.0,0.0,0.0,0.0,0.0,0.0,0.0,0.0,0.0,0.0,0.0,0.0,0.0,0.0,0.0,0.0,0.0,-4.8574,-4.8965,-4.8281,-4.9004,-4.9336,-4.9375,-4.9941,-5.0153,-5.003,-4.9323,0.0,0.0,0.0,0.0,0.0,0.0,0.0,0.0,0.0,0.0,0.0,0.0,0.0,0.0,0.0,0.0,0.0,0.0,0.0,0.0,0.0,0.0,0.0,0.0,-4.853,-4.799,0.0,0.0,0.0,0.0,0.0,0.0,0.0,0.0,0.0,0.0,0.0,0.0,-4.6817,-4.9125,-5.0712,-5.0712,-5.0712,-5.0712,-5.0712,-5.0702,-5.0692,-5.0693,-4.8974,-4.7853,0.0,0.0,0.0,0.0,0.0,0.0,0.0,0.0,0.0,0.0,0.0,0.0,0.0,0.0,0.0,0.0,0.0,0.0,0.0,0.0,0.0,0.0,0.0,0.0,0.0,0.0,0.0,0.0,0.0,0.0,0.0,0.0,-4.7481,-4.8248,0.0,0.0,0.0,0.0,0.0,0.0,0.0,0.0,0.0,0.0,0.0,0.0,0.0,-4.7567,-4.8379,-4.9355,-4.9805,-4.9707,-5.0625,-5.1016,-5.0898,-5.1016,-5.1074,-5.1035,-5.0449,0.0,-5.0089,-4.9972,0.0,0.0,0.0,0.0,0.0,0.0,0.0,0.0,0.0,0.0,0.0,0.0,0.0,0.0,0.0,0.0,0.0,0.0,0.0,0.0,0.0,0.0,-5.0498,-5.0611,-4.9911,-4.9375,0.0,-4.8202,-4.6567,-4.6567,-4.5951,0.0,0.0,0.0,0.0,0.0,0.0,0.0,-4.6885,-4.9125,-5.0712,-5.0712,-5.0712,-5.0712,-5.0712,-5.0693,-5.0693,-5.0712,-5.0158,-4.9243,-4.7905,-4.8903,0.0,0.0,0.0,0.0,0.0,0.0,0.0,0.0,0.0,0.0,0.0,0.0,0.0,0.0,0.0,0.0,0.0,0.0,0.0,0.0,0.0,0.0,0.0,0.0,0.0,0.0,0.0,0.0,0.0,-4.6936,-4.7946,-4.8282,-4.8029,-4.7314,0.0,0.0,0.0,0.0,0.0,0.0,0.0,0.0,0.0,-4.8818,-4.9796,-5.0514,-5.0928,-5.1834,-5.2273,-5.2273,-5.2675,-5.2851,-5.2851,-5.2851,-5.2851,-5.2832,-5.248,-5.2031,-5.1481,-5.0501,-4.9831,-4.9352,0.0,0.0,0.0,0.0,0.0,-4.8278,-4.8262,-4.8828,0.0,0.0,0.0,0.0,0.0,0.0,0.0,0.0,0.0,0.0,0.0,0.0,0.0,-5.0986,-5.0635,-5.0296,-5.0681,-4.9479,-4.8317,0.0,-4.7605,-4.6586,-4.5267,0.0,0.0,0.0,0.0,-4.7759,-4.824,-4.9702,-5.0712,-5.0712,-5.0712,-5.0712,-5.0712,-5.0712,-5.0712,-5.0712,-5.0399,-4.9893,-4.9231,-4.9657,-4.8751,0.0,0.0,0.0,0.0,0.0,0.0,0.0,0.0,0.0,0.0,0.0,0.0,0.0,0.0,0.0,0.0,0.0,0.0,0.0,0.0,0.0,0.0,0.0,0.0,0.0,0.0,0.0,0.0,-4.7155,-4.8362,-4.851,-4.8311,-4.7733,0.0,0.0,0.0,0.0,0.0,0.0,-4.8158,-4.9013,-4.992,-5.0845,-5.211,-5.2781,-5.2803,-5.3529,-5.3908,-5.3908,-5.3961,-5.4004,-5.4004,-5.4004,-5.4004,-5.4004,-5.4004,-5.3633,-5.2909,-5.1381,-5.0282,-4.9513,-4.9231,-4.8763,-4.82,-4.8,-4.8431,-4.9139,-4.9132,-4.9696,-5.044,-5.0433,0.0,-4.9936,-4.9002,0.0,0.0,0.0,0.0,-4.9085,-4.9834,-5.0048,-5.0267,-5.1028,-5.1004,-5.0801,-5.0801,-5.0065,-4.9471,0.0,-4.9029,-4.8048,-4.6787,0.0,0.0,0.0,0.0,-4.8663,-4.9317,-5.0164,-5.0712,-5.0712,-5.0712,-5.0712,-5.0712,-5.0712,-5.0712,-5.0712,-5.0472,-5.0336,-5.0336,-5.019,-4.9522,-4.8267,0.0,0.0,0.0,0.0,0.0,0.0,0.0,0.0,0.0,0.0,0.0,0.0,0.0,0.0,0.0,0.0,0.0,0.0,0.0,0.0,0.0,0.0,0.0,0.0,0.0,0.0,0.0,0.0,0.0,-4.9342,-5.0241,0.0,0.0,0.0,0.0,-4.7276,-4.873,-5.0057,-5.0858,-5.1722,-5.2597,-5.3483,-5.3532,-5.3572,-5.3645,-5.3802,-5.3908,-5.3908,-5.3961,-5.4004,-5.4004,-5.4004,-5.4004,-5.4004,-5.4004,-5.3984,-5.3867,-5.2945,-5.2059,-5.1193,-5.0364,-5.0007,-4.987,-4.9032,-4.9286,-5.0026,-5.0026,-5.0612,-5.1336,-5.1336,-5.0762,-4.9934,-4.9056,-4.8768,0.0,0.0,-4.9389,-5.0032,-5.0076,-5.0602,-5.1135,-5.1196,-5.1002,-5.0801,-5.0801,-5.0065,-4.9644,0.0,-4.9933,-4.9317,-4.9221,0.0,-4.8971,-4.8105,-4.8759,-4.9356,-4.9394,-5.0164,-5.0712,-5.0712,-5.0712,-5.0712,-5.0712,-5.0712,-5.0712,-5.0712,-5.0683,-5.0673,-5.0673,-5.0663,-5.0535,-5.0259,-4.9425,0.0,0.0,0.0,0.0,0.0,0.0,0.0,0.0,0.0,0.0,0.0,0.0,0.0,0.0,0.0,0.0,0.0,0.0,0.0,0.0,0.0,0.0,0.0,0.0,0.0,0.0,0.0,0.0,-4.9414,-4.9892,0.0,-5.0016,-5.0387,-5.0604,-5.0526,-5.1657,-5.2453,-5.2699,-5.3501,-5.4088,-5.4398,-5.4878,-5.5157,-5.5188,-5.5308,-5.5385,-5.5385,-5.5538,-5.561,-5.561,-5.5643,-5.5664,-5.5664,-5.5664,-5.5351,-5.4805,-5.449,-5.353,-5.2215,-5.189,-5.1433,-5.0906,-5.0594,-5.0672,-5.0945,-5.0945,-5.1141,-5.1394,-5.1394,-5.1183,-5.0876,-5.0564,-5.0471,-5.0474,-5.0468,-5.0701,-5.0933,-5.0947,-5.1093,-5.1264,-5.1264,-5.1084,-5.0929,-5.0874,-5.0559,-5.0383,-5.0645,-4.999,-4.9394,-4.9394,-4.9875,-4.9933,-4.9067,-4.9683,-5.025,-5.025,-5.0519,-5.0712,-5.0712,-5.0712,-5.0712,-5.0712,-5.0712,-5.0712,-5.0712,-5.0712,-5.0712,-5.0712,-5.0712,-5.0663,-5.0584,-5.0071,-4.8754,0.0,0.0,0.0,0.0,0.0,0.0,0.0,0.0,0.0,0.0,0.0,0.0,0.0,0.0,0.0,0.0,0.0,0.0,0.0,0.0,0.0,0.0,0.0,0.0,0.0,-4.7436,-4.894,-4.9434,-5.012,-5.0743,-5.1293,-5.1683,-5.2262,-5.3107,-5.3746,-5.4213,-5.4463,-5.4978,-5.5265,-5.5269,-5.5764,-5.602,-5.6012,-5.6119,-5.6219,-5.6242,-5.6404,-5.6515,-5.6548,-5.658,-5.6289,-5.5762,-5.6348,-5.5937,-5.4902,-5.5507,-5.488,-5.3548,-5.3243,-5.2608,-5.1843,-5.1843,-5.1648,-5.1394,-5.1394,-5.1394,-5.1394,-5.1394,-5.1394,-5.1394,-5.1394,-5.1394,-5.1394,-5.1394,-5.1394,-5.1394,-5.1394,-5.1366,-5.1331,-5.132,-5.1167,-5.1024,-5.0947,-5.0626,-5.0437,-5.0701,-5.025,-4.974,-4.9452,-4.9875,-4.9971,-4.9086,-4.9452,-4.9817,-4.9817,-5.0067,-5.0269,-5.0269,-5.0519,-5.0712,-5.0712,-5.0442,-5.0385,-5.0673,-5.0423,-5.0385,-5.0693,-5.0423,-5.0269,-5.0269,-4.9754,-4.8659,-4.7003,0.0,0.0,0.0,0.0,0.0,0.0,0.0,0.0,0.0,0.0,0.0,0.0,0.0,0.0,0.0,0.0,0.0,0.0,0.0,0.0,0.0,0.0,0.0,-4.5738,-4.7906,-4.9521,-4.9574,-5.1134,-5.2213,-5.2287,-5.3046,-5.3917,-5.4861,-5.4943,-5.5313,-5.616,-5.6141,-5.6126,-5.6121,-5.6044,-5.5996,-5.5915,-5.61,-5.6236,-5.6284,-5.6439,-5.6525,-5.6582,-5.6621,-5.5722,-5.4219,-5.5937,-5.5703,-5.4258,-5.5936,-5.6131,-5.5252,-5.4383,-5.3512,-5.2743,-5.2704,-5.2156,-5.1394,-5.1336,-5.1355,-5.1394,-5.1394,-5.1394,-5.1394,-5.1394,-5.1394,-5.1394,-5.1394,-5.1394,-5.1394,-5.1394,-5.1398,-5.1386,-5.1325,-5.119,-5.1083,-5.1011,-5.0229,-4.9798,-5.0647,-5.074,-5.0442,-4.9586,-4.9433,-4.9144,-4.8317,-4.8182,0.0,-4.8182,-4.8913,-4.9433,-4.9433,-5.0164,-5.0673,-5.0712,-4.9894,-4.976,-5.0635,-4.9913,-4.9817,-5.0673,-4.9894,-4.9433,-4.9433,-4.8577,-4.8344,-4.8765,0.0,0.0,0.0,0.0,0.0,0.0,0.0,0.0,0.0,0.0,0.0,0.0,0.0,0.0,0.0,0.0,0.0,0.0,0.0,0.0,0.0,-4.7181,-4.8374,-4.8365,-4.9015,-4.9974,-5.1229,-5.1824,-5.2646,-5.3964,-5.4252,-5.478,-5.577,-5.5802,-5.5913,-5.6259,-5.5067,-5.4394,-5.438,-5.427,-5.4212,-5.4196,-5.5431,-5.6064,-5.6078,-5.6218,-5.6314,-5.6416,-5.7098,-5.7199,-5.6894,-5.8008,-5.7851,-5.6855,-5.7343,-5.7031,-5.6169,-5.5281,-5.4415,-5.3572,-5.2921,-5.2156,-5.1219,-4.995,-5.034,-5.1394,-5.1394,-5.1394,-5.1394,-5.1394,-5.1394,-5.1394,-5.1394,-5.1394,-5.1394,-5.1394,-5.1398,-5.1386,-5.1325,-5.1229,-5.1147,-5.1024,-5.0751,-5.056,-5.0752,-5.074,-5.0616,-5.0385,-5.0346,-5.0269,-5.001,-4.999,0.0,-4.999,-5.0183,-5.0346,-5.0346,-4.999,-5.001,-5.0654,-4.9894,-4.976,-5.0635,-5.0481,-5.0462,-5.0693,-5.0481,-5.0346,-5.0346,-4.9294,-4.8526,0.0,0.0,0.0,0.0,0.0,0.0,0.0,0.0,0.0,0.0,0.0,0.0,0.0,0.0,0.0,0.0,0.0,0.0,0.0,0.0,0.0,0.0,-4.8202,-4.9644,-5.0356,-5.0481,-5.0874,-5.1895,-5.2656,-5.3542,-5.4613,-5.5023,-5.5455,-5.6079,-5.6114,-5.6124,-5.6206,-5.5307,-5.4453,-5.3715,-5.4314,-5.427,-5.3515,-5.5194,-5.6062,-5.6079,-5.6154,-5.6247,-5.6312,-5.6913,-5.6834,0.0,-5.7949,-5.7949,-5.6875,-5.7598,-5.7597,0.0,0.0,0.0,0.0,0.0,-5.2372,-5.1746,-5.0379,-5.0555,-5.1394,-5.1394,-5.1394,-5.1394,-5.1394,-5.116,-5.0867,-5.0867,-5.0594,-5.0399,-5.077,-5.0863,-5.0935,-5.1263,-5.1304,-5.1261,-5.1113,-5.0745,-5.0532,-5.0828,0.0,0.0,-5.0673,-5.0433,-5.0029,-4.9663,-4.9606,-4.9606,-4.9606,-4.9933,-5.0173,-5.0173,-5.0029,-5.0144,-5.0654,-4.9894,0.0,0.0,0.0,-5.0173,-5.0173,-5.0173,0.0,0.0,0.0,-4.8572,0.0,0.0,0.0,0.0,-4.6739,-4.6229,0.0,0.0,0.0,0.0,0.0,0.0,0.0,0.0,0.0,0.0,0.0,0.0,0.0,0.0,0.0,0.0,-4.8971,-5.0106,-5.1673,-5.1981,-5.2077,-5.2173,-5.3568,-5.4562,-5.4728,-5.5442,-5.5923,-5.5984,-5.6067,-5.6094,-5.6102,0.0,0.0,0.0,0.0,-5.5155,-5.353,-5.5246,-5.6133,-5.6194,-5.6175,-5.6224,-5.6299,-5.6504,-5.5775,-5.4476,-5.6948,-5.7109,-5.5723,-5.7363,-5.7988,-5.7812,-5.6948,-5.6062,-5.5077,-5.3233,-5.2626,0.0,0.0,0.0,0.0,-5.1394,-5.1394,-5.1394,-5.1394,-5.0867,-5.0241,-5.0241,-4.9755,-4.9425,-5.0184,-5.0479,-5.0723,-5.1504,-5.1679,-5.1616,-5.1408,-5.0698,-5.0266,-5.0875,-5.0268,-4.9903,-5.0666,-5.0104,-4.9279,-4.8509,-4.8394,0.0,-4.8394,-4.9067,-4.9548,-4.9548,0.0,0.0,-5.0693,-4.9894,-4.976,-5.0635,-4.9971,-4.9548,-4.9548,-4.9548,-4.9183,-4.8413,-4.8394,-4.8779,-4.9548,-4.9548,-4.9884,-5.0453,-4.7593,-4.701,0.0,0.0,0.0,0.0,0.0,0.0,0.0,0.0,0.0,0.0,0.0,0.0,0.0,0.0,0.0,-4.8971,-4.9875,-5.0779,-5.175,-5.25,-5.3222,-5.3914,-5.428,-5.4812,-5.5577,-5.57,-5.5798,-5.5995,-5.6001,-5.6051,-5.6094,-5.4893,-5.4058,-5.3702,-5.4006,-5.4019,-5.3656,-5.5277,-5.6106,-5.611,0.0,0.0,-5.6238,-5.6967,-5.7184,-5.7035,-5.8256,-5.8253,-5.748,-5.8515,-5.8535,-5.7811,-5.6946,-5.6077,-5.5009,-5.2548,-5.2097,-5.2372,-5.0087,-5.0223,-5.1394,-5.1394,-5.1394,-5.1394,-5.1394,-5.1277,0.0,-5.116,-5.1538,-5.1974,-5.215,-5.272,-5.3276,-5.3396,-5.3413,-5.3206,-5.2426,-5.2062,-5.1722,-5.1121,-5.0789,-5.0665,-5.0771,-5.0605,-5.0385,-5.0221,-5.0212,-5.0212,-5.0212,-5.0346,-5.0462,-5.0462,-4.9971,-4.9933,-5.0635,-4.9894,-4.976,-5.0635,-5.0539,-5.0462,-5.0462,-5.0462,-5.0366,-5.0212,-5.0212,-5.0289,-5.0462,-5.0462,-5.0529,-5.0653,-4.9972,-4.9698,0.0,0.0,0.0,0.0,0.0,0.0,0.0,0.0,0.0,0.0,0.0,-4.6374,-4.6817,0.0,-4.8394,-4.926,-5.0125,-5.1125,-5.2375,-5.3299,-5.401,-5.4453,-5.4857,-5.5282,-5.5748,-5.5797,-5.5837,-5.5932,-5.601,-5.6056,-5.6102,-5.5397,-5.4608,-5.3733,-5.455,-5.4589,-5.3715,-5.5327,-5.6141,-5.6098,-5.6029,-5.6035,-5.6121,-5.6614,-5.6895,-5.6998,-5.793,-5.8141,-5.7863,-5.8808,-5.8437,-5.7244,-5.7242,-5.6727,-5.5736,-5.3998,-5.3352,-5.3093,-5.1355,-5.1043,-5.1394,-5.1394,-5.1691,-5.2048,-5.2048,-5.2049,-5.2052,-5.2052,-5.2057,-5.2157,-5.2582,-5.3013,-5.3449,-5.3846,-5.3945,-5.3808,-5.332,-5.2825,-5.2356,-5.1855,-5.1328,-5.0952,-5.0914,-5.0819,-5.075,-5.0721,-5.0712,-5.0712,-5.0712,-5.0712,-5.0712,-5.0712,-5.0308,-5.0231,-5.0654,-5.0308,-5.025,-5.0673,-5.0712,-5.0712,-5.0712,-5.0712,-5.0712,-5.0712,-5.0712,-5.0712,-5.0712,-5.0712,-5.0712,-5.0712,-5.0682,-5.0511,0.0,0.0,0.0,0.0,0.0,0.0,0.0,-4.6855,-4.6537,-4.6364,-4.7028,-4.7644,-4.7644,-4.8172,-4.8884,-4.974,-5.0481,-5.1549,-5.3222,-5.4068,-5.4549,-5.4703,-5.532,-5.5745,-5.5745,-5.5837,-5.5923,-5.5923,-5.6035,-5.6102,-5.6102,-5.6232,-5.565,-5.4258,-5.5573,-5.5637,-5.4213,-5.5523,-5.6164,-5.6125,-5.6037,-5.6012,-5.5993,-5.6117,-5.6187,-5.6252,-5.7102,-5.7569,-5.7793,-5.8611,-5.8222,-5.7167,-5.7694,-5.7475,-5.6723,-5.5688,-5.4745,-5.3877,-5.2999,-5.2238,-5.1652,-5.1652,-5.2244,-5.2955,-5.2955,-5.2957,-5.2941,-5.2941,-5.2572,-5.2318,-5.3017,-5.3328,-5.3622,-5.4344,-5.4366,-5.4177,-5.3957,-5.3208,-5.2519,-5.2284,-5.1589,-5.1037,-5.1004,-5.0921,-5.081,-5.074,-5.0702,-5.0712,-5.0712,-5.0712,-5.0712,-5.0712,-5.0712,-5.0712,-5.0712,-5.0712,-5.0712,-5.0712,-5.0712,-5.0712,-5.0712,-5.0712,-5.0712,-5.0712,-5.0712,-5.0712,-5.0712,-5.0712,-5.0712,-5.0712,-5.0712,-5.0553,-4.2135,-4.2135,-4.3532,-4.6233,-4.7355,-4.7855,0.0,-4.9086,-4.9923,-4.9125,-4.9663,-5.0269,-5.0269,-5.0356,-5.0673,-5.1491,-5.1761,-5.2444,-5.4117,-5.4434,-5.4761,-5.5472,-5.5758,-5.5876,-5.5876,-5.5941,-5.5995,-5.5995,-5.6067,-5.6102,-5.6102,-5.6232,-5.6214,-5.6019,-5.6194,-5.6214,-5.6013,-5.6139,-5.6199,-5.6191,-5.6073,-5.6012,-5.6012,-5.6029,-5.6087,-5.6233,-5.6514,-5.7114,-5.789,-5.8008,-5.8398,-5.8847,-5.8164,-5.7831,-5.7555,-5.5911,-5.4752,-5.3886,-5.3009,-5.2638,-5.254,-5.254,-5.3132,-5.3859,-5.3859,-5.3859,-5.386,-5.386,-5.4332,-5.4881,-5.4978,-5.5585,-5.6191,-5.6289,-5.5662,-5.4849,-5.4072,-5.3166,-5.2284,-5.1489,-5.1241,-5.1133,-5.101,-5.0983,-5.0925,-5.081,-5.075,-5.0712,-5.0712,-5.0712,-5.0712,-5.0712,-5.0712,-5.0712,-5.0712,-5.0712,-5.0712,-5.0712,-5.0712,-5.0712,-5.0712,-5.0712,-5.0712,-5.0712,-5.0712,-5.0712,-5.0712,-5.0712,-5.0712,-5.0712,-5.0712,-5.0553,-4.3512,-4.462,-4.6106,-4.7905,-4.899,-4.9606,-4.9606,-5.0183,-5.0596,-5.0231,-5.0462,-5.0702,-5.0702,-5.0317,-5.0431,-5.1789,-5.202,-5.2579,-5.4254,-5.4897,-5.5318,-5.5665,-5.492,-5.4381,-5.439,-5.5371,-5.5603,-5.4665,-5.5601,-5.6225,-5.6225,-5.6278,-5.6291,-5.6291,-5.6291,-5.6291,-5.6291,-5.6225,-5.6197,-5.6197,-5.6094,-5.6065,-5.6065,-5.602,-5.6064,-5.6207,-5.6327,-5.665,-5.7176,-5.8222,-5.8574,-5.8457,-5.8594,-5.8359,-5.7753,-5.6501,-5.5501,-5.4695,-5.4345,-5.3876,-5.3466,-5.3466,-5.4055,-5.4762,-5.4762,-5.5115,-5.5506,-5.5506,-5.578,-5.6054,-5.6053,-5.6327,-5.6601,-5.6601,-5.6308,-5.5778,-5.4857,-5.3942,-5.3046,-5.214,-5.1553,-5.1171,-5.1127,-5.105,-5.0976,-5.0917,-5.0836,-5.074,-5.0721,-5.0712,-5.0712,-5.0712,-5.0712,-5.0712,-5.0712,-5.0712,-5.0712,-5.0712,-5.0712,-5.0712,-5.0712,-5.0712,-5.0712,-5.0712,-5.0712,-5.0712,-5.0712,-5.0712,-5.0712,-5.0712,-5.0712,-5.0553,-4.4848,-4.6273,-4.7406,-4.9039,-4.9894,-5.0423,-5.0673,-5.0731,-5.0731,-5.0731,-5.0731,-5.0721,-5.0739,-5.044,-5.0689,-5.2181,-5.28,-5.3591,-5.5046,-5.5728,-5.5908,-5.5427,-5.413,-5.2897,-5.199,-5.3986,-5.506,-5.4386,-5.5566,-5.6291,-5.6291,-5.6291,-5.6291,-5.6291,-5.6291,-5.6291,-5.6291,-5.6239,-5.6199,-5.6199,-5.6153,-5.6125,-5.6098,-5.6029,-5.6064,-5.6201,-5.6266,-5.6374,-5.6628,-5.8181,-5.8613,-5.832,-5.8945,-5.8808,-5.8144,-5.7284,-5.6247,-5.5307,-5.5307,-5.4897,-5.4369,-5.4369,-5.4958,-5.5663,-5.5663,-5.6093,-5.6601,-5.6601,-5.6601,-5.6601,-5.6601,-5.66,-5.66,-5.66,-5.6406,-5.6034,-5.5341,-5.4309,-5.3318,-5.2632,-5.1793,-5.1202,-5.1202,-5.1121,-5.1043,-5.1004,-5.0906,-5.0801,-5.074,-5.0712,-5.0712,-5.0712,-5.0712,-5.0712,-5.0712,-5.0712,-5.0712,-5.0712,-5.0712,-5.0712,-5.0712,-5.0712,-5.0712,-5.0712,-5.0712,-5.0712,-5.0712,-5.0712,-5.0712,-5.0712,-5.0712,-5.0593,-4.5652,-4.5789,-4.5799,-4.875,-4.9523,-4.9751,-5.06,-5.0793,-5.0793,-5.0793,-5.0793,-5.0793,-5.0801,-5.1464,-5.2292,-5.3117,-5.4727,-5.6174,-5.6995,-5.708,-5.6422,-5.4746,-5.3753,-5.1934,-4.8673,-5.1583,-5.438,-5.6091,-5.6272,-5.6291,-5.6291,-5.6291,-5.6291,-5.6291,-5.6291,-5.6291,-5.6291,-5.6239,-5.6199,-5.6199,-5.6194,-5.6157,-5.6098,-5.6029,-5.6064,-5.6201,-5.6266,-5.6374,-5.6569,-5.7536,-5.8418,-5.916,-5.9199,-5.918,-5.9043,-5.8183,-5.6777,-5.5291,-5.5291,-5.5272,-5.5252,-5.5252,-5.5859,-5.6562,-5.6562,-5.6582,-5.6601,-5.6601,-5.6601,-5.6601,-5.6601,-5.6601,-5.6601,-5.6601,-5.5895,-5.5239,-5.522,-5.3799,-5.2527,-5.2503,-5.1793,-5.1202,-5.1202,-5.1196,-5.1159,-5.103,-5.0932,-5.0866,-5.081,-5.073,-5.0712,-5.0712,-5.0712,-5.0712,-5.0712,-5.0712,-5.0712,-5.0712,-5.0712,-5.0712,-5.0712,-5.0712,-5.0712,-5.0712,-5.0712,-5.0712,-5.0712,-5.0712,-5.0712,-5.0712,-5.0712,-5.0633,-4.4546,-4.5787,-4.7347,-4.9064,-4.9935,-5.0589,-5.1457,-5.1702,-5.1708,-5.1659,-5.0775,-4.9988,-4.9994,-4.9771,-5.0232,-5.2238,-5.2589,-5.3692,-5.6772,-5.4764,-5.3782,-5.598,-5.3494,-5.2057,-5.3204,-5.3372,0.0,-5.288,-5.4904,-5.6206,-5.6291,-5.6291,-5.6291,-5.6291,-5.6291,-5.6291,-5.6291,-5.6278,-5.6278,-5.6272,-5.6209,-5.6157,-5.6098,-5.6029,-5.6026,-5.6071,-5.6188,-5.6286,-5.6475,-5.7998,-5.8861,-5.9258,-5.9785,-5.9668,-5.9082,-5.8223,-5.7168,-5.6152,-5.6152,-5.6152,-5.6152,-5.6152,-5.6367,-5.6601,-5.6601,-5.6601,-5.6601,-5.6601,-5.6601,-5.6601,-5.6601,-5.6601,-5.6601,-5.6601,-5.6367,-5.5954,-5.534,-5.427,-5.3237,-5.2609,-5.1793,-5.1202,-5.1202,-5.1202,-5.1159,-5.101,-5.0914,-5.081,-5.073,-5.0211,-4.9837,-4.9837,-4.9317,-4.8971,-4.8971,-4.8971,-4.8971,-4.8971,-4.951,-4.9837,-4.9837,-5.0385,-5.0712,-5.0712,-5.0712,-5.0712,-5.0712,-5.0712,-5.0712,-5.0712,-5.0712,-5.0633,-4.5156,-4.6799,-4.8664,-4.9723,-5.0662,-5.1451,-5.2011,-5.2169,-5.2202,-5.2136,-5.1029,-4.997,-4.9695,-4.9417,-4.9985,-5.2298,-5.2699,-5.3995,-5.7684,-5.555,-5.4394,-5.6493,-5.3752,-5.2316,-5.3889,-5.3571,-5.2902,-5.2063,-5.4017,-5.5274,-5.5378,-5.5359,-5.565,-5.6272,-5.6291,-5.6291,-5.6291,-5.6291,-5.6291,-5.6291,-5.6236,-5.6184,-5.6133,-5.6037,-5.5838,-5.5595,-5.6017,-5.6224,-5.6383,-5.7905,-5.8946,-5.9644,-6.0195,-5.9902,-5.9121,-5.8574,-5.7617,-5.6601,-5.6601,-5.6601,-5.6601,-5.6601,-5.6601,-5.6601,-5.6601,-5.6601,-5.6601,-5.6601,-5.6601,-5.6601,-5.6601,-5.6601,-5.6601,-5.6601,-5.6601,-5.6426,-5.5835,-5.4997,-5.4084,-5.3175,-5.2285,-5.1572,-5.1247,-5.1202,-5.1159,-5.101,-5.0643,-5.0355,-5.0277,-4.9769,-4.9279,-4.8971,-4.8432,-4.8105,-4.8105,-4.8105,-4.8105,-4.8105,-4.8625,-4.8933,-4.8933,-4.976,-5.025,-5.025,-5.0539,-5.0712,-5.0712,-5.0712,-5.0712,-5.0712,-5.0712,-5.0653,-4.7325,-4.8596,-4.9633,-5.0643,-5.1559,-5.221,-5.2268,-5.2306,-5.2306,-5.2229,-5.1486,-5.0577,-4.9711,-5.0144,-5.1246,-5.3072,-5.4677,-5.6646,-5.9409,-5.8833,-5.7619,-5.6261,-5.4445,-5.2685,-5.1115,-5.2396,-5.3407,-5.3572,0.0,-5.3863,-5.3831,-5.3889,-5.4647,-5.6253,-5.6291,-5.6291,-5.6291,-5.6291,-5.6291,-5.6291,-5.6236,-5.6199,-5.6199,-5.6054,-5.5586,-5.4918,-5.5855,-5.6265,-5.633,-5.7388,-5.8807,-6.0319,-6.0367,-5.9902,-5.9199,-5.914,-5.8066,-5.6601,-5.6601,-5.6601,-5.6601,-5.6601,-5.6601,-5.6601,-5.6601,-5.6601,-5.6601,-5.6601,-5.6601,-5.6601,-5.6601,-5.6601,-5.6601,-5.6601,-5.6601,-5.6601,-5.6601,-5.5855,-5.4958,-5.4123,-5.3175,-5.2227,-5.1356,-5.1202,-5.1139,-5.0978,-5.0172,-4.9575,-4.9517,-4.9363,-4.8952,-4.8125,-4.8009,-4.7971,-4.7971,-4.7971,-4.7971,-4.7971,-4.8009,-4.8048,-4.8048,-4.8875,-4.9336,-4.9336,-5.0192,-5.0635,-5.0635,-5.0673,-5.0712,-5.0712,-5.0712,-5.0712,-4.7108,-4.8754,-5.056,-5.0835,-5.1556,-5.2364,-5.3014,-5.3708,-5.3828,-5.2469,-5.1075,-4.9558,-4.7844,-4.731,-4.8048,-5.0938,-5.1393,-5.2715,-5.6567,-5.4728,-5.3742,-5.5782,-5.4497,-5.372,-5.4419,-5.4921,-5.4698,0.0,-5.5236,-5.6153,-5.567,-5.6259,-5.6511,-5.6311,-5.6291,-5.6291,-5.6291,-5.6291,-5.6291,-5.6291,-5.6225,-5.6209,-5.6199,-5.6106,-5.5941,-5.5741,-5.6635,-5.7059,-5.7204,-5.877,-5.975,-6.0297,-6.0327,-5.9856,-5.9121,-5.8476,-5.7539,-5.6601,-5.6601,-5.6601,-5.6601,-5.6601,-5.6601,-5.6601,-5.6601,-5.6601,-5.6601,-5.6601,-5.6601,-5.6601,-5.6601,-5.6601,-5.6601,-5.6601,-5.6601,-5.6601,-5.6601,-5.5855,-5.5139,-5.4917,-5.3592,-5.2227,-5.1356,-5.1202,-5.0963,-5.0291,-4.9938,-4.9693,-4.9525,-4.8342,-4.7451,-4.7231,-4.6624,-4.6249,-4.6249,-4.6249,-4.6249,-4.6249,-4.6855,-4.7212,-4.7212,-4.799,-4.8432,-4.8432,-4.9298,-4.9721,-4.9721,-5.0385,-5.0712,-5.0712,-5.0712,-5.0712,-4.8609,-4.9724,-5.0995,-5.137,-5.2124,-5.2801,-5.2898,-5.3344,-5.3213,-5.1463,-5.008,-4.858,-4.6637,-4.6322,-4.7313,-5.0234,-5.0809,-5.2136,-5.5683,-5.422,-5.3462,-5.5339,-5.4279,-5.4039,-5.5702,-5.5817,-5.5432,-5.4543,-5.5227,-5.551,-5.5138,-5.5618,-5.6006,-5.6291,-5.6291,-5.6291,-5.6291,-5.6291,-5.6291,-5.6291,-5.6239,-5.6197,-5.6199,-5.6133,-5.6054,-5.6051,0.0,-5.7533,-5.8037,-5.943,-6.0086,-6.0217,-6.0285,-5.9616,-5.8574,-5.8086,-5.7344,-5.6601,-5.6601,-5.6601,-5.6601,-5.6601,-5.6601,-5.6601,-5.6601,-5.6601,-5.6601,-5.6601,-5.6601,-5.6601,-5.6601,-5.6601,-5.6601,-5.6601,-5.6601,-5.6601,-5.6601,-5.619,-5.5696,-5.528,-5.3738,-5.2334,-5.1857,-5.1445,-5.0891,-5.0023,-4.9523,-4.9058,-4.8546,-4.759,-4.6784,-4.6374,-4.5893,-4.5594,-4.5594,-4.5594,-4.5594,-4.5594,-4.6067,-4.6336,-4.6336,-4.7124,-4.7567,-4.7567,-4.8394,-4.9029,-4.9394,-4.9894,-5.0327,-5.0712,-5.0712,-5.0712,-5.051,-5.0821,-5.108,-5.1834,-5.2685,-5.3149,-5.2519,-5.2182,-5.1583,-5.0016,-4.8914,-4.7697,-4.5905,-4.6503,-4.7997,-5.0182,-5.1401,-5.2854,-5.5091,-5.508,-5.4784,-5.4601,-5.3931,-5.4139,-5.5741,-5.5584,-5.5546,-5.5921,-5.4688,-5.3924,-5.3965,-5.4123,-5.486,-5.6253,-5.6291,-5.6291,-5.6291,-5.6291,-5.6291,-5.6291,-5.6239,-5.6204,-5.6206,-5.6141,-5.614,-5.6233,0.0,0.0,-5.8834,-5.9759,-6.0112,-6.0093,-6.0103,-5.9198,-5.7851,-5.7754,-5.7246,-5.6601,-5.6601,-5.6601,-5.6601,-5.6601,-5.6601,-5.6601,-5.6601,-5.6601,-5.6601,-5.6601,-5.6601,-5.6601,-5.6601,-5.6601,-5.6601,-5.6601,-5.6601,-5.6601,-5.6601,-5.6601,-5.6327,-5.5379,-5.3847,-5.2645,-5.2527,-5.1687,-5.0734,-4.9868,-4.8947,-4.8012,-4.7146,-4.6919,-4.6516,-4.5697,-4.5622,-4.5594,-4.5594,-4.5594,-4.5594,-4.5594,-4.5594,-4.5594,-4.5594,-4.6336,-4.674,-4.674,-4.7528,-4.8317,-4.9067,-4.9298,-4.9779,-5.0539,-5.0654,-5.0712,-5.0004,-5.0384,-5.101,-5.1107,-5.1776,-5.2577,-5.313,-5.2163,-5.084,-4.99,-4.843,-4.6955,-4.5744,-4.6978,-4.8508,-4.954,-5.041,-5.0901,-5.071,-5.2925,-5.4039,-5.2606,-5.3681,-5.4888,-5.5808,-5.4593,-5.4285,-5.5651,-5.5642,-5.5649,-5.5825,-5.6524,-5.6725,-5.6311,-5.6291,-5.6291,-5.6291,-5.6291,-5.6291,-5.6291,-5.6285,-5.6246,-5.6204,-5.6187,-5.6529,-5.7204,0.0,0.0,-5.9735,-6.0574,-6.0557,-5.9951,-5.9363,-5.8575,-5.7656,-5.7049,-5.6738,-5.6601,-5.6601,-5.6601,-5.6601,-5.6601,-5.6601,-5.6601,-5.6601,-5.6601,-5.6601,-5.6601,-5.6601,-5.6601,-5.6601,-5.6601,-5.6601,-5.6601,-5.6601,-5.6601,-5.6601,-5.6601,-5.6327,-5.5379,-5.4358,-5.3401,-5.2625,-5.1183,-4.9833,-4.8966,-4.8064,-4.7167,-4.6247,-4.6018,-4.5854,-4.5703,-4.5637,-4.5594,-4.5594,-4.5594,-4.5594,-4.5594,-4.5594,-4.5594,-4.5594,-4.5748,-4.5825,-4.5825,-4.6663,-4.7173,-4.7336,-4.8721,-4.9471,-4.9644,-5.0366,-5.0712,-4.9923,-5.0317,-5.1095,-5.1475,-5.1892,-5.2066,-5.1578,-5.0503,-4.91,-4.7356,-4.5998,-4.4791,-4.3723,-4.4988,-4.6785,-4.8535,-5.0291,-5.1645,-5.2264,-5.3635,-5.4267,-5.3505,-5.3676,-5.4053,-5.4554,-5.3812,-5.362,-5.439,-5.4608,-5.5125,-5.6094,-5.664,-5.6719,-5.6311,-5.6291,-5.6291,-5.6291,-5.6291,-5.6291,-5.6291,-5.6291,-5.6252,-5.6199,-5.6194,-5.6874,-5.8054,-5.8437,0.0,-5.9281,-6.0132,-5.9501,-5.8033,-5.8169,-5.7758,-5.7038,-5.6684,-5.6579,-5.6601,-5.6557,-5.6579,-5.6601,-5.6601,-5.6601,-5.6601,-5.6601,-5.6601,-5.6601,-5.6601,-5.6601,-5.6601,-5.6601,-5.6601,-5.6601,-5.6601,-5.6601,-5.6601,-5.6601,-5.6601,-5.6465,-5.6013,-5.4487,-5.313,-5.2687,-5.0752,-4.8986,-4.8102,-4.7582,-4.6976,-4.608,-4.5874,-4.5778,-4.5715,-4.5668,-4.5646,-4.5594,-4.5594,-4.5594,-4.5594,-4.5594,-4.5594,-4.5594,-4.5594,-4.5594,-4.5594,-4.6009,-4.6451,-4.6904,-4.7721,-4.8317,-4.874,-4.9625,-5.001,-5.0155,-5.0489,-5.1167,-5.178,-5.192,-5.1517,-4.995,-4.869,-4.7204,-4.4957,-4.3703,-4.2826,-4.2152,-4.3533,-4.553,-4.7882,-4.9856,-5.186,-5.4042,-5.4069,-5.407,-5.4644,-5.389,-5.3462,-5.3889,-5.3552,-5.3446,-5.3793,-5.395,0.0,-5.5985,-5.6211,-5.6291,-5.6291,-5.6291,-5.6291,-5.6291,-5.6291,-5.6291,-5.6291,-5.6291,-5.6278,-5.6232,-5.6403,-5.7257,-5.8624,-5.8794,0.0,0.0,-5.9532,-5.8419,-5.6239,-5.7184,-5.71,-5.6436,-5.6447,-5.6502,-5.6579,-5.6518,-5.6532,-5.6601,-5.6601,-5.6601,-5.6601,-5.6601,-5.6601,-5.6601,-5.6601,-5.6601,-5.6601,-5.6601,-5.6601,-5.6601,-5.6601,-5.6601,-5.6601,-5.6601,-5.6601,-5.6484,-5.6113,-5.4238,-5.2575,-5.2201,-5.0081,-4.822,-4.7502,-4.7217,-4.6814,-4.6115,-4.5977,-4.5898,-4.5757,-4.5723,-4.5676,-4.5629,-4.5603,-4.5594,-4.5594,-4.5594,-4.5594,-4.5594,-4.5594,-4.5594,-4.5594,-4.5594,-4.5932,-4.6624,-4.6817,-4.7212,-4.7855,-4.8721,-4.9221,-5.0804,-5.1035,-5.1087,-5.1109,-5.1064,-5.0774,-4.9822,-4.775,-4.5754,-4.4713,-4.3227,-4.2331,-4.3033,-4.502,-4.699,-4.8255,-4.8106,-4.8861,-5.1854,-5.177,-5.2157,-5.4205,-5.4349,-5.4638,-5.5577,-5.4236,-5.3909,-5.5359,-5.5653,0.0,-5.6246,-5.6285,-5.6291,-5.6291,-5.6291,-5.6291,-5.6291,-5.6291,-5.6291,-5.6291,-5.6291,-5.6291,-5.6324,-5.7047,-5.7858,-5.8723,-5.9456,0.0,0.0,-5.9532,-5.8361,-5.6112,-5.7047,-5.6938,-5.6224,-5.629,-5.641,-5.6513,-5.6508,-5.6532,-5.6601,-5.6601,-5.6601,-5.6601,-5.6601,-5.6601,-5.6601,-5.6601,-5.6601,-5.6601,-5.6601,-5.6601,-5.6601,-5.6601,-5.6601,-5.6601,-5.6601,-5.6601,-5.6133,-5.455,-5.3415,-5.2205,-5.0604,-4.8826,-4.7554,-4.7411,-4.6778,-4.6253,-4.6118,-4.6087,-4.6035,-4.5892,-4.5771,-4.57,-4.5692,-4.5637,-4.5594,-4.5594,-4.5594,-4.5594,-4.5594,-4.5594,-4.5594,-4.5594,-4.5594,-4.5633,-4.5729,-4.6509,-4.6942,-4.7019,-4.7836,-4.8644,-4.9453,-5.03,-5.1087,-5.1012,-5.0956,-5.0407,-4.852,-4.69,-4.5271,-4.3373,-4.2079,-4.1371,-4.1719,-4.2763,-4.4283,-4.6503,-4.7335,-4.9041,-5.2897,-5.3127,-5.3599,-5.5442,-5.5065,-5.4428,-5.3903,-5.3363,-5.3395,-5.4198,-5.4396,0.0,-5.6126,-5.6252,-5.6544,-5.7075,-5.6563,-5.6544,-5.7075,-5.6563,-5.6291,-5.6291,-5.6291,-5.6291,-5.633,-5.7132,-5.7943,-5.8723,-5.9039,0.0,0.0,-5.7772,-5.6515,-5.3901,-5.5908,-5.6486,-5.6201,-5.6236,-5.6305,-5.6377,-5.6377,-5.6458,-5.6553,-5.6581,-5.6601,-5.6601,-5.6601,-5.6601,-5.6601,-5.6601,-5.6601,-5.6601,-5.6601,-5.6601,-5.6601,-5.6601,-5.6601,-5.6465,-5.5937,-5.582,-5.5293,-5.3553,-5.2086,-5.0756,-4.9587,-4.791,-4.6718,-4.6676,-4.641,-4.6197,-4.616,-4.6158,-4.6145,-4.6086,-4.5917,-4.5828,-4.5828,-4.5723,-4.568,-4.572,-4.564,-4.5646,-4.5723,-4.5635,-4.5646,-4.5731,-4.5646,-4.5594,-4.5594,-4.5951,-4.6124,-4.6144,-4.699,-4.7567,-4.8474,-4.9789,-5.1094,-5.1046,-5.0588,-4.9521,-4.7245,-4.5849,-4.4387,-4.2098,-4.1171,-4.0797,-4.0797,-4.113,-4.2345,-4.5245,-4.6589,-4.8717,-5.2954,-5.308,-5.3499,-5.5524,-5.4742,-5.3827,-5.3283,-5.3454,-5.3728,-5.3995,-5.4127,0.0,-5.5985,-5.6403,-5.6815,-5.7211,-5.6622,-5.6583,-5.7211,-5.6602,-5.6285,-5.6239,-5.6285,-5.6142,-5.5895,-5.7261,-5.7919,-5.7994,0.0,0.0,0.0,-5.6437,-5.5354,-5.3185,-5.5315,-5.6146,-5.6146,-5.6146,-5.6205,-5.6292,-5.6292,-5.6394,-5.6549,-5.6581,-5.6601,-5.6601,-5.6601,-5.6601,-5.6601,-5.6601,-5.6601,-5.6601,-5.6601,-5.6601,-5.6601,-5.6601,-5.6406,-5.6054,-5.5429,-5.4882,-5.4022,-5.2262,-5.0756,-4.9403,-4.8323,-4.7062,-4.6228,-4.6228,-4.623,-4.6224,-4.6198,-4.6198,-4.6194,-4.6204,-4.6075,-4.5969,-4.5929,-4.5813,-4.579,-4.5822,-4.5736,-4.5718,-4.5822,-4.5752,-4.5725,-4.5829,-4.5745,-4.5692,-4.5692,-4.5676,-4.5651,-4.5671,-4.6247,-4.6644,-4.8366,-4.9814,-5.1101,-5.1094,-4.9698,-4.7894,-4.6194,-4.4474,-4.2755,-4.1067,-4.0765,-4.0797,-4.0797,-4.113,-4.2298,-4.5059,-4.5622,-4.7073,-5.0975,-5.0396,-5.0646,-5.3671,-5.3019,-5.302,-5.4794,-5.5153,-5.5394,-5.5654,-5.5798,0.0,-5.5895,-5.6856,-5.7058,-5.635,-5.6291,-5.6291,-5.6311,-5.6291,-5.6239,-5.6102,-5.6239,-5.5772,-5.4905,-5.7564,-5.7843,0.0,0.0,0.0,0.0,-5.6029,-5.5528,-5.4851,-5.5683,-5.5993,-5.5993,-5.5993,-5.6122,-5.6292,-5.6292,-5.6421,-5.6601,-5.6601,-5.6601,-5.6601,-5.6601,-5.6601,-5.6601,-5.6601,-5.6601,-5.6601,-5.6601,-5.6601,-5.6601,-5.6601,-5.5937,-5.5311,-5.5291,-5.3941,-5.2217,-5.0472,-4.9476,-4.8362,-4.6635,-4.6302,-4.6302,-4.6302,-4.6302,-4.6274,-4.6211,-4.6191,-4.6209,-4.6207,-4.6202,-4.6134,-4.6014,-4.5947,-4.5899,-4.5899,-4.5891,-4.5899,-4.5899,-4.5899,-4.5899,-4.5899,-4.5899,-4.5899,-4.5899,-4.5835,-4.58,-4.58,-4.5679,-4.6086,-4.5763,-4.6756,-4.754,-4.754,-4.703,-4.6071,-4.4411,-4.3603,-4.2716,-4.1048,-4.0746,-4.0797,-4.0797,-4.0676,-4.1628,-4.4899,-4.5243,-4.6707,-5.1391,-5.1694,-5.213,-5.4053,-5.3828,-5.3895,-5.4848,-5.3874,-5.3881,-5.5566,0.0,0.0,-5.5837,-5.6807,-5.7528,-5.7923,-5.7361,-5.7341,-5.7923,-5.6707,-5.6059,-5.6035,-5.6679,-5.6198,-5.4815,-5.7411,0.0,0.0,0.0,0.0,0.0,-5.5495,-5.5165,-5.4039,-5.5451,-5.6012,-5.6012,-5.6012,-5.604,-5.6102,-5.6242,-5.6344,-5.6414,-5.656,-5.6601,-5.6601,-5.6601,-5.6601,-5.6601,-5.6601,-5.6601,-5.6601,-5.6601,-5.6601,-5.6444,-5.5858,-5.5506,-5.4819,-5.3022,-5.2201,-5.1124,-4.8833,-4.8188,-4.7658,-4.6497,-4.63,-4.63,-4.63,-4.63,-4.6285,-4.6274,-4.6276,-4.6279,-4.6265,-4.6265,-4.623,-4.6147,-4.6028,-4.5981,-4.6037,-4.5951,-4.5946,-4.6024,-4.5959,-4.5935,-4.6021,-4.5959,-4.5899,-4.5899,-4.5886,-4.5863,-4.5863,-4.5821,-4.5958,-4.3981,-4.5095,-4.59,-4.59,-4.5307,-4.4457,-4.3423,-4.2686,-4.1928,-4.0906,-4.1248,-4.1512,-4.0906,-4.0976,-4.182,-4.3992,-4.5076,-4.6714,-4.9853,-5.0854,-5.1556,-5.2367,-5.2872,-5.3588,-5.479,-5.3869,-5.3889,-5.5575,0.0,0.0,-5.6241,-5.7197,-5.8132,-5.9045,-5.823,-5.8045,-5.8587,-5.7436,-5.685,-5.684,-5.7091,-5.63,-5.4641,-5.6956,0.0,0.0,0.0,0.0,0.0,-5.5104,-5.5025,-5.451,-5.5553,-5.5959,-5.5959,-5.5995,-5.599,-5.6025,-5.6227,-5.6332,-5.6394,-5.6558,-5.6601,-5.6601,-5.6601,-5.6601,-5.6601,-5.6601,-5.6601,-5.6601,-5.6601,-5.6367,-5.5975,-5.5428,-5.48,-5.3779,-5.1825,-5.0886,-4.9867,-4.7969,-4.7325,-4.6933,-4.6399,-4.63,-4.63,-4.63,-4.63,-4.63,-4.63,-4.6303,-4.6305,-4.6302,-4.6303,-4.6273,-4.6245,-4.6169,-4.6124,-4.6171,-4.6103,-4.6097,-4.6175,-4.6108,-4.6089,-4.6176,-4.6095,-4.6053,-4.6053,-4.6,-4.594,-4.5899,-4.5899,-4.5899,0.0,-4.4397,-4.5532,-4.5525,-4.423,-4.295,-4.2992,-4.1754,0.0,-4.0828,-4.2107,-4.2744,-4.1242,-4.195,-4.2782,-4.2773,-4.5149,-4.7034,-4.7147,-4.8611,-4.9574,-4.9329,-5.0695,-5.2471,-5.4495,-5.476,-5.505,-5.5629,0.0,0.0,-5.6945,-5.7888,-5.8798,-5.9666,-5.8906,-5.8481,-5.8491,-5.8344,-5.8165,-5.7931,-5.7366,-5.6055,-5.4194,-5.6184,0.0,0.0,0.0,0.0,0.0,-5.4911,-5.5094,-5.5885,-5.5885,-5.5885,-5.5895,-5.5959,-5.5988,-5.602,-5.6212,-5.6377,-5.6491,-5.658,-5.6601,-5.6601,-5.6601,-5.6601,-5.6601,-5.6601,-5.6601,-5.6582,-5.6523,-5.5918,-5.5272,-5.5135,-5.3821,-5.2347,-5.1428,-4.9898,-4.8486,-4.7664,-4.6846,-4.63,-4.6302,-4.6302,-4.6302,-4.6302,-4.6302,-4.6302,-4.6302,-4.6309,-4.6291,-4.6303,-4.6309,-4.6291,-4.6302,-4.6295,-4.6301,-4.6301,-4.6307,-4.6308,-4.6304,-4.6302,-4.6297,-4.6303,-4.6302,-4.63,-4.63,-4.6176,-4.6053,-4.5925,-4.5925,-4.5925,-4.1427,0.0,-4.1986,-4.1924,-4.1557,-4.1183,0.0,-4.0862,-4.0981,-4.2267,-4.288,-4.3084,-4.2709,-4.3663,-4.4516,-4.4516,-4.5911,-4.7414,-4.859,-5.0153,-5.0703,-4.938,-5.1705,-5.3229,-5.2721,-5.3978,-5.4966,0.0,0.0,-5.6069,-5.6945,-5.7852,-5.871,-5.9518,-5.9292,-5.9218,-5.9325,-5.8546,-5.719,-5.53,-5.6428,-5.5341,-5.2466,-5.4893,0.0,0.0,0.0,0.0,-5.4841,-5.5243,-5.5583,-5.5826,-5.5766,-5.5745,-5.5756,-5.5757,-5.5837,-5.5937,-5.6096,-5.6236,-5.6361,-5.6538,-5.6601,-5.6601,-5.6601,-5.6601,-5.6601,-5.6601,-5.6601,-5.6445,-5.5781,-5.5449,-5.4958,-5.3627,-5.249,-5.1271,-4.9741,-4.8605,-4.7627,-4.6768,-4.6436,-4.6303,-4.6309,-4.629,-4.6293,-4.6297,-4.6297,-4.6297,-4.6297,-4.63,-4.63,-4.6299,-4.63,-4.6297,-4.6291,-4.6308,-4.6306,-4.6306,-4.63,-4.6305,-4.6307,-4.6307,-4.6301,-4.6297,-4.6306,-4.63,-4.63,-4.6271,-4.624,-4.6209,-4.6209,-4.6209,-4.0922,-4.0826,-4.093,-4.1706,-4.1214,-4.0742,-4.1524,-4.1108,-4.1027,-4.2745,-4.3131,-4.3154,-4.319,-4.3997,-4.4741,-4.505,-4.5887,-4.7149,-4.9024,-5.0043,-5.0254,-4.9307,-5.0681,-5.1758,0.0,-5.4012,-5.5489,0.0,0.0,-5.7261,-5.8088,-5.8588,-5.9254,-6.0115,-5.9681,-5.9458,-5.9511,-5.8172,-5.6436,-5.4369,-5.5646,-5.4687,-5.1847,-5.4414,-5.4874,0.0,0.0,0.0,-5.4968,-5.4619,-5.4949,-5.5703,-5.5629,-5.5607,-5.5607,-5.5682,-5.5714,-5.569,-5.5558,-5.5652,-5.5931,-5.6423,-5.6601,-5.6601,-5.6601,-5.6328,-5.5996,-5.5996,-5.5996,-5.5801,-5.4922,-5.4413,-5.3865,-5.2926,-5.173,-5.0436,-4.9124,-4.8185,-4.7346,-4.6467,-4.6293,-4.6294,-4.6296,-4.6297,-4.6299,-4.6301,-4.6301,-4.6301,-4.6301,-4.6303,-4.6304,-4.6301,-4.6303,-4.6303,-4.6297,-4.6294,-4.6309,-4.6302,-4.6309,-4.6296,-4.6301,-4.6308,-4.6307,-4.6301,-4.6309,-4.63,-4.63,-4.63,-4.63,-4.63,-4.63,-4.63,-4.0903,-4.0901,-4.13,-4.2905,-4.1895,-4.0989,-4.2709,-4.1739,-4.1062,-4.3076,-4.3476,-4.3503,-4.3573,-4.4447,-4.5144,-4.5085,-4.5792,-4.7066,-4.8974,-4.9466,-4.9508,-4.9216,-4.9508,0.0,-5.1696,-5.4248,0.0,0.0,0.0,-5.8511,-5.9454,-5.9273,-5.9546,-6.0468,-5.9364,-5.8712,-5.8654,-5.7431,-5.5907,-5.4131,-5.4929,-5.4135,-5.2017,-5.4356,-5.5138,0.0,0.0,0.0,-5.5492,-5.4004,-5.4254,-5.5573,-5.5504,-5.548,-5.5504,-5.5615,-5.5604,-5.5442,-5.4975,-5.5002,-5.5377,-5.6151,-5.6308,-5.623,-5.6367,-5.5781,-5.5078,-5.4941,-5.5,-5.4902,-5.4023,-5.3242,-5.2635,-5.2381,-5.109,-4.9681,-4.8878,-4.8019,-4.7179,-4.6438,-4.6301,-4.6301,-4.6302,-4.6302,-4.6303,-4.6303,-4.6304,-4.6304,-4.6304,-4.6306,-4.6307,-4.6304,-4.6306,-4.6306,-4.6303,-4.6302,-4.6299,-4.6305,-4.6305,-4.6291,-4.6302,-4.6302,-4.6307,-4.6302,-4.6291,-4.6303,-4.63,-4.63,-4.63,-4.63,-4.63,-4.63,-4.0845,-4.1352,-4.2105,-4.3066,-4.197,-4.1099,-4.2733,-4.1739,-4.1401,-4.4564,-4.521,-4.5238,-4.5307,-4.7892,-4.8922,-4.5489,-4.6948,-4.8646,-4.9005,-5.0222,-5.0576,-4.9195,0.0,-5.2661,-5.1651,0.0,0.0,0.0,0.0,-5.7857,-5.9415,-5.8209,-5.7856,-5.8665,-5.653,-5.5325,-5.5245,-5.634,-5.5669,-5.3289,-5.4153,-5.4013,-5.2999,-5.4143,-5.4962,0.0,0.0,-5.5453,-5.5662,-5.5263,-5.5274,-5.5504,-5.544,-5.5428,-5.5408,-5.544,-5.5495,-5.5508,-5.4982,-5.4913,-5.509,-5.5394,-5.4994,-5.4547,-5.5273,-5.4883,-5.4043,-5.3301,-5.3633,-5.4004,-5.3125,-5.2793,-5.2344,-5.0917,-4.9822,-4.8845,-4.7981,-4.7101,-4.6458,-4.6321,-4.6301,-4.6303,-4.6306,-4.6306,-4.6307,-4.6308,-4.6308,-4.6308,-4.6308,-4.6308,-4.6308,-4.6308,-4.6308,-4.6308,-4.6306,-4.6306,-4.6305,-4.63,-4.63,-4.6301,-4.6306,-4.6304,-4.6307,-4.6302,-4.6301,-4.6294,-4.63,-4.63,-4.63,-4.63,-4.63,-4.63,-4.0718,-4.1441,-4.2509,-4.4266,-4.3382,-4.2727,-4.5321,-4.3838,-4.2854,-4.624,-4.5143,-4.3987,-4.5426,-4.688,-4.7726,-4.7338,-4.9805,-5.1444,-5.048,-5.102,-5.1206,-5.0443,0.0,-5.227,-5.1508,0.0,0.0,0.0,0.0,0.0,-5.7913,0.0,-5.6997,-5.6786,-5.5393,-5.4621,-5.4555,-5.4813,-5.3896,-5.1816,-5.3603,-5.3768,-5.2558,-5.4337,-5.5338,-5.5645,0.0,-5.4857,-5.5626,-5.4625,-5.4722,-5.5492,-5.5434,-5.5396,-5.5403,-5.5396,-5.5195,-5.4886,-5.4781,-5.4535,-5.4288,-5.4513,-5.4338,-5.4066,-5.4488,-5.3982,-5.3201,-5.2812,-5.2988,-5.3105,-5.2226,-5.168,-5.1152,-5.0371,-4.9179,-4.8085,-4.7694,-4.6912,-4.6307,-4.6307,-4.6307,-4.6307,-4.6308,-4.6308,-4.6308,-4.6308,-4.6308,-4.6308,-4.6308,-4.6308,-4.6308,-4.6308,-4.6308,-4.6308,-4.6308,-4.6308,-4.6307,-4.6302,-4.6301,-4.6301,-4.6301,-4.6304,-4.6307,-4.6308,-4.6306,-4.63,-4.6294,-4.6305,-4.63,-4.63,-4.63,-4.63,-4.0626,-4.1454,-4.2621,-4.4793,-4.4279,-4.4109,-4.7521,-4.545,-4.3797,-4.7375,-4.522,-4.3462,-4.5982,-4.608,-4.6676,-4.9355,-5.1867,-5.3123,-5.2176,-5.2081,-5.2117,-5.2045,-5.2046,-5.2028,0.0,0.0,0.0,0.0,0.0,0.0,-5.6633,0.0,-5.578,-5.5034,-5.4429,-5.4078,-5.4013,-5.3541,-5.2714,-5.1616,-5.3568,-5.3895,-5.2846,-5.4818,-5.5703,-5.5626,-5.4337,-5.4511,-5.5607,-5.4235,-5.441,-5.5516,-5.5432,-5.5396,-5.5403,-5.5396,-5.503,-5.4534,-5.4385,-5.3977,-5.3547,-5.3602,-5.3528,-5.3422,-5.3637,-5.3094,-5.2392,-5.2399,-5.2245,-5.1933,-5.1289,-5.0664,-5.0098,-4.9687,-4.8574,-4.7539,-4.7344,-4.6777,-4.6308,-4.6308,-4.6308,-4.6308,-4.6308,-4.6308,-4.6308,-4.6308,-4.6308,-4.6308,-4.6308,-4.6308,-4.6308,-4.6308,-4.6308,-4.6308,-4.6308,-4.6308,-4.6308,-4.6305,-4.6304,-4.6301,-4.6297,-4.6304,-4.6305,-4.6303,-4.6308,-4.6305,-4.6301,-4.6293,-4.6305,-4.63,-4.63,-4.63,-4.0684,-4.1485,-4.236,-4.3412,-4.347,-4.4167,-4.7537,-4.498,-4.3058,-4.724,-4.6624,-4.6003,-4.8253,-4.8234,-4.8615,-5.0874,-5.1453,-5.2066,-5.3441,-5.3646,-5.3646,-5.3627,-5.3627,0.0,0.0,0.0,0.0,0.0,0.0,0.0,-5.6556,0.0,0.0,-5.353,-5.2788,-5.2351,-5.2282,-5.2961,-5.36,-5.4222,-5.4414,-5.4818,-5.5434,-5.5607,-5.5703,-5.5684,-5.5568,-5.5588,-5.5684,-5.5503,-5.55,-5.5573,-5.5456,-5.5396,-5.5403,-5.539,-5.5371,-5.5122,-5.3697,-5.3253,-5.3236,-5.2691,-5.2088,-5.1734,-5.2544,-5.2179,-5.1494,-5.1496,-5.0902,-5.0288,-5.0293,-5.0234,-4.9785,-4.8164,-4.7695,-4.7383,-4.6562,-4.6348,-4.6308,-4.6308,-4.6308,-4.6308,-4.6308,-4.6308,-4.6308,-4.6308,-4.6308,-4.6308,-4.6308,-4.6308,-4.6308,-4.6308,-4.6308,-4.6308,-4.6308,-4.6308,-4.6308,-4.6308,-4.6307,-4.6306,-4.6306,-4.6304,-4.6304,-4.6306,-4.6307,-4.6308,-4.6301,-4.6301,-4.6295,-4.63,-4.63,-4.63,-4.1334,-4.2306,-4.3383,-4.5379,-4.5004,-4.4918,-4.7724,-4.6209,-4.5208,-4.8687,-4.6846,-4.4897,-4.5919,-4.802,-4.9992,-5.121,-5.2234,-5.3107,-5.372,-5.3813,-5.3813,-5.3813,-5.3813,0.0,0.0,0.0,0.0,0.0,0.0,0.0,0.0,0.0,0.0,-5.2269,-5.1698,-5.1857,-5.2838,-5.2608,-5.2887,-5.3683,-5.3683,-5.3857,-5.4164,-5.4703,-5.4953,-5.4972,-5.5472,-5.5703,-5.5703,-5.5662,-5.5629,-5.5585,-5.5456,-5.5396,-5.5326,-5.4798,-5.4587,-5.437,-5.282,-5.2415,-5.245,-5.1806,-5.1487,-5.1408,-5.1773,-5.1664,-5.1394,-5.139,-5.0775,-5.0101,-5.0132,-4.9355,-4.8418,-4.7754,-4.7187,-4.6699,-4.6367,-4.6308,-4.6308,-4.6308,-4.6308,-4.6308,-4.6308,-4.6308,-4.6308,-4.6308,-4.6308,-4.6308,-4.6308,-4.6308,-4.6308,-4.6308,-4.6308,-4.6308,-4.6308,-4.6308,-4.6308,-4.6308,-4.6308,-4.6308,-4.6307,-4.6306,-4.6305,-4.6304,-4.6307,-4.6308,-4.6305,-4.63,-4.6291,-4.63,-4.63,-4.63,-4.1765,-4.2811,-4.3906,-4.595,-4.5187,-4.4702,-4.7738,-4.6793,-4.6097,-4.8987,-4.7982,-4.6459,-4.605,-4.8602,-5.092,-5.1341,-5.2327,-5.3218,-5.3738,-5.3813,-5.3813,-5.3813,0.0,0.0,0.0,0.0,0.0,0.0,0.0,0.0,0.0,0.0,0.0,0.0,-5.1296,-5.1837,-5.2934,-5.2347,-5.2309,-5.2849,-5.2549,-5.2683,-5.3222,-5.3818,-5.4087,-5.4126,-5.4664,-5.4914,-5.4914,-5.4914,-5.4863,-5.4798,-5.4695,-5.463,-5.4549,-5.3925,-5.3683,-5.3498,-5.2187,-5.1905,-5.1978,-5.1243,-5.1136,-5.1304,-5.1353,-5.1379,-5.1304,-5.1035,-5.0345,-4.9632,-4.9352,-4.843,-4.7539,-4.7246,-4.6738,-4.6308,-4.6308,-4.6308,-4.6308,-4.6308,-4.6308,-4.6308,-4.6308,-4.6308,-4.6308,-4.6308,-4.6308,-4.6308,-4.6308,-4.6308,-4.6308,-4.6308,-4.6308,-4.6308,-4.6308,-4.6308,-4.6308,-4.6308,-4.6308,-4.6308,-4.6308,-4.6308,-4.6307,-4.6304,-4.6307,-4.6308,-4.6306,-4.63,-4.6288,-4.6271,-4.6271,-4.6271,-4.1863,-4.2862,-4.3629,-4.4511,-4.3466,-4.3326,-4.7514,-4.6354,-4.5125,-4.7681,-5.0321,-5.1607,-4.9724,-5.0508,-5.1416,-5.1398,-5.1416,-5.1974,-5.359,-5.3813,-5.3813,-5.3813,0.0,0.0,0.0,0.0,0.0,0.0,0.0,0.0,0.0,0.0,0.0,0.0,-5.1627,-5.219,-5.2202,-5.2119,-5.2094,-5.2075,-5.1145,-5.1568,-5.3183,-5.3183,-5.3203,-5.3203,-5.3203,-5.3203,-5.3203,-5.3203,-5.3161,-5.3089,-5.3034,-5.2958,-5.2889,-5.281,-5.2785,-5.2671,-5.1868,-5.1806,-5.1942,-5.108,-5.1029,-5.13,-5.13,-5.13,-5.1106,-5.0248,-4.9416,-4.8583,-4.7727,-4.7549,-4.7378,-4.6504,-4.6308,-4.6308,-4.6308,-4.6308,-4.6308,-4.6308,-4.6308,-4.6308,-4.6308,-4.6308,-4.6308,-4.6308,-4.6308,-4.6308,-4.6308,-4.6308,-4.6308,-4.6308,-4.6308,-4.6308,-4.6308,-4.6308,-4.6308,-4.6308,-4.6308,-4.6308,-4.6308,-4.6308,-4.6308,-4.6307,-4.6307,-4.6308,-4.6301,-4.6301,-4.6269,-4.6206,-4.6206,-4.6206,-4.4351,-4.4647,-4.4676,-4.6152,-4.5692,-4.5048,-4.5744,-4.5702,-4.5945,-4.7422,-4.9061,-4.9638,-4.7708,-5.0503,-5.2717,-5.1584,-5.2345,-5.3255,-5.3738,-5.3813,-5.3813,0.0,0.0,0.0,0.0,0.0,0.0,0.0,0.0,0.0,0.0,0.0,0.0,0.0,-5.1343,-5.1565,-5.2121,-5.1469,-5.1133,-5.1105,-5.0837,-5.0962,-5.1452,-5.2029,-5.2288,-5.2308,-5.2933,-5.3203,-5.3203,-5.3203,-5.3161,-5.3108,-5.3067,-5.3,-5.2831,-5.2246,-5.2,-5.183,-5.099,-5.0912,-5.1138,-5.0875,-5.1029,-5.13,-5.13,-5.0872,-5.0326,-5.0073,-4.897,-4.7837,-4.7566,-4.7057,-4.6548,-4.6291,-4.6261,-4.6305,-4.6305,-4.6308,-4.6308,-4.6308,-4.6308,-4.6308,-4.6308,-4.6308,-4.6308,-4.6308,-4.6308,-4.6308,-4.6308,-4.6308,-4.6308,-4.6308,-4.6308,-4.6308,-4.6308,-4.6308,-4.6308,-4.6308,-4.6308,-4.6308,-4.6308,-4.6308,-4.6308,-4.6308,-4.6308,-4.6304,-4.6296,-4.6246,-4.621,-4.6206,-4.6206,-4.6206,-4.5606,-4.5919,-4.6144,-4.7858,-4.7154,-4.5997,-4.5852,-4.5928,-4.6512,-4.8325,-4.9429,-4.9772,-4.8824,-5.1206,-5.3107,-5.2457,-5.3181,-5.3813,-5.3813,-5.3813,-5.3683,0.0,0.0,0.0,0.0,0.0,0.0,0.0,0.0,0.0,0.0,0.0,0.0,0.0,-5.0904,-5.1052,-5.1608,-5.1034,-5.0729,-5.0729,-5.0702,-5.0712,-5.0731,-5.1202,-5.1414,-5.1452,-5.1972,-5.2202,-5.2202,-5.2202,-5.2182,-5.2151,-5.212,-5.2047,-5.1924,-5.1381,-5.1174,-5.1032,-5.0493,-5.0509,-5.0798,-5.0798,-5.1029,-5.13,-5.13,-5.0696,-4.9937,-4.9605,-4.8553,-4.7411,-4.706,-4.6599,-4.6201,-4.6197,-4.623,-4.6277,-4.6281,-4.6305,-4.6308,-4.6308,-4.6308,-4.6308,-4.6308,-4.6308,-4.6308,-4.6308,-4.6308,-4.6308,-4.6308,-4.6308,-4.6308,-4.6308,-4.6308,-4.6308,-4.6308,-4.6308,-4.6308,-4.6308,-4.6308,-4.6308,-4.6308,-4.6308,-4.6308,-4.6308,-4.6307,-4.6283,-4.6269,-4.622,-4.6201,-4.6209,-4.6209,-4.6209,-4.5984,-4.6758,-4.7668,-4.9188,-4.7808,-4.6382,-4.749,-4.6957,-4.7062,-4.9911,-5.0707,-5.1082,-5.1718,-5.2197,-5.2754,-5.3479,-5.359,-5.359,-5.359,-5.359,0.0,0.0,0.0,0.0,0.0,0.0,0.0,0.0,0.0,0.0,0.0,0.0,0.0,-5.0195,-5.0457,-5.07,-5.0898,-5.0844,-5.0801,0.0,-5.0721,-5.0693,-5.0693,-5.0693,-5.0712,-5.0712,-5.0712,-5.0712,-5.0712,-5.0712,-5.0712,-5.0683,-5.0633,-5.0603,-5.0582,-5.0457,-5.0401,-5.039,-5.0314,-5.0509,-5.0798,-5.0798,-5.1029,-5.13,-5.1203,-5.0579,-4.9722,-4.8904,-4.8047,-4.7189,-4.6414,-4.6199,-4.6193,-4.6208,-4.6199,-4.6223,-4.6277,-4.63,-4.6284,-4.6308,-4.6308,-4.6308,-4.6308,-4.6308,-4.6308,-4.6308,-4.6308,-4.6308,-4.6308,-4.6308,-4.6308,-4.6308,-4.6308,-4.6308,-4.6308,-4.6308,-4.6308,-4.6308,-4.6308,-4.6308,-4.6308,-4.6308,-4.6308,-4.6308,-4.6308,-4.6266,-4.6202,-4.62,-4.6197,-4.6199,-4.6199,-4.6199,-4.6788,-4.7286,-4.745,-4.7758,-4.6955,-4.6844,-4.9737,-4.9174,-4.8514,-5.0229,-4.9978,-4.9823,-5.0978,-5.1534,-5.1873,-5.2041,-5.1972,-5.1918,-5.1918,-5.1918,0.0,0.0,0.0,0.0,0.0,0.0,0.0,0.0,0.0,0.0,0.0,0.0,0.0,-5.0195,-5.0457,-5.07,-5.0898,-5.0888,-5.0891,0.0,-5.0748,-5.0702,-5.0702,-5.0702,-5.0712,-5.0712,-5.0712,-5.0712,-5.0712,-5.0712,-5.0712,-5.0712,-5.0673,-5.0613,-5.0521,-5.0489,-5.0404,-5.0314,-5.0302,-5.0509,-5.0798,-5.0798,-5.1029,-5.1164,-5.0482,-4.9703,-4.8884,-4.8027,-4.715,-4.6433,-4.6258,-4.6199,-4.6203,-4.6196,-4.6201,-4.6197,-4.6223,-4.6218,-4.6233,-4.6284,-4.6305,-4.6306,-4.6308,-4.6308,-4.6308,-4.6308,-4.6308,-4.6308,-4.6308,-4.6308,-4.6308,-4.6308,-4.6308,-4.6308,-4.6308,-4.6308,-4.6308,-4.6308,-4.6308,-4.6308,-4.6308,-4.6308,-4.6308,-4.6308,-4.6307,-4.6279,-4.6202,-4.6206,-4.6198,-4.6199,-4.6199,-4.6199,-4.6658,-4.7469,-4.8148,-4.8467,-4.8545,-4.8907,-5.0276,-5.0204,-5.0039,-5.0736,-5.0291,-5.0063,-5.1058,-5.1287,-5.1383,-5.1566,-5.1539,-5.1469,-5.1416,-5.1398,0.0,0.0,0.0,0.0,0.0,0.0,0.0,0.0,0.0,0.0,0.0,-4.9461,-4.9641,-4.9891,-5.0087,-5.0333,-5.0661,-5.07,-5.0775,-5.0899,-5.0766,-5.0711,-5.0702,-5.0702,-5.0712,-5.0712,-5.0712,-5.0712,-5.0712,-5.0712,-5.0712,-5.0712,-5.0712,-5.0633,-5.0532,-5.0511,-5.0446,-5.0337,-5.0314,-5.0486,-5.0703,-5.0786,-5.0694,-5.05,-5.012,-4.9157,-4.8086,-4.7637,-4.6878,-4.6199,-4.6199,-4.6199,-4.6199,-4.6199,-4.6193,-4.6209,-4.6203,-4.6199,-4.6214,-4.6251,-4.6255,-4.6256,-4.6243,-4.6286,-4.6287,-4.6264,-4.6288,-4.6289,-4.6264,-4.6288,-4.6308,-4.6308,-4.6267,-4.6266,-4.6308,-4.624,-4.6212,-4.6243,-4.6213,-4.6206,-4.6206,-4.6206,-4.6238,-4.6308,-4.6269,-4.623,-4.6203,-4.6168,-4.6163,-4.62,-4.6197,-4.6206,-4.5976,-4.7361,-4.8975,-4.9715,-5.0344,-5.0667,-5.0217,-5.0561,-5.1027,-5.1163,-5.0908,-5.0804,-5.1305,-5.1077,-5.0922,-5.1228,-5.1209,-5.1127,-5.0989,0.0,0.0,0.0,0.0,0.0,0.0,0.0,0.0,0.0,0.0,0.0,-4.9214,-4.9214,-4.9321,-4.9583,-4.9655,-4.9911,-5.0401,-5.0448,-5.0616,-5.0891,-5.0766,-5.0692,-5.0712,-5.0712,-5.0712,-5.0712,-5.0712,-5.0712,-5.0712,-5.0712,-5.0712,-5.0712,-5.0712,-5.0653,-5.0593,-5.0521,-5.0457,-5.039,-5.0314,-5.0421,-5.0596,-5.0546,-5.0199,-4.9734,-4.9575,-4.8553,-4.7428,-4.7303,-4.6764,-4.6199,-4.6199,-4.6199,-4.6199,-4.6199,-4.6199,-4.6206,-4.6195,-4.6201,-4.6209,-4.6193,-4.6175,-4.6173,-4.6173,-4.6204,-4.6206,-4.6145,-4.6213,-4.6241,-4.6154,-4.6216,-4.6266,-4.6266,-4.621,-4.6206,-4.6265,-4.616,-4.6125,-4.6171,-4.6131,-4.6098,-4.6098,-4.6098,-4.615,-4.6265,-4.6209,-4.617,-4.617,-4.6114,-4.6116,-4.6171,-4.6186,-4.6175,-4.496,-4.6933,-4.8977,-4.9715,-4.9461,-4.9378,-5.072,-5.0522,-5.0289,-5.1047,-5.1029,-5.089,-5.0974,-5.0519,-5.0088,-4.9962,-4.9709,-4.9465,-4.926,0.0,0.0,0.0,0.0,0.0,0.0,0.0,0.0,0.0,0.0,0.0,-4.9214,-4.9214,-4.9321,-4.9583,-4.9598,-4.987,-5.0396,-5.0415,-5.0547,-5.081,-5.0748,-5.0692,-5.0712,-5.0712,-5.0712,-5.0712,-5.0712,-5.0712,-5.0712,-5.0712,-5.0712,-5.0712,-5.0712,-5.0653,-5.0593,-5.0521,-5.0457,-5.039,-5.0314,-5.0421,-5.0481,-4.973,-4.9564,-4.9366,-4.7992,-4.7422,-4.7111,-4.6547,-4.6297,-4.6199,-4.6199,-4.6199,-4.6199,-4.6199,-4.6199,-4.6199,-4.6203,-4.6206,-4.6196,-4.6206,-4.6114,-4.6037,-4.6037,-4.5994,-4.592,-4.5852,-4.6002,-4.6076,-4.5952,-4.6043,-4.6128,-4.6128,-4.6118,-4.6118,-4.6128,-4.6112,-4.6105,-4.6115,-4.6105,-4.6098,-4.6098,-4.6098,-4.6109,-4.6128,-4.6118,-4.6075,-4.6028,-4.6021,-4.6013,-4.6035,-4.6087,-4.611,-4.5819,-4.6894,-4.7886,-5.0172,-4.9717,-4.9146,-5.0821,-5.0533,-5.0159,-5.1027,-5.1134,-5.1035,-5.091,-5.0678,-5.0349,-4.9943,-4.9636,-4.9386,-4.9094,0.0,0.0,0.0,0.0,0.0,0.0,0.0,0.0,0.0,0.0,-4.9029,-4.9029,-4.9029,-4.9094,-4.9204,-4.9289,-4.948,-4.984,-5.0061,-5.0363,-5.0738,-5.071,-5.0692,-5.0712,-5.0712,-5.0712,-5.0712,-5.0712,-5.0712,-5.0712,-5.0712,-5.0712,-5.0712,-5.0712,-5.0653,-5.0593,-5.0521,-5.0161,-4.9674,-4.9637,-4.9376,-4.8985,-4.8731,-4.8361,-4.7904,-4.7275,-4.6752,-4.6311,-4.6139,-4.6089,-4.6122,-4.6185,-4.6199,-4.6199,-4.6199,-4.6142,-4.6089,-4.6089,-4.6089,-4.606,-4.5944,-4.588,-4.5831,-4.5881,-4.5871,-4.5814,-4.575,-4.5846,-4.5915,-4.5841,-4.5924,-4.6018,-4.6098,-4.608,-4.6067,-4.6095,-4.5993,-4.5968,-4.6046,-4.5973,-4.5922,-4.5922,-4.5922,-4.5922,-4.5922,-4.6003,-4.6033,-4.5994,-4.5966,-4.5966,-4.601,-4.6025,-4.6043,-4.6112,-4.6582,-4.6952,-4.9978,-4.9563,-4.8782,-5.0229,-5.0057,-4.9842,-5.0684,-5.1047,-5.1153,-5.0995,-5.0917,-5.0741,-5.024,-4.9979,-4.9728,-4.9331,0.0,0.0,0.0,0.0,0.0,0.0,0.0,0.0,0.0,0.0,-4.8909,-4.8909,-4.8909,-4.8909,-4.8909,-4.9015,-4.916,-4.9412,-4.9832,-5.0264,-5.0702,-5.0702,-5.0702,-5.0712,-5.0712,-5.0712,-5.0712,-5.0712,-5.0712,-5.0712,-5.0712,-5.0577,-5.0366,-5.0366,-5.0192,-4.9959,-4.9888,-4.9414,-4.8794,-4.8777,-4.8334,-4.7783,-4.7712,-4.7242,-4.6713,-4.665,-4.6155,-4.5682,-4.5859,-4.5956,-4.6012,-4.6065,-4.6111,-4.6142,-4.6083,-4.5998,-4.5914,-4.5914,-4.5914,-4.5891,-4.5731,-4.5675,-4.5667,-4.5724,-4.5717,-4.5682,-4.5619,-4.5678,-4.5744,-4.5698,-4.5788,-4.5896,-4.5993,-4.5977,-4.5972,-4.6011,-4.5885,-4.5835,-4.5933,-4.5867,-4.5807,-4.5807,-4.5807,-4.5807,-4.5807,-4.5905,-4.5956,-4.5939,-4.5891,-4.5892,-4.5958,-4.5978,-4.5974,-4.4647,-4.5701,-4.6718,-4.8491,-4.8236,-4.7799,-4.8631,-4.8783,-4.8985,-4.9812,-5.0619,-5.1196,-5.119,-5.1029,-5.0824,-5.0591,-5.0403,-5.0087,0.0,0.0,0.0,0.0,0.0,0.0,0.0,0.0,0.0,0.0,0.0,-4.8909,-4.8909,-4.8909,-4.8909,-4.8909,-4.8909,-4.9061,-4.9415,-4.9936,-5.0358,-5.0693,-5.0693,-5.0693,-5.0712,-5.0712,-5.0712,-5.0712,-5.0712,-5.0712,-5.0712,-5.0712,-5.0212,-4.9471,-4.9471,-4.8962,-4.8222,-4.8143,-4.8053,-4.7943,-4.7887,-4.7845,-4.7674,-4.6855,-4.6549,-4.64,-4.5772,-4.5545,-4.5549,-4.5675,-4.5853,-4.5956,-4.5764,-4.5865,-4.5961,-4.5764,-4.5724,-4.5717,-4.5717,-4.5717,-4.5717,-4.571,-4.5603,-4.5507,-4.5516,-4.5464,-4.54,-4.5329,-4.5495,-4.5566,-4.5428,-4.5588,-4.5712,-4.5719,-4.5778,-4.5821,-4.5827,-4.5814,-4.5807,-4.5814,-4.5807,-4.5807,-4.5807,-4.5807,-4.5807,-4.5807,-4.5814,-4.5821,-4.5801,-4.5814,-4.5814,-4.5821,-4.5873,-4.5904,-4.3641,-4.3959,-4.4471,-4.7324,-4.6913,-4.6344,-4.8316,-4.8728,-4.8775,-4.9067,-5.0237,-5.1035,-5.0462,-5.0758,-5.1035,-5.0832,-5.0621,-5.0374,0.0,0.0,0.0,0.0,0.0,0.0,0.0,0.0,0.0,0.0,0.0,0.0,-4.8834,-4.7924,-4.7831,-4.8872,-4.8909,-4.9139,-4.9655,-4.9857,-5.019,-5.0712,-5.0712,-5.0712,-5.0712,-5.0712,-5.0385,-4.9875,-4.9875,-4.9875,-4.9875,-4.9875,-4.9356,-4.8567,-4.8567,-4.8366,-4.8087,-4.8009,-4.7594,-4.7053,-4.6999,-4.6634,-4.6137,-4.5831,-4.5736,-4.57,-4.5437,-4.5361,-4.54,-4.5522,-4.5611,-4.5672,-4.5696,-4.5744,-4.577,-4.5611,-4.5571,-4.5558,-4.5455,-4.5428,-4.5428,-4.5428,-4.5391,-4.5361,-4.5361,-4.5351,-4.5329,-4.5307,-4.535,-4.5409,-4.54,-4.5466,-4.5556,-4.5692,-4.5712,-4.5749,-4.58,-4.5807,-4.5807,-4.5807,-4.5807,-4.5807,-4.5807,-4.5807,-4.5807,-4.5807,-4.5807,-4.5807,-4.5807,-4.5807,-4.5807,-4.5807,-4.5815,-4.5841,-4.2786,-4.2779,-4.3003,-4.5624,-4.5605,-4.5371,-4.7106,-4.8135,-4.8724,-4.8697,-5.0029,-5.1031,-5.0442,-5.0803,-5.1153,-5.1022,-5.0886,-5.0698,0.0,0.0,0.0,0.0,0.0,0.0,0.0,0.0,0.0,0.0,0.0,0.0,-4.8834,-4.7887,-4.7794,-4.8872,-4.8909,-4.9204,-4.9784,-4.9803,-5.0106,-5.0712,-5.0712,-5.0558,-5.0269,-5.0269,-4.9779,-4.8952,-4.8952,-4.8952,-4.8952,-4.8952,-4.8471,-4.7702,-4.7702,-4.7501,-4.7223,-4.7146,-4.6731,-4.6192,-4.612,-4.5755,-4.5307,-4.5307,-4.5307,-4.5307,-4.5307,-4.5307,-4.5319,-4.5419,-4.5464,-4.5507,-4.5547,-4.5563,-4.553,-4.5446,-4.5438,-4.5419,-4.5319,-4.5307,-4.5307,-4.5307,-4.5307,-4.5307,-4.5307,-4.5307,-4.5307,-4.5307,-4.5307,-4.5328,-4.5361,-4.5381,-4.5457,-4.5582,-4.5648,-4.5731,-4.5764,-4.5793,-4.5923,-4.6213,-4.5962,-4.5923,-4.6232,-4.5962,-4.5807,-4.5807,-4.5807,-4.5807,-4.5807,-4.5807,-4.5807,-4.5807,-4.5807,-4.5807,0.0,0.0,0.0,-4.3437,-4.4296,-4.4921,-4.4918,-4.689,-4.8706,-4.8669,-5.0009,-5.1168,-5.1168,-5.1186,-5.1208,-5.1208,-5.1202,-5.1056,0.0,0.0,0.0,0.0,0.0,0.0,0.0,0.0,0.0,0.0,0.0,-4.8853,-4.8909,-4.8909,-4.8909,-4.8909,-4.8909,-4.9204,-4.9784,-4.9803,-5.0087,-5.0654,-5.0654,-5.0212,-4.9356,-4.9356,-4.8894,-4.8067,-4.8067,-4.8048,-4.8029,-4.8048,-4.7586,-4.6846,-4.6846,-4.6309,-4.5495,-4.5419,-4.539,-4.5398,-4.5317,-4.5307,-4.5307,-4.5307,-4.5307,-4.5307,-4.5307,-4.5307,-4.5307,-4.5307,-4.539,-4.5464,-4.5339,-4.5307,-4.5307,-4.5307,-4.5307,-4.5307,-4.5307,-4.5307,-4.5307,-4.5307,-4.5307,-4.5307,-4.5307,-4.5307,-4.5307,-4.5307,-4.5307,-4.5307,-4.5307,-4.5361,-4.54,-4.54,-4.5582,-4.57,-4.5708,-4.5764,-4.6174,-4.7038,-4.631,-4.6232,-4.7096,-4.631,-4.5845,-4.5845,-4.5807,-4.5807,-4.5807,-4.5807,-4.5807,-4.5807,-4.5807,-4.5807,-4.1287,0.0,0.0,0.0,0.0,0.0,-4.4687,-4.6015,-4.7148,-4.7711,-4.9208,-5.0388,-5.0347,-5.0812,-5.1204,-5.1204,-5.12,-5.1165,0.0,0.0,0.0,0.0,0.0,0.0,0.0,0.0,0.0,0.0,-4.7813,-4.7664,-4.8834,-4.8909,-4.8909,-4.8909,-4.8909,-4.9204,-4.9784,-4.9803,-4.9801,-4.976,-4.976,-4.9298,-4.8471,-4.8471,-4.8009,-4.7231,-4.7231,-4.6874,-4.6336,-4.6971,-4.674,-4.5951,-4.5951,-4.5733,-4.5429,-4.541,-4.537,-4.5328,-4.5307,-4.5307,-4.5307,-4.5307,-4.5307,-4.5307,-4.5307,-4.5307,-4.5307,-4.5307,-4.5329,-4.5341,-4.5317,-4.5307,-4.5307,-4.5307,-4.5307,-4.5307,-4.5307,-4.5307,-4.5307,-4.5307,-4.5307,-4.5307,-4.5307,-4.5307,-4.5307,-4.5307,-4.5307,-4.5307,-4.5307,-4.5328,-4.536,-4.54,-4.554,-4.5654,-4.57,-4.5764,-4.6174,-4.7038,-4.6864,-4.7134,-4.8005,-4.7192,-4.6728,-4.6728,-4.6116,-4.5807,-4.5807,-4.5807,-4.5807,-4.5807,-4.5854,-4.5867,-4.0964,-4.1,-4.1191,-4.1711,0.0,0.0,-4.4236,-4.5973,-4.7516,0.0,-4.9452,-5.0521,-5.0121,-5.0394,-5.0699,-5.0699,-5.0674,-5.0775,0.0,0.0,0.0,0.0,0.0,0.0,0.0,0.0,0.0,-4.8926,-4.8036,-4.7906,-4.8853,-4.8909,-4.8909,-4.8909,-4.8909,-4.9141,-4.9627,-4.9375,-4.9251,-4.9236,-4.8991,-4.8413,-4.7605,-4.7605,-4.7144,-4.6355,-4.6355,-4.6067,-4.5633,-4.6144,-4.6067,-4.5594,-4.5594,-4.555,-4.5438,-4.541,-4.537,-4.5338,-4.5307,-4.5307,-4.5307,-4.5307,-4.5307,-4.5307,-4.5307,-4.5307,-4.5307,-4.5307,-4.5307,-4.5307,-4.5307,-4.5307,-4.5307,-4.5307,-4.5307,-4.5307,-4.5307,-4.5307,-4.5307,-4.5307,-4.5307,-4.5307,-4.5307,-4.5307,-4.5307,-4.5307,-4.5307,-4.5307,-4.5307,-4.5307,-4.5309,-4.5351,-4.5457,-4.5549,-4.5643,-4.6059,-4.668,-4.7599,-4.7637,-4.8024,-4.8914,-4.8101,-4.7463,-4.7115,-4.66,-4.6181,-4.5847,-4.5814,-4.5807,-4.5807,-4.5847,-4.5854,-4.0902,-4.0953,-4.1019,-4.108,-4.218,0.0,-4.3514,-4.5877,-4.8123,0.0,-4.9648,-5.0482,-4.98,-4.962,-4.9586,-4.9586,-4.9523,-4.9863,0.0,0.0,0.0,0.0,0.0,0.0,0.0,-4.9427,-4.9289,-4.8995,-4.8926,-4.8909,-4.8909,-4.8909,-4.8909,-4.8909,-4.8909,-4.9023,-4.9283,-4.8768,-4.8574,-4.8735,-4.8211,-4.7548,-4.6759,-4.6759,-4.6336,-4.5594,-4.5594,-4.5594,-4.5594,-4.5594,-4.5594,-4.5594,-4.5586,-4.5559,-4.5485,-4.5419,-4.54,-4.5388,-4.5317,-4.5307,-4.5307,-4.5307,-4.5307,-4.5307,-4.5307,-4.5307,-4.5307,-4.5307,-4.5307,-4.5307,-4.5307,-4.5307,-4.5307,-4.5307,-4.5307,-4.5307,-4.5307,-4.5307,-4.5307,-4.5307,-4.5307,-4.5307,-4.5307,-4.5307,-4.5307,-4.5307,-4.5307,-4.5307,-4.5307,-4.5307,-4.5307,-4.5307,-4.537,-4.5448,-4.5577,-4.645,-4.7407,-4.8345,-4.8496,-4.8909,-4.9676,-4.8863,-4.7993,-4.7115,-4.6999,-4.6595,-4.5893,-4.5847,-4.5814,-4.5814,-4.5814,-4.5814,-4.097,-4.0957,-4.0957,-4.1072,-4.0821,0.0,-4.2323,-4.2676,-4.3281,0.0,-4.6015,-4.6405,-4.6931,-4.699,-4.6937,-4.6937,-4.6921,-4.7703,0.0,0.0,0.0,0.0,0.0,0.0,0.0,-4.9655,-4.9384,-4.9321,-4.9044,-4.8909,-4.8909,-4.8909,-4.8909,-4.8909,-4.8909,-4.8777,-4.8528,-4.8493,-4.8022,-4.7072,-4.7108,-4.6682,-4.5855,-4.5855,-4.5768,-4.5594,-4.5594,-4.5594,-4.5594,-4.5594,-4.5594,-4.5586,-4.5531,-4.5485,-4.541,-4.54,-4.5369,-4.5317,-4.5307,-4.5307,-4.5307,-4.5307,-4.5307,-4.5307,-4.5307,-4.5307,-4.5307,-4.5307,-4.5307,-4.5307,-4.5307,-4.5307,-4.5307,-4.5307,-4.5307,-4.5307,-4.5307,-4.5307,-4.5307,-4.5307,-4.5307,-4.5307,-4.5307,-4.5307,-4.5307,-4.5307,-4.5307,-4.5307,-4.5307,-4.5307,-4.5307,-4.5307,-4.54,-4.5495,-4.5513,-4.6471,-4.7468,-4.8333,-4.9107,-4.9574,-4.9701,-4.89,-4.8053,-4.7115,-4.6406,-4.5981,-4.5814,-4.586,-4.5886,-4.5886,-4.588,-4.5873,-4.0964,-4.0924,-4.0814,-4.0435,-4.0688,0.0,0.0,-4.239,-4.3411,-4.4698,-4.5329,-4.5644,-4.5643,-4.5625,-4.5603,-4.5603,-4.5566,-4.6006,-4.7318,0.0,0.0,0.0,0.0,0.0,0.0,-4.9987,-4.9684,-4.9411,-4.9094,-4.8909,-4.8909,-4.8909,-4.8909,-4.8909,-4.8909,-4.8619,-4.8072,-4.7952,-4.7397,-4.6393,-4.6292,-4.6009,-4.5594,-4.5594,-4.5594,-4.5594,-4.5594,-4.5594,-4.5594,-4.5594,-4.5594,-4.5586,-4.5541,-4.5457,-4.54,-4.5399,-4.5348,-4.5307,-4.5307,-4.5307,-4.5307,-4.5307,-4.5307,-4.5307,-4.5307,-4.5307,-4.5307,-4.5307,-4.5307,-4.5307,-4.5307,-4.5307,-4.5307,-4.5307,-4.5307,-4.5307,-4.5307,-4.5307,-4.5307,-4.5307,-4.5307,-4.5307,-4.5307,-4.5307,-4.5307,-4.5307,-4.5307,-4.5307,-4.5307,-4.5328,-4.5348,-4.5348,-4.54,-4.5485,-4.5531,-4.6433,-4.7399,-4.8345,-4.8834,-4.9296,-4.9736,-4.8941,-4.8069,-4.7163,-4.6259,-4.5821,-4.5861,-4.5874,-4.5893,-4.59,-4.5893,-4.5911,-4.0954,-4.0893,-4.067,-3.98,-4.0525,-4.1331,0.0,0.0,0.0,-4.4097,-4.4778,-4.5097,-4.4394,0.0,0.0,0.0,0.0,0.0,0.0,-4.5445,0.0,0.0,0.0,0.0,0.0,-4.9633,-4.9562,-4.9408,-4.9094,-4.8909,-4.8909,-4.8909,-4.8909,-4.8909,-4.876,-4.8311,-4.7593,-4.717,-4.6625,-4.5947,-4.5667,-4.5559,-4.5594,-4.5594,-4.5594,-4.5594,-4.5594,-4.5594,-4.5594,-4.5594,-4.5586,-4.5559,-4.5504,-4.5458,-4.5399,-4.5398,-4.5338,-4.5307,-4.5307,-4.5307,-4.5307,-4.5307,-4.5307,-4.5307,-4.5307,-4.5307,-4.5307,-4.5307,-4.5307,-4.5307,-4.5307,-4.5307,-4.5307,-4.5307,-4.5307,-4.5307,-4.5307,-4.5307,-4.5307,-4.5307,-4.5307,-4.5307,-4.5307,-4.5307,-4.5307,-4.5307,-4.5307,-4.5317,-4.5317,-4.5369,-4.5399,-4.5399,-4.541,-4.5457,-4.5568,-4.6392,-4.7268,-4.8071,-4.8307,-4.868,-4.9265,-4.8458,-4.7676,-4.6952,-4.6209,-4.5854,-4.5911,-4.5917,-4.5905,-4.5906,-4.5905,-4.5917,-4.111,-4.0856,-4.0612,-3.9801,-3.9168,-3.8941,-3.9679,0.0,-3.9599,-4.12,0.0,-4.1687,-4.164,0.0,0.0,0.0,0.0,0.0,-4.148,-4.2268,-4.3712,0.0,0.0,0.0,0.0,0.0,-4.8129,-4.9317,-4.9094,-4.8909,-4.8909,-4.8909,-4.8909,-4.8909,-4.8203,-4.7475,-4.6736,-4.6117,-4.5547,-4.5048,-4.5186,-4.5362,-4.5594,-4.5594,-4.5594,-4.5594,-4.5594,-4.5594,-4.5594,-4.5594,-4.5522,-4.5419,-4.5419,-4.541,-4.5381,-4.5329,-4.5307,-4.5307,-4.5307,-4.5307,-4.5307,-4.5307,-4.5307,-4.5307,-4.5307,-4.5307,-4.5307,-4.5307,-4.5307,-4.5307,-4.5307,-4.5307,-4.5307,-4.5307,-4.5307,-4.5307,-4.5307,-4.5307,-4.5307,-4.5307,-4.5307,-4.5307,-4.5307,-4.5307,-4.5307,-4.5307,-4.5348,-4.5398,-4.5398,-4.54,-4.54,-4.54,-4.5438,-4.5495,-4.5504,-4.6416,-4.7031,-4.7143,-4.7936,-4.813,-4.7526,-4.6668,-4.6157,-4.606,-4.5938,-4.588,-4.5892,-4.596,-4.5955,-4.5905,-4.5955,-4.5955,-4.2932,-4.2344,-4.147,-4.1098,-4.0393,0.0,-4.0252,0.0,-3.9459,0.0,0.0,0.0,0.0,0.0,0.0,0.0,-4.0957,0.0,0.0,0.0,-4.249,0.0,0.0,0.0,0.0,0.0,0.0,0.0,0.0,-4.714,-4.6993,-4.7457,-4.769,-4.758,-4.7215,-4.6733,-4.6213,-4.5951,-4.5603,-4.5129,-4.5332,-4.5495,-4.5594,-4.5594,-4.5594,-4.5594,-4.5594,-4.5594,-4.5594,-4.5559,-4.5504,-4.5448,-4.5419,-4.538,-4.535,-4.5298,-4.5307,-4.5307,-4.5307,-4.5307,-4.5307,-4.5307,-4.5307,-4.5307,-4.5307,-4.5307,-4.5307,-4.5307,-4.5307,-4.5307,-4.5307,-4.5307,-4.5307,-4.5307,-4.5307,-4.5307,-4.5307,-4.5307,-4.5307,-4.5307,-4.5307,-4.5307,-4.5307,-4.5307,-4.5317,-4.5348,-4.5369,-4.5399,-4.5409,-4.5438,-4.5467,-4.5467,-4.5513,-4.5559,-4.5559,-4.5948,-4.6422,-4.6973,-4.7451,-4.7327,-4.6487,-4.6131,-4.5955,-4.5955,-4.5917,-4.5917,-4.5955,-4.5991,-4.5991,-4.596,-4.5989,-4.5975,-4.4438,0.0,0.0,0.0,0.0,0.0,0.0,0.0,0.0,0.0,0.0,0.0,0.0,0.0,-4.1092,-4.0879,0.0,-4.1113,0.0,-4.1011,0.0,0.0,0.0,0.0,0.0,0.0,0.0,0.0,0.0,0.0,-4.5712,-4.6535,-4.6903,-4.6698,-4.6411,-4.6105,-4.5819,-4.5644,-4.5461,-4.5263,-4.5419,-4.5522,-4.5594,-4.5594,-4.5594,-4.5594,-4.5594,-4.5594,-4.5605,-4.5559,-4.5504,-4.5476,-4.5419,-4.5369,-4.5307,-4.5307,-4.5307,-4.5307,-4.5307,-4.5307,-4.5307,-4.5307,-4.5307,-4.5307,-4.5307,-4.5307,-4.5307,-4.5307,-4.5307,-4.5307,-4.5307,-4.5307,-4.5307,-4.5307,-4.5307,-4.5307,-4.5307,-4.5307,-4.5307,-4.5307,-4.5317,-4.5328,-4.5328,-4.5328,-4.5338,-4.5398,-4.5409,-4.5419,-4.5419,-4.5495,-4.5522,-4.5522,-4.5568,-4.5594,-4.5594,-4.5594,-4.589,-4.6574,-4.6733,-4.6513,-4.5874,-4.5931,-4.5966,-4.5966,-4.5941,-4.5947,-4.6008,-4.6008,-4.6008,-4.6008,-4.5991,-4.5997,0.0,0.0,0.0,-4.0213,0.0,0.0,0.0,0.0,-3.9774,0.0,0.0,0.0,-4.1076,-4.109,-4.0845,-4.0078,-4.0644,0.0,0.0,0.0,0.0,0.0,0.0,0.0,0.0,0.0,0.0,0.0,0.0,0.0,-4.5988,-4.6802,-4.7173,-4.6903,-4.6063,-4.5627,-4.5604,-4.4848,-4.4707,-4.5201,-4.5211,-4.5342,-4.5594,-4.5594,-4.5594,-4.5594,-4.5594,-4.5594,-4.5594,-4.5594,-4.5513,-4.541,-4.54,-4.5361,-4.5307,-4.5307,-4.5307,-4.5307,-4.5307,-4.5307,-4.5307,-4.5307,-4.5307,-4.5307,-4.5307,-4.5307,-4.5307,-4.5307,-4.5307,-4.5307,-4.5307,-4.5307,-4.5307,-4.5307,-4.5307,-4.5307,-4.5307,-4.5307,-4.5307,-4.5307,-4.5348,-4.5398,-4.5398,-4.5398,-4.5408,-4.5408,-4.5458,-4.5495,-4.5495,-4.5559,-4.5594,-4.5594,-4.5594,-4.5594,-4.5594,-4.5594,-4.5614,-4.5633,-4.5706,-4.5735,-4.5715,-4.5822,-4.5892,-4.5892,-4.5969,-4.5997,-4.5997,-4.5997,-4.5997,-4.5997,-4.6002,-4.6005,0.0,0.0,-4.4295,-4.3904,0.0,0.0,0.0,0.0,0.0,0.0,0.0,0.0,0.0,-4.103,-4.1015,-4.073,-4.0974,-4.1094,0.0,0.0,0.0,0.0,0.0,0.0,0.0,0.0,0.0,0.0,0.0,0.0,0.0,-4.4287,-4.4887,-4.4527,-4.4887,-4.5092,-4.5142,-4.4993,-4.5107,-4.5457,-4.5457,-4.5513,-4.5594,-4.5594,-4.5594,-4.5594,-4.5594,-4.5594,-4.5586,-4.5504,-4.5438,-4.54,-4.5351,-4.5319,-4.5307,-4.5307,-4.5307,-4.5307,-4.5307,-4.5307,-4.5307,-4.5307,-4.5307,-4.5307,-4.5307,-4.5307,-4.5307,-4.5307,-4.5307,-4.5307,-4.5307,-4.5307,-4.5307,-4.5307,-4.5307,-4.5307,-4.5307,-4.5307,-4.5307,-4.5307,-4.5348,-4.5408,-4.5408,-4.5448,-4.5467,-4.5467,-4.5495,-4.5513,-4.5568,-4.5586,-4.5594,-4.5594,-4.5594,-4.5594,-4.5594,-4.5594,-4.5594,-4.5594,-4.566,-4.5708,-4.5708,-4.5793,-4.5822,-4.5822,-4.5911,-4.5922,-4.5922,-4.598,-4.6002,-4.6002,-4.6002,-4.5997,-4.7106,-4.6381,0.0,-4.5145,-4.4113,0.0,-4.2909,0.0,0.0,0.0,0.0,0.0,0.0,-4.1425,-4.1388,-4.1177,-4.1147,-4.117,0.0,-4.1191,0.0,0.0,0.0,-4.1435,0.0,0.0,0.0,0.0,0.0,0.0,0.0,0.0,-4.388,-4.3509,-4.4443,-4.4954,-4.5007,-4.5148,-4.5332,-4.5594,-4.5594,-4.5594,-4.5594,-4.5594,-4.5594,-4.5594,-4.5594,-4.5586,-4.5559,-4.5476,-4.541,-4.539,-4.5339,-4.5317,-4.5307,-4.5307,-4.5307,-4.5307,-4.5307,-4.5307,-4.5307,-4.5307,-4.5307,-4.5307,-4.5307,-4.5307,-4.5307,-4.5307,-4.5317,-4.5328,-4.5328,-4.5348,-4.5339,-4.5339,-4.5339,-4.5339,-4.5339,-4.5339,-4.5339,-4.5339,-4.539,-4.5438,-4.5438,-4.5495,-4.5522,-4.5504,-4.5513,-4.5559,-4.5586,-4.5594,-4.5594,-4.5594,-4.5594,-4.5594,-4.5594,-4.5594,-4.5594,-4.5594,-4.5646,-4.566,-4.566,-4.5719,-4.5764,-4.5764,-4.5841,-4.5886,-4.5892,-4.5933,-4.598,-4.6002,-4.6002,-4.6002]},{"header":{"parameterUnit":"m.s-1","parameterCategory":1,"la1":30.6,"la2":29.2853,"lo1":-89.7004,"lo2":-87.6739,"dy":0.0162,"dx":0.0183,"nx":112,"ny":82,"refTime":"2023-06-28T12:00:00:Z","depth":0,"parameterNumber":3,"parameterNumberName":"V-component_of_WINDS"},"data":[0.0,0.0,0.0,0.0,0.0,0.0,0.0,0.0,0.0,0.0,0.0,0.0,0.0,0.0,0.0,0.0,0.0,0.0,0.0,0.0,0.0,0.0,0.0,0.0,0.0,0.0,0.0,0.0,0.0,0.0,0.0,0.0,0.0,0.0,0.0,0.0,0.0,0.0,0.0,0.0,0.0,0.0,0.0,0.0,0.0,0.0,0.0,0.0,0.0,0.0,0.0,0.0,0.0,0.0,0.0,0.0,0.0,0.0,0.0,0.0,0.0,0.0,0.0,0.0,0.0,0.0,0.0,0.0,0.0,0.0,0.0,0.0,0.0,0.0,0.0,0.0,0.0,0.0,0.0,0.0,0.0,0.0,0.0,0.0,0.0,0.0,0.0,0.0,0.0,0.0,-0.8028,-0.8503,-0.8784,-0.8826,-0.8598,-0.9691,-1.0207,-0.9805,0.0,0.0,0.0,0.0,0.0,0.0,0.0,0.0,0.0,0.0,0.0,0.0,0.0,0.0,0.0,0.0,0.0,0.0,0.0,0.0,0.0,0.0,0.0,0.0,0.0,0.0,0.0,0.0,0.0,0.0,0.0,0.0,0.0,0.0,0.0,0.0,0.0,0.0,0.0,0.0,0.0,0.0,0.0,0.0,0.0,0.0,0.0,0.0,0.0,0.0,0.0,0.0,0.0,0.0,0.0,0.0,0.0,0.0,0.0,0.0,0.0,0.0,0.0,0.0,0.0,0.0,0.0,0.0,0.0,0.0,0.0,0.0,0.0,0.0,0.0,0.0,0.0,0.0,0.0,0.0,0.0,0.0,0.0,0.0,0.0,0.0,0.0,0.0,0.0,0.0,0.0,0.0,0.0,0.0,0.0,0.0,0.0,0.0,0.0,0.0,0.0,0.0,0.0,0.0,-0.8177,-0.8753,-0.8854,-0.8881,-0.8826,-1.0414,-1.1018,-1.0102,0.0,0.0,0.0,0.0,0.0,0.0,0.0,0.0,0.0,0.0,0.0,0.0,0.0,0.0,0.0,0.0,0.0,0.0,0.0,0.0,0.0,0.0,0.0,0.0,0.0,0.0,0.0,0.0,0.0,0.0,0.0,0.0,0.0,0.0,0.0,0.0,0.0,0.0,0.0,0.0,0.0,0.0,0.0,0.0,0.0,0.0,0.0,0.0,0.0,0.0,0.0,0.0,0.0,0.0,0.0,0.0,0.0,0.0,0.0,0.0,0.0,0.0,0.0,0.0,0.0,0.0,0.0,0.0,0.0,0.0,0.0,0.0,0.0,0.0,0.0,0.0,0.0,0.0,0.0,0.0,0.0,0.0,0.0,0.0,0.0,0.0,0.0,0.0,0.0,0.0,0.0,0.0,0.0,0.0,0.0,0.0,0.0,0.0,0.0,0.0,0.0,0.0,0.0,-0.8252,-0.8578,-0.8854,-0.8885,-0.8771,-0.8436,-0.975,-1.0375,-0.9706,-1.0636,0.0,0.0,0.0,0.0,0.0,0.0,0.0,0.0,0.0,0.0,0.0,0.0,0.0,0.0,0.0,0.0,0.0,0.0,0.0,0.0,0.0,0.0,0.0,0.0,0.0,0.0,0.0,0.0,0.0,0.0,0.0,0.0,0.0,0.0,0.0,0.0,0.0,0.0,0.0,0.0,0.0,0.0,0.0,0.0,0.0,0.0,0.0,0.0,0.0,0.0,0.0,0.0,0.0,0.0,0.0,0.0,0.0,0.0,0.0,0.0,0.0,0.0,0.0,0.0,0.0,0.0,0.0,0.0,0.0,0.0,0.0,0.0,0.0,0.0,0.0,0.0,0.0,0.0,0.0,0.0,0.0,0.0,0.0,0.0,0.0,0.0,0.0,0.0,0.0,0.0,0.0,0.0,0.0,0.0,0.0,0.0,0.0,0.0,0.0,0.0,0.0,0.0,-0.8608,-0.8844,-0.8878,-0.8826,-0.8712,-0.8543,-0.9467,-0.9998,-0.9805,-1.0841,0.0,0.0,0.0,0.0,0.0,0.0,0.0,0.0,0.0,0.0,0.0,0.0,0.0,0.0,0.0,0.0,0.0,0.0,0.0,0.0,0.0,0.0,0.0,0.0,0.0,0.0,0.0,0.0,0.0,0.0,0.0,0.0,0.0,0.0,0.0,0.0,0.0,0.0,0.0,0.0,0.0,0.0,0.0,0.0,0.0,0.0,0.0,0.0,0.0,0.0,0.0,0.0,0.0,0.0,0.0,0.0,0.0,0.0,0.0,0.0,0.0,0.0,0.0,0.0,0.0,0.0,0.0,0.0,0.0,0.0,0.0,0.0,0.0,0.0,0.0,0.0,0.0,0.0,0.0,0.0,0.0,0.0,0.0,0.0,0.0,0.0,0.0,0.0,0.0,0.0,0.0,0.0,0.0,0.0,0.0,0.0,0.0,0.0,0.0,0.0,0.0,0.0,-0.8448,-0.8781,-0.8868,-0.8657,-0.8927,-0.9974,-1.0621,-1.1111,-1.1339,-1.217,0.0,0.0,0.0,0.0,0.0,0.0,0.0,0.0,0.0,0.0,0.0,0.0,0.0,0.0,0.0,0.0,0.0,0.0,0.0,0.0,0.0,0.0,0.0,0.0,0.0,0.0,0.0,0.0,0.0,0.0,0.0,0.0,0.0,0.0,0.0,0.0,0.0,0.0,0.0,0.0,0.0,0.0,0.0,0.0,0.0,0.0,0.0,0.0,0.0,0.0,0.0,0.0,0.0,0.0,0.0,0.0,0.0,0.0,0.0,0.0,0.0,0.0,0.0,0.0,0.0,0.0,0.0,0.0,0.0,0.0,0.0,0.0,0.0,0.0,0.0,0.0,0.0,0.0,0.0,0.0,0.0,0.0,0.0,0.0,0.0,0.0,0.0,0.0,0.0,0.0,0.0,0.0,0.0,0.0,0.0,0.0,0.0,0.0,0.0,0.0,0.0,0.0,-0.8464,-0.8821,-0.8875,-0.8654,-0.8595,-0.8816,-1.0233,-1.0845,-1.0151,0.0,0.0,0.0,0.0,0.0,0.0,0.0,0.0,0.0,0.0,0.0,0.0,0.0,0.0,0.0,0.0,0.0,0.0,0.0,0.0,0.0,0.0,0.0,0.0,0.0,0.0,0.0,0.0,0.0,0.0,0.0,0.0,0.0,0.0,0.0,0.0,0.0,0.0,0.0,0.0,0.0,0.0,0.0,0.0,0.0,0.0,0.0,0.0,0.0,0.0,0.0,0.0,0.0,0.0,0.0,0.0,0.0,0.0,0.0,0.0,0.0,0.0,0.0,0.0,0.0,0.0,0.0,0.0,0.0,0.0,0.0,0.0,0.0,0.0,0.0,0.0,0.0,0.0,0.0,0.0,0.0,0.0,0.0,0.0,0.0,0.0,0.0,0.0,0.0,0.0,0.0,0.0,0.0,0.0,0.0,0.0,0.0,0.0,0.0,0.0,0.0,0.0,-0.7988,-0.8514,-0.8885,-0.8885,-0.8546,-0.8429,-0.854,-0.9798,-1.0367,-0.9855,0.0,0.0,0.0,0.0,0.0,0.0,0.0,0.0,0.0,0.0,0.0,0.0,0.0,0.0,0.0,0.0,0.0,0.0,0.0,0.0,0.0,0.0,0.0,0.0,0.0,0.0,0.0,0.0,0.0,0.0,0.0,0.0,0.0,0.0,0.0,0.0,0.0,0.0,0.0,0.0,0.0,0.0,0.0,0.0,0.0,0.0,0.0,0.0,0.0,0.0,0.0,0.0,0.0,0.0,0.0,0.0,0.0,0.0,0.0,0.0,0.0,0.0,0.0,0.0,0.0,0.0,0.0,0.0,0.0,0.0,0.0,0.0,0.0,0.0,0.0,0.0,0.0,0.0,0.0,0.0,0.0,0.0,0.0,0.0,0.0,0.0,0.0,0.0,0.0,0.0,0.0,0.0,0.0,0.0,0.0,0.0,0.0,0.0,0.0,0.0,0.0,0.0,-0.7988,-0.8514,-0.8885,-0.8885,-0.838,-0.8481,-0.9688,-0.9523,-0.9838,0.0,0.0,0.0,0.0,0.0,0.0,0.0,0.0,0.0,0.0,0.0,0.0,0.0,0.0,0.0,0.0,0.0,0.0,0.0,0.0,0.0,0.0,0.0,0.0,0.0,0.0,0.0,0.0,0.0,0.0,0.0,0.0,0.0,0.0,0.0,0.0,0.0,0.0,0.0,0.0,0.0,0.0,0.0,0.0,0.0,0.0,0.0,0.0,0.0,0.0,0.0,0.0,0.0,0.0,0.0,0.0,0.0,0.0,0.0,0.0,0.0,0.0,0.0,0.0,0.0,0.0,0.0,0.0,0.0,0.0,0.0,0.0,0.0,0.0,0.0,0.0,0.0,0.0,0.0,0.0,0.0,0.0,0.0,0.0,0.0,0.0,0.0,0.0,0.0,0.0,0.0,0.0,0.0,0.0,0.0,0.0,0.0,0.0,0.0,0.0,0.0,0.0,0.0,-0.7988,-0.8514,-0.8885,-0.8885,-0.838,-0.8156,-0.8484,-0.9085,-0.9522,-0.9805,0.0,0.0,0.0,0.0,0.0,0.0,0.0,0.0,0.0,0.0,0.0,0.0,0.0,0.0,0.0,0.0,0.0,0.0,0.0,0.0,0.0,0.0,0.0,0.0,0.0,0.0,0.0,0.0,0.0,0.0,0.0,0.0,0.0,0.0,0.0,0.0,0.0,0.0,0.0,0.0,0.0,0.0,0.0,0.0,0.0,0.0,0.0,0.0,0.0,0.0,0.0,0.0,0.0,0.0,0.0,0.0,0.0,0.0,0.0,0.0,0.0,0.0,0.0,0.0,0.0,0.0,0.0,0.0,0.0,0.0,0.0,0.0,0.0,0.0,0.0,0.0,0.0,0.0,0.0,0.0,0.0,0.0,0.0,0.0,0.0,0.0,0.0,0.0,0.0,0.0,0.0,0.0,0.0,0.0,0.0,0.0,0.0,0.0,0.0,0.0,0.0,0.0,-0.7988,-0.8514,-0.8885,-0.8885,-0.8491,-0.8211,-0.8211,-0.8592,-0.8935,-0.9208,0.0,0.0,0.0,0.0,0.0,0.0,0.0,0.0,0.0,0.0,0.0,0.0,0.0,0.0,0.0,0.0,0.0,0.0,0.0,0.0,0.0,0.0,0.0,0.0,0.0,0.0,0.0,0.0,0.0,0.0,0.0,0.0,0.0,0.0,0.0,0.0,0.0,0.0,0.0,0.0,0.0,0.0,0.0,0.0,0.0,0.0,0.0,0.0,0.0,0.0,0.0,0.0,0.0,0.0,0.0,0.0,0.0,0.0,0.0,0.0,0.0,0.0,0.0,0.0,0.0,0.0,0.0,0.0,0.0,0.0,0.0,0.0,0.0,0.0,0.0,0.0,0.0,0.0,0.0,0.0,0.0,0.0,0.0,0.0,0.0,0.0,0.0,0.0,0.0,0.0,0.0,0.0,0.0,0.0,0.0,0.0,0.0,0.0,0.0,0.0,0.0,0.0,-0.7988,-0.8514,-0.8885,-0.8885,-0.8654,-0.8484,-0.8484,-0.8211,-0.8365,-0.9081,0.0,0.0,0.0,0.0,0.0,0.0,0.0,0.0,0.0,0.0,0.0,0.0,0.0,0.0,0.0,0.0,0.0,0.0,0.0,0.0,0.0,0.0,0.0,0.0,0.0,0.0,0.0,0.0,0.0,0.0,0.0,0.0,0.0,0.0,0.0,0.0,0.0,0.0,0.0,0.0,0.0,0.0,0.0,0.0,0.0,0.0,0.0,0.0,0.0,0.0,0.0,0.0,0.0,0.0,0.0,0.0,0.0,0.0,0.0,0.0,0.0367,0.0,0.0,0.0,0.0,0.0,0.0,0.0,0.0,0.0,0.0,0.0,0.0,0.0,0.0,0.0,0.0,0.0,0.0,0.0,0.0,0.0,0.0,0.0,0.0,0.0,0.0,0.0,0.0,0.0,0.0,0.0,0.0,0.0,0.0,0.0,0.0,0.0,0.0,0.0,0.0,0.0,-0.7988,-0.8514,-0.8885,-0.8885,-0.8654,-0.8484,-0.8484,-0.8429,-0.8583,-0.9081,-1.0286,0.0,0.0,0.0,0.0,0.0,0.0,0.0,0.0,0.0,0.0,0.0,0.0,0.0,0.0,0.0,0.0,0.0,0.0,0.0,0.0,0.0,0.0,0.0,0.0,0.0,0.0,0.0,0.0,0.0,0.0,0.0,0.0,0.0,0.0,0.0,0.0,0.0,0.0,0.0,0.0,0.0,0.0,0.0,0.0,0.0,0.0,0.0,0.0,0.0,0.0,0.0,0.0,0.0,0.0,0.0,0.0,0.0,0.0,0.0,0.0,0.0581,0.0,0.0,0.0,0.0,0.0,0.0,0.0,0.0,0.0,0.0,0.0,0.0,0.0,0.0,0.0,0.0,0.0,0.0,0.0,0.0,0.0,0.0,0.0,0.0,0.0,0.0,0.0,0.0,0.0,0.0,0.0,0.0,0.0,0.0,0.0,0.0,0.0,0.0,0.0,0.0,-0.814,-0.8611,-0.8885,-0.8885,-0.8768,-0.8712,-0.8712,-0.8598,-0.8643,-0.8982,-1.0294,0.0,0.0,0.0,0.0,0.0,0.0,0.0,0.0,0.0,0.0,0.0,0.0,0.0,0.0,0.0,0.0,0.0,0.0,0.0,0.0,0.0,0.0,0.0,0.0,0.0,0.0,0.0,0.0,0.0,0.0,0.0,0.0,0.0,0.0,0.0,0.0,0.0,0.0,0.0,0.0,0.0,0.0,0.0,0.0,0.0,0.0,0.0,0.0,0.0,0.0,0.0,0.0,0.0,0.0,0.0,0.0,0.0,0.0,0.0,0.0218,0.0547,0.0928,0.113,0.0,0.0,0.0,0.0,0.0,0.0,0.0,0.0,0.0,0.0,0.0,0.0,0.0,0.0,0.0,0.0,0.0,0.0,0.0,0.0,0.0,0.0,0.0,0.0,-0.7469,-0.8462,0.0,0.0,0.0,0.0,0.0,0.0,0.0,0.0,0.0,0.0,0.0,0.0,-0.8255,-0.8662,-0.8885,-0.8885,-0.8885,-0.8885,-0.8885,-0.8712,-0.8654,-0.8881,-1.0075,-1.0828,0.0,0.0,0.0,0.0,0.0,0.0,0.0,0.0,0.0,0.0,0.0,0.0,0.0,0.0,0.0,0.0,0.0,0.0,0.0,0.0,0.0,0.0,0.0,0.0,0.0,0.0,0.0,0.0,0.0,0.0,0.0,0.0,0.452,0.4274,0.0,0.0,0.0,0.0,0.0,0.0,0.0,0.0,0.0,0.0,0.0,0.0,0.0,0.1038,0.0,0.0,0.0,0.0,0.0,0.0,0.0,0.0,0.0,0.0,0.0055,0.0,0.0929,0.0927,0.0,0.0,0.0,0.0,0.0,0.0,0.0,0.0,0.0,0.0,0.0,0.0,0.0,0.0,0.0,0.0,0.0,0.0,0.0,0.0,0.0,0.0,-0.4974,-0.4818,-0.6793,-0.8706,0.0,-0.8499,-0.8211,-0.8211,-0.8102,0.0,0.0,0.0,0.0,0.0,0.0,0.0,-0.832,-0.8662,-0.8885,-0.8885,-0.8885,-0.8885,-0.8885,-0.8881,-0.8881,-0.8885,-1.0034,-1.0411,-0.9746,-1.1403,0.0,0.0,0.0,0.0,0.0,0.0,0.0,0.0,0.0,0.0,0.0,0.0,0.0,0.0,0.0,0.0,0.0,0.0,0.0,0.0,0.0,0.0,0.0,0.0,0.0,0.0,0.0,0.0,0.0,0.6492,0.6312,0.6303,0.5472,0.4816,0.0,0.0,0.0,0.0,0.0,0.0,0.0,0.0,0.0,0.2932,0.2937,0.2703,0.2224,0.1471,0.1141,0.1141,0.0345,0.0,0.0,0.0,0.0,0.0,0.0,0.0227,0.0618,0.0826,0.1142,0.1508,0.0,0.0,0.0,0.0,0.0,0.1475,0.1369,0.1385,0.0,0.0,0.0,0.0,0.0,0.0,0.0,0.0,0.0,0.0,0.0,0.0,0.0,-0.4125,-0.6217,-0.8304,-0.8367,-0.8447,-0.852,0.0,-0.8394,-0.8214,-0.7931,0.0,0.0,0.0,0.0,-0.8421,-0.8506,-0.8764,-0.8885,-0.8885,-0.8885,-0.8885,-0.8885,-0.8885,-0.8885,-0.8885,-1.0025,-1.0548,-1.0184,-1.135,-1.1873,0.0,0.0,0.0,0.0,0.0,0.0,0.0,0.0,0.0,0.0,0.0,0.0,0.0,0.0,0.0,0.0,0.0,0.0,0.0,0.0,0.0,0.0,0.0,0.0,0.0,0.0,0.0,0.0,0.7785,0.766,0.7846,0.6951,0.6284,0.0,0.0,0.0,0.0,0.0,0.0,0.5009,0.5097,0.4862,0.4169,0.4273,0.4212,0.3924,0.263,0.2,0.2,0.0648,0.0,0.0,0.0,0.0,0.0,0.0,0.0117,0.0346,0.0729,0.1042,0.1351,0.1612,0.1596,0.1473,0.1624,0.1585,0.1448,0.1662,0.1735,0.1706,0.1266,0.0,0.0708,-0.0428,0.0,0.0,0.0,0.0,-0.1875,-0.0979,-0.2623,-0.4287,-0.3568,-0.5755,-0.7989,-0.7989,-0.8378,-0.8723,0.0,-0.8645,-0.8472,-0.8197,0.0,0.0,0.0,0.0,-0.8581,-0.8696,-0.8845,-0.8885,-0.8885,-0.8885,-0.8885,-0.8885,-0.8885,-0.8885,-0.8885,-0.9754,-1.0241,-1.0241,-1.084,-1.1149,-1.1032,0.0,0.0,0.0,0.0,0.0,0.0,0.0,0.0,0.0,0.0,0.0,0.0,0.0,0.0,0.0,0.0,0.0,0.0,0.0,0.0,0.0,0.0,0.0,0.0,0.0,0.0,0.0,0.0,0.0,0.8202,0.7117,0.0,0.0,0.0,0.0,0.4604,0.4585,0.4655,0.4897,0.5094,0.518,0.515,0.5449,0.504,0.3928,0.2643,0.2,0.2,0.0648,0.0,0.0,0.0,0.0,0.0,0.0,0.0,0.0059,0.0635,0.1079,0.1341,0.1649,0.1801,0.1796,0.1712,0.1721,0.1802,0.1802,0.1823,0.1793,0.1793,0.1385,0.0872,0.0803,0.0372,0.0,0.0,0.07,0.0819,0.1475,-0.0607,-0.2792,-0.2739,-0.5417,-0.7989,-0.7989,-0.8378,-0.8754,0.0,-0.8804,-0.8696,-0.8679,0.0,-0.8635,-0.8482,-0.8598,-0.8703,-0.871,-0.8845,-0.8885,-0.8885,-0.8885,-0.8885,-0.8885,-0.8885,-0.8885,-0.8885,-0.8937,-0.8992,-0.8992,-0.9047,-0.9423,-1.0225,-1.0112,0.0,0.0,0.0,0.0,0.0,0.0,0.0,0.0,0.0,0.0,0.0,0.0,0.0,0.0,0.0,0.0,0.0,0.0,0.0,0.0,0.0,0.0,0.0,0.0,0.0,0.0,0.0,0.0,0.7882,0.7067,0.0,0.7029,0.6466,0.5989,0.598,0.5714,0.5629,0.5888,0.6273,0.6462,0.6499,0.6921,0.6895,0.6471,0.5143,0.4481,0.4481,0.2303,0.1274,0.1274,0.0364,0.0,0.0,0.0,0.0,0.006,0.0416,0.0759,0.1082,0.1585,0.1796,0.1778,0.1767,0.177,0.1779,0.1779,0.1786,0.1795,0.1795,0.1676,0.1499,0.149,0.1322,0.1212,0.1432,0.1494,0.1556,0.1723,-0.0167,-0.2126,-0.2126,-0.4582,-0.6988,-0.7376,-0.7895,-0.8375,-0.8816,-0.8815,-0.871,-0.871,-0.8794,-0.8804,-0.8652,-0.876,-0.8804,-0.8804,-0.8851,-0.8885,-0.8885,-0.8885,-0.8885,-0.8885,-0.8885,-0.8885,-0.8885,-0.8885,-0.8885,-0.8885,-0.8885,-0.9047,-0.9375,-1.0073,-1.0641,0.0,0.0,0.0,0.0,0.0,0.0,0.0,0.0,0.0,0.0,0.0,0.0,0.0,0.0,0.0,0.0,0.0,0.0,0.0,0.0,0.0,0.0,0.0,0.0,0.0,0.7513,0.7369,0.7885,0.7267,0.6906,0.7209,0.6804,0.6591,0.6756,0.6361,0.6237,0.6446,0.675,0.6969,0.7092,0.7527,0.7811,0.7872,0.658,0.5661,0.523,0.3018,0.1788,0.1296,0.0432,0.0,0.0,0.0,0.0,0.0,0.0303,0.0539,0.0818,0.1394,0.1722,0.181,0.181,0.1804,0.1795,0.1795,0.1795,0.1795,0.1795,0.1795,0.1795,0.1795,0.1795,0.1795,0.1795,0.1795,0.1795,0.1795,0.0336,-0.1288,-0.168,-0.3802,-0.5926,-0.6707,-0.7453,-0.8045,-0.8484,-0.8691,-0.8771,-0.872,-0.8794,-0.8811,-0.8655,-0.872,-0.8784,-0.8784,-0.8828,-0.8807,-0.8807,-0.8851,-0.8885,-0.8885,-0.8838,-0.8828,-0.8878,-0.8834,-0.8828,-0.8881,-0.8834,-0.8807,-0.8807,-0.9559,-1.0343,-1.1122,0.0,0.0,0.0,0.0,0.0,0.0,0.0,0.0,0.0,0.0,0.0,0.0,0.0,0.0,0.0,0.0,0.0,0.0,0.0,0.0,0.0,0.0,0.0,0.7962,0.7909,0.7954,0.824,0.7756,0.7396,0.729,0.7219,0.7039,0.6736,0.6381,0.6241,0.6399,0.6396,0.6519,0.6891,0.7192,0.7559,0.7858,0.6578,0.5291,0.3997,0.2711,0.1418,0.0123,0.0062,0.0061,0.0,0.0,0.0,0.0,0.0366,0.0429,0.0482,0.1127,0.1577,0.1784,0.1783,0.1821,0.1795,0.1793,0.1793,0.1795,0.1795,0.1795,0.1795,0.1795,0.1795,0.1795,0.1795,0.1795,0.1795,0.1795,0.0897,-0.028,-0.1512,-0.3187,-0.4806,-0.6038,-0.7059,-0.7832,-0.7965,-0.8491,-0.8838,-0.8743,-0.8716,-0.8665,-0.852,-0.8496,0.0,-0.8496,-0.8625,-0.8716,-0.8716,-0.8845,-0.8878,-0.8885,-0.8798,-0.8774,-0.8871,-0.8801,-0.8784,-0.8878,-0.8798,-0.8716,-0.8716,-0.862,-0.9342,-1.0867,0.0,0.0,0.0,0.0,0.0,0.0,0.0,0.0,0.0,0.0,0.0,0.0,0.0,0.0,0.0,0.0,0.0,0.0,0.0,0.0,0.0,0.8213,0.8421,0.8474,0.8147,0.7971,0.8286,0.815,0.7809,0.7284,0.7625,0.7516,0.6539,0.6605,0.6494,0.6037,0.6152,0.6197,0.6316,0.6904,0.7197,0.7316,0.7359,0.7194,0.6761,0.5475,0.4123,0.2772,0.1869,0.0936,0.0,0.0,0.0,0.0,0.0125,0.0249,0.0551,0.1146,0.1425,0.152,0.1732,0.1821,0.1789,0.1744,0.1758,0.1795,0.1795,0.1795,0.1795,0.1795,0.1795,0.1795,0.1795,0.1795,0.1795,0.1795,0.0897,-0.028,-0.1512,-0.2853,-0.4306,-0.5926,-0.685,-0.75,-0.7925,-0.8491,-0.8868,-0.8828,-0.8821,-0.8807,-0.8818,-0.8815,0.0,-0.8815,-0.8849,-0.8821,-0.8821,-0.8815,-0.8818,-0.8875,-0.8798,-0.8774,-0.8871,-0.8844,-0.8841,-0.8881,-0.8844,-0.8821,-0.8821,-0.947,-0.9928,0.0,0.0,0.0,0.0,0.0,0.0,0.0,0.0,0.0,0.0,0.0,0.0,0.0,0.0,0.0,0.0,0.0,0.0,0.0,0.0,0.0,0.0,0.8499,0.8754,0.8879,0.8617,0.8513,0.8684,0.8753,0.854,0.7858,0.8162,0.8041,0.7072,0.6952,0.6705,0.6342,0.6118,0.6024,0.612,0.6549,0.6904,0.7105,0.7512,0.7505,0.7072,0.6274,0.5168,0.3876,0.2609,0.155,0.0,0.0253,0.0,0.0,0.0,0.0126,0.0,0.0,0.0,0.0,0.0,0.1772,0.1807,0.1759,0.1765,0.1795,0.1795,0.1795,0.1795,0.1795,0.1787,0.1776,0.1776,0.1767,0.176,0.1773,0.1276,0.0445,-0.0783,-0.1567,-0.263,-0.4697,-0.5614,-0.626,-0.7143,0.0,0.0,-0.8537,-0.8666,-0.8821,-0.8757,-0.8747,-0.8747,-0.8747,-0.8804,-0.879,-0.879,-0.8821,-0.8842,-0.8875,-0.8798,0.0,0.0,0.0,-0.879,-0.879,-0.879,0.0,0.0,0.0,-0.9497,0.0,0.0,0.0,0.0,-1.1708,-1.2279,0.0,0.0,0.0,0.0,0.0,0.0,0.0,0.0,0.0,0.0,0.0,0.0,0.0,0.0,0.0,0.0,0.8635,0.8835,0.9169,0.9224,0.9241,0.9258,0.9445,0.9314,0.8668,0.8781,0.8607,0.793,0.7319,0.695,0.6888,0.0,0.0,0.0,0.0,0.6589,0.6988,0.7273,0.6954,0.6092,0.609,0.5414,0.406,0.2961,0.2252,0.1962,0.0745,0.0125,0.0,0.0,0.0,0.0126,0.0745,0.1162,0.1502,0.1743,0.178,0.0,0.0,0.0,0.0,0.1795,0.1795,0.1795,0.1795,0.1776,0.1809,0.1809,0.1737,0.1672,0.1752,0.1708,0.1384,0.0169,-0.0113,-0.0732,-0.3144,-0.4046,-0.4729,-0.6021,-0.7065,-0.7792,-0.7968,-0.8385,-0.8689,-0.8554,-0.8533,0.0,-0.8533,-0.8652,-0.8737,-0.8737,0.0,0.0,-0.8881,-0.8798,-0.8774,-0.8871,-0.8811,-0.8737,-0.8737,-0.8737,-0.8672,-0.8537,-0.8533,-0.8601,-0.8737,-0.8737,-0.9077,-0.975,-1.1591,-1.2761,0.0,0.0,0.0,0.0,0.0,0.0,0.0,0.0,0.0,0.0,0.0,0.0,0.0,0.0,0.0,0.8635,0.8794,0.8954,0.9183,0.9316,0.9384,0.9507,0.9571,0.9357,0.8802,0.9259,0.915,0.7994,0.7808,0.7441,0.695,0.6133,0.5682,0.5704,0.5974,0.6214,0.6291,0.7032,0.7324,0.7138,0.0,0.0,0.5477,0.5235,0.3999,0.1992,0.1716,0.1017,0.0,0.0,0.0128,0.0441,0.087,0.1346,0.1801,0.1778,0.1819,0.1772,0.1749,0.1754,0.1795,0.1795,0.1795,0.1795,0.1795,0.1791,0.0,0.1787,0.1575,0.1361,0.1366,0.1208,0.0756,-0.0466,-0.0699,-0.1335,-0.3436,-0.4383,-0.5094,-0.6107,-0.6856,-0.7459,-0.7928,-0.8468,-0.8828,-0.8855,-0.8797,-0.8797,-0.8797,-0.8821,-0.8841,-0.8841,-0.8811,-0.8804,-0.8871,-0.8798,-0.8774,-0.8871,-0.8854,-0.8841,-0.8841,-0.8841,-0.8824,-0.8797,-0.8797,-0.8811,-0.8841,-0.8841,-0.891,-0.9103,-0.977,-1.062,0.0,0.0,0.0,0.0,0.0,0.0,0.0,0.0,0.0,0.0,0.0,0.8177,0.8255,0.0,0.8533,0.8686,0.8838,0.9015,0.9235,0.9398,0.9523,0.9602,0.9673,0.9623,0.9329,0.9275,0.9031,0.8421,0.7747,0.7255,0.6888,0.6189,0.5679,0.5588,0.5854,0.6039,0.612,0.6793,0.7204,0.7385,0.775,0.7564,0.6891,0.62,0.5165,0.3861,0.2593,0.1649,0.0947,0.0257,0.0191,0.05,0.0687,0.1114,0.1703,0.165,0.1688,0.1854,0.1793,0.1782,0.1795,0.1795,0.1692,0.1533,0.1533,0.1477,0.1363,0.1363,0.1193,0.1081,0.1262,0.1215,0.0933,0.0411,0.0235,-0.0235,-0.2037,-0.3,-0.3891,-0.4936,-0.6018,-0.6821,-0.7099,-0.7878,-0.8549,-0.883,-0.8885,-0.8885,-0.8885,-0.8885,-0.8885,-0.8885,-0.8814,-0.8801,-0.8875,-0.8814,-0.8804,-0.8878,-0.8885,-0.8885,-0.8885,-0.8885,-0.8885,-0.8885,-0.8885,-0.8885,-0.8885,-0.8885,-0.8885,-0.8885,-0.9051,-0.9761,0.0,0.0,0.0,0.0,0.0,0.0,0.0,0.8262,0.8153,0.8123,0.8292,0.8401,0.8401,0.844,0.8565,0.8771,0.8844,0.8974,0.9384,0.9534,0.9618,0.9646,0.963,0.9579,0.9579,0.9031,0.8607,0.8607,0.7564,0.6888,0.6888,0.6283,0.5849,0.5643,0.5841,0.597,0.6057,0.6633,0.7021,0.7327,0.7689,0.7872,0.7869,0.6766,0.6154,0.5726,0.3118,0.1822,0.1513,0.0448,0.0191,0.0374,0.0378,0.0752,0.13,0.1276,0.1493,0.1764,0.1735,0.171,0.1691,0.1691,0.1482,0.1213,0.1213,0.1098,0.0924,0.0924,0.0803,0.0799,0.1041,0.1105,0.1053,0.1126,0.1008,0.0473,-0.0942,-0.1916,-0.2867,-0.4057,-0.5252,-0.6154,-0.6262,-0.7043,-0.7934,-0.8605,-0.8826,-0.8885,-0.8885,-0.8885,-0.8885,-0.8885,-0.8885,-0.8885,-0.8885,-0.8885,-0.8885,-0.8885,-0.8885,-0.8885,-0.8885,-0.8885,-0.8885,-0.8885,-0.8885,-0.8885,-0.8885,-0.8885,-0.8885,-0.8885,-0.8885,-0.9541,0.8716,0.8812,0.8807,0.8412,0.835,0.8438,0.0,0.8655,0.8747,0.8662,0.8757,0.8807,0.8807,0.8653,0.865,0.9079,0.8894,0.8953,0.9481,0.9598,0.9656,0.9781,0.9268,0.8912,0.8912,0.836,0.7994,0.7994,0.7319,0.6888,0.6888,0.6283,0.5908,0.5888,0.5906,0.5908,0.5949,0.6582,0.69,0.6962,0.7569,0.7872,0.7872,0.775,0.7011,0.5724,0.3147,0.1309,0.0189,0.0063,0.0,0.0064,0.0063,0.0252,0.0628,0.0854,0.1195,0.147,0.1388,0.1378,0.1376,0.1376,0.1159,0.094,0.094,0.094,0.0881,0.0881,0.0652,0.0479,0.048,0.0303,0.0123,0.0184,-0.0425,-0.1257,-0.2302,-0.3194,-0.4057,-0.5071,-0.5386,-0.5656,-0.6207,-0.6429,-0.6874,-0.7934,-0.8549,-0.8885,-0.8885,-0.8885,-0.8885,-0.8885,-0.8885,-0.8885,-0.8885,-0.8885,-0.8885,-0.8885,-0.8885,-0.8885,-0.8885,-0.8885,-0.8885,-0.8885,-0.8885,-0.8885,-0.8885,-0.8885,-0.8885,-0.8885,-0.8885,-0.9541,0.91,0.9332,0.938,0.8717,0.8638,0.8747,0.8747,0.8849,0.8865,0.8801,0.8841,0.8826,0.8712,0.8533,0.8439,0.8608,0.8647,0.8858,0.9262,0.9556,0.9754,0.9815,0.9067,0.8613,0.8675,0.8213,0.7691,0.7197,0.6642,0.6344,0.6344,0.6039,0.5916,0.5916,0.5916,0.5916,0.5916,0.6344,0.6589,0.6589,0.7261,0.763,0.763,0.7811,0.7194,0.5784,0.3939,0.235,0.1123,0.0318,0.0,0.0,0.0,0.0064,0.0252,0.0555,0.0848,0.1134,0.1067,0.1058,0.105,0.105,0.0885,0.0597,0.0597,0.0481,0.0363,0.0363,0.0304,0.0183,0.0428,0.0369,0.0309,0.0309,0.0,-0.0548,-0.1676,-0.2591,-0.3535,-0.439,-0.5021,-0.5491,-0.5712,-0.6042,-0.6485,-0.693,-0.7768,-0.8491,-0.883,-0.8885,-0.8885,-0.8885,-0.8885,-0.8885,-0.8885,-0.8885,-0.8885,-0.8885,-0.8885,-0.8885,-0.8885,-0.8885,-0.8885,-0.8885,-0.8885,-0.8885,-0.8885,-0.8885,-0.8885,-0.8885,-0.8885,-0.9541,0.9482,0.973,0.9753,0.8812,0.8573,0.8608,0.865,0.866,0.866,0.866,0.866,0.8602,0.8377,0.8271,0.8198,0.8265,0.8481,0.8728,0.9026,0.9451,0.967,0.9586,0.9058,0.8615,0.8351,0.7828,0.7188,0.6437,0.6085,0.5916,0.5916,0.5916,0.5916,0.5916,0.5916,0.5916,0.5916,0.6221,0.6403,0.6403,0.6957,0.7327,0.7385,0.775,0.7194,0.5845,0.449,0.3201,0.1916,0.0571,0.0,0.0,0.0,0.0,0.0,0.025,0.0552,0.0784,0.0784,0.0779,0.0771,0.0771,0.054,0.0304,0.0304,0.0184,0.0,0.0,0.0,0.0062,0.0309,0.037,0.037,0.037,0.0185,-0.0244,-0.1087,-0.2252,-0.3261,-0.3854,-0.4759,-0.5382,-0.5382,-0.5768,-0.6098,-0.6262,-0.7154,-0.7989,-0.8605,-0.8771,-0.8885,-0.8885,-0.8885,-0.8885,-0.8885,-0.8885,-0.8885,-0.8885,-0.8885,-0.8885,-0.8885,-0.8885,-0.8885,-0.8885,-0.8885,-0.8885,-0.8885,-0.8885,-0.8885,-0.8885,-0.8885,-0.9434,1.0016,0.9942,0.9892,0.8651,0.8065,0.788,0.8014,0.8045,0.8045,0.8045,0.8045,0.8045,0.7989,0.7921,0.7932,0.8353,0.8423,0.8521,0.8963,0.9296,0.9442,0.9161,0.9297,0.8924,0.7818,0.6963,0.6316,0.5957,0.5914,0.5916,0.5916,0.5916,0.5916,0.5916,0.5916,0.5916,0.5916,0.6221,0.6403,0.6403,0.6775,0.7082,0.7385,0.775,0.7194,0.5845,0.449,0.3201,0.1914,0.0565,0.0,0.0,0.0,0.0,0.0,0.0,0.0186,0.0422,0.0422,0.0422,0.0422,0.0422,0.0244,0.0,0.0,0.0,0.0,0.0,0.0,0.0,0.0,0.0,0.0,0.0,-0.061,-0.1266,-0.1265,-0.2702,-0.3961,-0.4017,-0.4759,-0.5382,-0.5382,-0.5437,-0.5603,-0.6209,-0.6818,-0.7432,-0.7934,-0.8546,-0.8885,-0.8885,-0.8885,-0.8885,-0.8885,-0.8885,-0.8885,-0.8885,-0.8885,-0.8885,-0.8885,-0.8885,-0.8885,-0.8885,-0.8885,-0.8885,-0.8885,-0.8885,-0.8885,-0.8885,-0.8885,-0.9213,1.0131,0.9576,0.915,0.821,0.7965,0.7956,0.8093,0.7785,0.7613,0.8066,0.7645,0.7359,0.7583,0.7494,0.7451,0.7632,0.7801,0.8084,0.8611,0.8307,0.8398,0.9242,0.8712,0.8303,0.8427,0.7976,0.0,0.62,0.6377,0.6342,0.5916,0.5916,0.5916,0.5916,0.5916,0.5916,0.5916,0.6039,0.6039,0.6101,0.6653,0.7082,0.7385,0.775,0.7625,0.7133,0.5782,0.4492,0.3145,0.1835,0.0835,0.0,0.0,0.0,0.0,0.0,0.0062,0.0123,0.0123,0.0123,0.0123,0.0123,0.0061,0.0,0.0,0.0,0.0,0.0,0.0,0.0,0.0,0.0,0.0,0.0,-0.0246,-0.061,-0.1147,-0.2251,-0.3314,-0.391,-0.4759,-0.5382,-0.5382,-0.5382,-0.5603,-0.6207,-0.7099,-0.7934,-0.8546,-0.8684,-0.8788,-0.8788,-0.8696,-0.8635,-0.8635,-0.8635,-0.8635,-0.8635,-0.873,-0.8788,-0.8788,-0.8828,-0.8885,-0.8885,-0.8885,-0.8885,-0.8885,-0.8885,-0.8885,-0.8885,-0.8885,-0.9213,0.9908,0.9203,0.869,0.7931,0.7741,0.7747,0.7831,0.7564,0.7336,0.7792,0.7399,0.7078,0.7205,0.722,0.7247,0.735,0.7582,0.7769,0.8043,0.7931,0.8008,0.8632,0.8333,0.8286,0.8595,0.8725,0.8083,0.645,0.6393,0.6237,0.5821,0.5818,0.5849,0.5914,0.5916,0.5916,0.5916,0.5916,0.5916,0.5916,0.6594,0.7023,0.7266,0.7689,0.7847,0.7752,0.6444,0.5414,0.4499,0.2718,0.1479,0.0716,0.0197,0.0,0.0,0.0,0.0,0.0,0.0,0.0,0.0,0.0,0.0,0.0,0.0,0.0,0.0,0.0,0.0,0.0,0.0,0.0,0.0,0.0,0.0,-0.0123,-0.0731,-0.156,-0.248,-0.3369,-0.4287,-0.5023,-0.533,-0.5382,-0.5603,-0.6207,-0.7061,-0.7807,-0.8414,-0.8608,-0.8689,-0.8635,-0.854,-0.8482,-0.8482,-0.8482,-0.8482,-0.8482,-0.8574,-0.8628,-0.8628,-0.8774,-0.8804,-0.8804,-0.8854,-0.8885,-0.8885,-0.8885,-0.8885,-0.8885,-0.8885,-0.9103,0.936,0.8733,0.8361,0.7738,0.7418,0.728,0.7288,0.7293,0.7293,0.7282,0.7236,0.7108,0.7097,0.7103,0.7259,0.7459,0.7684,0.7709,0.736,0.8007,0.8226,0.7344,0.8198,0.8698,0.8496,0.9003,0.8638,0.6815,0.0,0.5661,0.5598,0.5605,0.5683,0.5912,0.5916,0.5916,0.5916,0.5916,0.5916,0.5916,0.6594,0.69,0.69,0.7566,0.7812,0.7657,0.6487,0.5976,0.5734,0.3259,0.2182,0.1975,0.0659,0.0065,0.0,0.0,0.0,0.0,0.0,0.0,0.0,0.0,0.0,0.0,0.0,0.0,0.0,0.0,0.0,0.0,0.0,0.0,0.0,0.0,0.0,0.0,0.0,-0.067,-0.1559,-0.2481,-0.3369,-0.4282,-0.5228,-0.5382,-0.5601,-0.6146,-0.6605,-0.7078,-0.7732,-0.8316,-0.8632,-0.8486,-0.8465,-0.8459,-0.8459,-0.8459,-0.8459,-0.8459,-0.8465,-0.8472,-0.8472,-0.8618,-0.8699,-0.8699,-0.8794,-0.8871,-0.8871,-0.8878,-0.8885,-0.8885,-0.8885,-0.8885,0.8625,0.8049,0.75,0.7371,0.7303,0.7301,0.7451,0.713,0.6967,0.7257,0.6781,0.6634,0.7685,0.7176,0.686,0.7613,0.7051,0.6589,0.6946,0.6538,0.6718,0.7964,0.7841,0.8028,0.8985,0.8821,0.848,0.0,0.764,0.6957,0.5851,0.5851,0.5877,0.5919,0.5916,0.5916,0.5916,0.5916,0.5916,0.5916,0.6344,0.6653,0.69,0.7324,0.7675,0.7834,0.7645,0.6943,0.6012,0.5465,0.3982,0.204,0.1711,0.0914,0.0,0.0,0.0,0.0,0.0,0.0,0.0,0.0,0.0,0.0,0.0,0.0,0.0,0.0,0.0,0.0,0.0,0.0,0.0,0.0,0.0,0.0,0.0,-0.067,-0.1384,-0.1618,-0.2926,-0.4282,-0.5228,-0.5382,-0.5413,-0.5452,-0.5966,-0.6653,-0.7678,-0.8144,-0.8367,-0.8381,-0.8221,-0.8103,-0.8103,-0.8103,-0.8103,-0.8103,-0.8262,-0.8378,-0.8378,-0.8462,-0.854,-0.854,-0.8693,-0.8767,-0.8767,-0.8828,-0.8885,-0.8885,-0.8885,-0.8885,0.7971,0.7542,0.7224,0.722,0.7326,0.7421,0.7434,0.7201,0.7006,0.7118,0.6704,0.6719,0.7804,0.7181,0.6755,0.7564,0.6858,0.6171,0.6098,0.5998,0.6268,0.7163,0.7568,0.8136,0.9009,0.9028,0.8842,0.8334,0.77,0.7062,0.6221,0.5968,0.5825,0.5916,0.5916,0.5916,0.5916,0.5916,0.5916,0.5916,0.6221,0.6589,0.69,0.7266,0.7566,0.7877,0.0,0.7702,0.6998,0.6509,0.4993,0.3024,0.2369,0.1236,0.0,0.0,0.0,0.0,0.0,0.0,0.0,0.0,0.0,0.0,0.0,0.0,0.0,0.0,0.0,0.0,0.0,0.0,0.0,0.0,0.0,0.0,0.0,-0.0368,-0.0851,-0.1206,-0.2758,-0.4176,-0.4708,-0.5124,-0.5349,-0.5202,-0.5642,-0.6241,-0.6823,-0.7538,-0.7986,-0.8177,-0.8092,-0.7988,-0.7988,-0.7988,-0.7988,-0.7988,-0.8123,-0.817,-0.817,-0.8309,-0.8387,-0.8387,-0.8533,-0.8645,-0.871,-0.8798,-0.8817,-0.8885,-0.8885,-0.8885,0.7436,0.7199,0.7179,0.7285,0.7404,0.747,0.7323,0.7334,0.7249,0.7029,0.6874,0.6969,0.7682,0.7158,0.6799,0.7388,0.6995,0.6256,0.5365,0.6215,0.6727,0.6281,0.752,0.8514,0.8891,0.9364,0.9233,0.8233,0.7321,0.6681,0.6507,0.5987,0.5706,0.5912,0.5916,0.5916,0.5916,0.5916,0.5916,0.5916,0.6221,0.6528,0.6839,0.7204,0.7516,0.7841,0.0,0.0,0.8138,0.7073,0.5788,0.44,0.2953,0.155,0.0252,0.0063,0.0,0.0,0.0,0.0,0.0,0.0,0.0,0.0,0.0,0.0,0.0,0.0,0.0,0.0,0.0,0.0,0.0,0.0,0.0,0.0,0.0,0.0,-0.0246,-0.1148,-0.2528,-0.3681,-0.3961,-0.4636,-0.5165,-0.5186,-0.5523,-0.5789,-0.5789,-0.6751,-0.7576,-0.7852,-0.7942,-0.7988,-0.7988,-0.7988,-0.7988,-0.7988,-0.7988,-0.7988,-0.7988,-0.817,-0.8241,-0.8241,-0.8381,-0.852,-0.8652,-0.8693,-0.8777,-0.8854,-0.8875,-0.8885,0.725,0.7081,0.6829,0.7126,0.7277,0.7331,0.7467,0.7331,0.7202,0.7013,0.6806,0.6913,0.7809,0.7283,0.6817,0.6907,0.7309,0.7324,0.6564,0.7379,0.8136,0.8332,0.8023,0.8142,0.8839,0.8769,0.8962,0.9438,0.8378,0.7203,0.6052,0.5941,0.59,0.5919,0.5916,0.5916,0.5916,0.5916,0.5916,0.5916,0.5978,0.616,0.6528,0.6837,0.7254,0.7658,0.0,0.0,0.8329,0.8244,0.7301,0.5839,0.4477,0.3006,0.151,0.0436,0.0,0.0,0.0,0.0,0.0,0.0,0.0,0.0,0.0,0.0,0.0,0.0,0.0,0.0,0.0,0.0,0.0,0.0,0.0,0.0,0.0,0.0,-0.0246,-0.1148,-0.1364,-0.1981,-0.368,-0.386,-0.4086,-0.4985,-0.5158,-0.527,-0.5576,-0.657,-0.7263,-0.7341,-0.7739,-0.7988,-0.7988,-0.7988,-0.7988,-0.7988,-0.7988,-0.7988,-0.7988,-0.8015,-0.8029,-0.8029,-0.8228,-0.8371,-0.8347,-0.8591,-0.8723,-0.8754,-0.8824,-0.8885,0.685,0.6848,0.6783,0.7177,0.7293,0.7317,0.7421,0.721,0.6955,0.6866,0.6567,0.6594,0.7464,0.7478,0.7253,0.7037,0.718,0.7086,0.6417,0.724,0.7929,0.7877,0.8441,0.8803,0.8641,0.8704,0.8793,0.9041,0.8161,0.7441,0.695,0.6328,0.5961,0.5919,0.5916,0.5916,0.5916,0.5916,0.5916,0.5916,0.5916,0.6099,0.6403,0.6775,0.7172,0.7643,0.8018,0.0,0.8331,0.8451,0.7569,0.5972,0.4706,0.328,0.193,0.1299,0.0617,0.0123,0.0802,0.0555,0.0,0.0,0.0,0.0,0.0,0.0,0.0,0.0,0.0,0.0,0.0,0.0,0.0,0.0,0.0,0.0,0.0,0.0,-0.0123,-0.055,-0.0773,-0.1217,-0.2243,-0.2993,-0.364,-0.4156,-0.4686,-0.5041,-0.5148,-0.5887,-0.6587,-0.7138,-0.7437,-0.769,-0.7988,-0.7988,-0.7988,-0.7988,-0.7988,-0.7988,-0.7988,-0.7988,-0.7988,-0.7988,-0.8113,-0.8191,-0.8323,-0.8414,-0.852,-0.8594,-0.875,-0.8818,0.6436,0.6591,0.668,0.7105,0.7239,0.7298,0.7354,0.706,0.6687,0.6669,0.6337,0.6257,0.6912,0.7529,0.767,0.7049,0.7451,0.7519,0.6516,0.7659,0.8322,0.7497,0.8837,0.9487,0.8595,0.8722,0.8764,0.8701,0.7943,0.0,0.7495,0.6467,0.5916,0.5916,0.5916,0.5916,0.5916,0.5916,0.5916,0.5916,0.5916,0.6039,0.6283,0.6676,0.7094,0.7653,0.8001,0.0,0.0,0.8367,0.7561,0.6221,0.5003,0.3805,0.2773,0.2526,0.1541,0.0555,0.1665,0.111,0.0,0.0,0.0,0.0,0.0,0.0,0.0,0.0,0.0,0.0,0.0,0.0,0.0,0.0,0.0,0.0,0.0,0.0,0.0,0.0061,-0.0237,-0.0574,-0.0797,-0.1913,-0.2791,-0.3009,-0.3716,-0.4302,-0.444,-0.4832,-0.5534,-0.6736,-0.7089,-0.7388,-0.7789,-0.7939,-0.7988,-0.7988,-0.7988,-0.7988,-0.7988,-0.7988,-0.7988,-0.7988,-0.7988,-0.8099,-0.8221,-0.8255,-0.8378,-0.8438,-0.8591,-0.8679,0.6125,0.6323,0.6386,0.6672,0.7006,0.7249,0.7279,0.687,0.6481,0.6583,0.6219,0.5996,0.6192,0.7282,0.7705,0.6353,0.8916,1.033,0.8213,1.0239,1.1265,0.9314,0.94,0.945,0.8927,0.8651,0.884,0.9637,0.8566,0.0,0.616,0.5978,0.5916,0.5916,0.5916,0.5916,0.5916,0.5916,0.5916,0.5916,0.5916,0.5916,0.5982,0.6374,0.6848,0.734,0.7762,0.0,0.0,0.8367,0.8137,0.7574,0.6374,0.5733,0.5414,0.4183,0.2895,0.185,0.1973,0.111,0.0,0.0,0.0,0.0,0.0,0.0,0.0,0.0,0.0,0.0,0.0,0.0,0.0,0.0,0.0,0.0,0.0,0.0,0.0061,0.0298,0.0583,0.0456,-0.0386,-0.0426,-0.0674,-0.1707,-0.1889,-0.2272,-0.3225,-0.3374,-0.4028,-0.5584,-0.6637,-0.7238,-0.7288,-0.7739,-0.7988,-0.7988,-0.7988,-0.7988,-0.7988,-0.7988,-0.7988,-0.7988,-0.7988,-0.7995,-0.8012,-0.8201,-0.833,-0.8344,-0.8435,-0.8577,0.5744,0.6065,0.6386,0.6659,0.6935,0.7196,0.7143,0.6748,0.6413,0.6434,0.6101,0.5814,0.5863,0.7396,0.8108,0.6484,0.824,0.9644,0.9089,1.0327,1.1149,1.0902,1.1579,1.1755,1.1028,1.0131,0.9415,0.9009,0.8129,0.0,0.6519,0.6099,0.5943,0.5936,0.5945,0.5943,0.5936,0.5945,0.5916,0.5916,0.5916,0.5916,0.5921,0.632,0.6794,0.734,0.7642,0.0,0.0,0.8119,0.7943,0.7455,0.637,0.5937,0.5845,0.5291,0.4246,0.314,0.314,0.228,0.1049,0.0247,0.0,0.0,0.0,0.0,0.0,0.0,0.0,0.0,0.0,0.0,0.0,0.0,0.0,0.0,0.0,0.0,0.006,0.0351,0.0625,0.0775,0.0541,0.0209,-0.0153,-0.0611,-0.1215,-0.1765,-0.2167,-0.2217,-0.2469,-0.3122,-0.5029,-0.6084,-0.5779,-0.6833,-0.7235,-0.6578,-0.7484,-0.769,-0.7089,-0.7637,-0.769,-0.7039,-0.769,-0.7988,-0.7988,-0.8102,-0.8133,-0.8136,-0.8286,-0.8387,0.5362,0.5893,0.633,0.655,0.6885,0.718,0.6955,0.6648,0.6386,0.6245,0.597,0.5688,0.5688,0.7437,0.8471,0.7115,0.8635,0.9967,0.9874,1.086,1.1616,1.1675,1.2764,1.3234,1.2485,1.1362,1.0201,0.8915,0.821,0.0,0.7495,0.6676,0.616,0.595,0.5951,0.5947,0.595,0.5949,0.5978,0.6221,0.5978,0.6025,0.6307,0.6398,0.6663,0.7185,0.0,0.0,0.0,0.7932,0.778,0.7356,0.6731,0.6521,0.6521,0.6521,0.5412,0.3875,0.3875,0.2832,0.1234,0.0309,0.0,0.0,0.0,0.0,0.0,0.0,0.0,0.0,0.0,0.0,0.0,0.0,0.0062,0.0122,0.0121,0.018,0.0354,0.0627,0.0775,0.1024,0.1265,0.0873,0.0454,0.0454,-0.0151,-0.0756,-0.1109,-0.1109,-0.126,-0.1563,-0.3272,-0.4325,-0.4119,-0.5422,-0.5927,-0.517,-0.6326,-0.6731,-0.5982,-0.6634,-0.6681,-0.5932,-0.6684,-0.7033,-0.7033,-0.7388,-0.7537,-0.754,-0.7999,-0.8225,0.5084,0.5676,0.6274,0.633,0.6764,0.7104,0.6852,0.6597,0.6342,0.6138,0.5911,0.5688,0.5688,0.7437,0.8702,0.8097,1.0848,1.2448,1.0719,1.2624,1.3452,1.1469,1.224,1.2913,1.2713,1.2101,1.1144,0.9876,0.915,0.0,0.879,0.7611,0.6627,0.5923,0.5916,0.5916,0.5919,0.5916,0.6221,0.6888,0.6221,0.6354,0.7167,0.6495,0.6463,0.0,0.0,0.0,0.0,0.775,0.7804,0.7709,0.7826,0.7869,0.7869,0.7869,0.6208,0.3875,0.3875,0.2217,0.0,0.0,0.0,0.0,0.0,0.0,0.0,0.0,0.0,0.0,0.0,0.0,0.0,0.0,0.0183,0.0422,0.0422,0.0647,0.0968,0.1267,0.1242,0.1266,0.1527,0.1566,0.1566,0.1566,0.1566,0.1161,0.0101,0.0,-0.0403,-0.1462,-0.1613,-0.1863,-0.2361,-0.3414,-0.4016,-0.4016,-0.452,-0.4824,-0.4824,-0.4824,-0.4824,-0.4824,-0.4824,-0.4824,-0.4824,-0.5882,-0.6437,-0.6437,-0.749,-0.8126,0.481,0.5431,0.6101,0.6101,0.6662,0.7142,0.6885,0.6614,0.6336,0.6135,0.5908,0.5688,0.5688,0.731,0.8564,0.8322,1.0237,1.1916,1.2338,1.3069,1.3725,1.4168,1.4928,1.4757,1.3168,1.2872,1.1883,0.9923,0.0,0.0,0.8781,0.811,0.7446,0.6792,0.6726,0.6723,0.6792,0.7088,0.738,0.7564,0.7462,0.7523,0.7826,0.7877,0.0,0.0,0.0,0.0,0.0,0.817,0.7999,0.7595,0.7793,0.7872,0.7872,0.7872,0.7378,0.6392,0.455,0.3384,0.2401,0.0555,0.0,0.0,0.0,0.0,0.0,0.0,0.0,0.0,0.0,0.0185,0.0308,0.0305,0.0484,0.0718,0.0752,0.0797,0.0948,0.1172,0.1209,0.13,0.1573,0.1617,0.1617,0.1617,0.1617,0.1465,0.1161,0.1111,0.0959,0.0606,0.0606,0.0202,-0.0705,-0.206,-0.2611,-0.1859,-0.3364,-0.3919,-0.3168,-0.4223,-0.4474,-0.3723,-0.4425,-0.4824,-0.4824,-0.5127,-0.5327,-0.5327,-0.5677,-0.5847,0.4574,0.5337,0.5992,0.5992,0.6569,0.7091,0.6878,0.6665,0.6453,0.6159,0.6119,0.6065,0.5749,0.741,0.8794,0.8701,1.0614,1.2353,1.3242,1.3507,1.4056,1.514,1.5913,1.5556,1.3407,1.3306,1.2379,0.9987,0.0,0.0,0.9222,0.8804,0.8364,0.8036,0.7795,0.7706,0.7778,0.8264,0.8623,0.8812,0.8596,0.8602,0.8838,0.8703,0.0,0.0,0.0,0.0,0.0,0.8666,0.8408,0.8025,0.8179,0.8238,0.8238,0.7994,0.7744,0.7189,0.4734,0.3569,0.2832,0.0679,0.0,0.0,0.0,0.0,0.0,0.0,0.0,0.0,0.0,0.0246,0.0427,0.0423,0.0717,0.1056,0.1074,0.111,0.1251,0.1361,0.1343,0.1383,0.157,0.1617,0.1617,0.1617,0.1617,0.1617,0.1617,0.1516,0.1465,0.1566,0.1516,0.1212,0.0656,-0.0504,-0.0906,-0.0252,-0.166,-0.2265,-0.1814,-0.277,-0.3071,-0.2622,-0.3274,-0.3574,-0.3574,-0.3974,-0.4423,-0.4824,-0.4824,-0.4824,0.0,0.5255,0.5944,0.5993,0.6512,0.6995,0.6857,0.68,0.0,0.6284,0.6575,0.6674,0.5888,0.7728,0.9338,0.9287,1.1624,1.3542,1.3575,1.3996,1.4391,1.4671,1.562,1.548,1.3461,1.3526,1.2646,1.0122,0.0,0.0,0.9977,0.9557,0.9313,0.945,0.9132,0.8936,0.8872,0.9306,0.9799,1.0345,0.96,0.9506,1.0044,0.9087,0.0,0.0,0.0,0.0,0.0,0.9127,0.9096,0.8851,0.8851,0.8851,0.879,0.8238,0.762,0.6754,0.4671,0.314,0.1911,0.0494,0.0,0.0,0.0,0.0,0.0,0.0,0.0,0.0,0.0,0.0183,0.0422,0.0421,0.0881,0.1314,0.1347,0.1525,0.1693,0.1717,0.1636,0.1617,0.1566,0.1566,0.1566,0.1566,0.1566,0.1566,0.1566,0.1314,0.1263,0.1516,0.1314,0.1263,0.1566,0.1111,0.0859,0.0859,0.0354,-0.0152,-0.0657,-0.0758,-0.101,-0.1516,-0.1566,-0.1617,-0.1617,-0.2622,-0.3574,-0.4574,-0.4574,-0.4574,0.44,0.0,0.5341,0.5659,0.6164,0.6661,0.0,0.693,0.6812,0.6931,0.6935,0.6776,0.6383,0.824,0.9818,0.9818,1.1873,1.3708,1.4278,1.4916,1.526,1.4979,1.6055,1.6083,1.4312,1.3834,1.3006,0.0,0.0,0.9886,0.9977,1.0006,1.0088,1.0227,1.0388,1.0242,0.9728,1.0455,1.06,1.0187,1.0204,1.007,0.9724,0.9803,0.0,0.0,0.0,0.0,0.9423,0.9617,0.9488,0.9217,0.9457,0.9579,0.9518,0.9393,0.8906,0.7986,0.5525,0.4117,0.3077,0.074,0.0,0.0,0.0,0.0,0.0,0.0,0.0,0.0,0.0,0.0242,0.054,0.0761,0.1031,0.1343,0.1574,0.1644,0.1663,0.1633,0.1622,0.1516,0.1314,0.1313,0.1212,0.101,0.101,0.101,0.101,0.0909,0.0909,0.096,0.0909,0.101,0.1263,0.1364,0.1415,0.1415,0.0909,0.0556,0.0404,-0.0354,-0.0859,-0.101,-0.1415,-0.1617,-0.1617,-0.1869,-0.212,-0.2371,-0.2371,-0.2371,0.4346,0.5013,0.5434,0.5815,0.6343,0.6818,0.7228,0.711,0.7004,0.7153,0.7218,0.7076,0.6599,0.8154,0.9612,0.9936,1.1654,1.3353,1.4463,1.4942,1.5125,1.5016,1.5797,1.5886,0.0,1.4094,1.3258,0.0,0.0,1.0097,1.0243,1.0331,1.0381,1.033,1.0658,1.0685,1.0493,1.0979,1.0906,1.0384,1.0565,1.0383,0.9843,1.0146,1.0232,0.0,0.0,0.0,0.994,1.0,0.9936,0.9822,1.0122,1.0243,1.0243,0.9943,0.9761,0.9319,0.633,0.4075,0.2259,0.0554,0.0,0.0,0.0,0.0,0.0,0.0,0.0,0.0,0.0,0.0237,0.047,0.0635,0.0903,0.1156,0.1286,0.1314,0.1291,0.1268,0.1212,0.1162,0.1061,0.101,0.096,0.0808,0.0808,0.0808,0.0808,0.0707,0.0657,0.0808,0.0707,0.0707,0.101,0.1162,0.1314,0.1566,0.1314,0.1061,0.0808,0.0253,-0.0303,-0.0808,-0.1314,-0.1617,-0.1617,-0.1617,-0.1617,-0.1617,-0.1617,-0.1617,0.4344,0.5203,0.5758,0.6125,0.6542,0.6997,0.7483,0.736,0.7148,0.7305,0.7519,0.7475,0.6804,0.8188,0.9596,1.0047,1.163,1.3218,1.4565,1.4829,1.4959,1.5047,1.5491,0.0,1.5068,1.4346,0.0,0.0,0.0,1.0317,1.0483,1.0385,1.0299,1.0119,1.0201,1.0418,1.0739,1.0904,1.0867,1.0583,1.0677,1.0462,0.9993,1.0136,1.0095,0.0,0.0,0.0,1.0222,1.0314,1.0362,1.0425,1.0789,1.091,1.0789,1.0308,1.0368,1.0276,0.6933,0.3846,0.1208,0.0429,0.0123,0.0123,0.0,0.0,0.0,0.0,0.0,0.0,0.0,0.0174,0.0345,0.04,0.0613,0.0813,0.0907,0.0891,0.0875,0.0811,0.0808,0.0808,0.0758,0.0758,0.0707,0.0707,0.0657,0.0657,0.0657,0.0455,0.0404,0.0657,0.0455,0.0455,0.0707,0.0758,0.096,0.1465,0.1465,0.1263,0.0758,0.0758,0.0303,-0.0758,-0.1263,-0.1516,-0.1617,-0.1617,-0.1617,-0.1617,-0.1617,-0.1617,0.4518,0.5215,0.5637,0.61,0.6039,0.6188,0.7343,0.736,0.7253,0.7758,0.7921,0.7875,0.7582,0.9907,1.1576,1.0816,1.313,1.5105,1.5334,1.5955,1.6129,1.5511,0.0,1.692,1.6162,0.0,0.0,0.0,0.0,1.0202,1.0477,1.0002,0.9747,0.9883,0.927,0.9134,0.9493,1.0251,1.0443,0.9997,1.0159,0.995,0.9524,0.9669,0.9753,0.0,0.0,0.9778,0.994,1.0492,1.0744,1.0789,1.1405,1.1466,1.1273,1.1405,1.1039,0.9913,0.6873,0.4744,0.3068,0.133,0.078,0.0655,0.0181,0.0,0.0,0.0,0.0,0.0,0.0,0.0058,0.0114,0.0333,0.0435,0.0533,0.0838,0.0874,0.0811,0.0809,0.0808,0.0707,0.0505,0.0455,0.0404,0.0152,0.0101,0.0101,0.0101,0.0101,0.0101,0.0101,0.0101,0.0152,0.0455,0.0455,0.0606,0.0909,0.0909,0.0808,0.0455,0.0657,0.0303,-0.0758,-0.0859,-0.1162,-0.1617,-0.1617,-0.1617,-0.1617,-0.1617,-0.1617,0.4594,0.5134,0.5408,0.5828,0.6097,0.6529,0.7381,0.7484,0.7556,0.8153,0.796,0.7657,0.7704,0.9591,1.1458,1.2518,1.4576,1.5974,1.5916,1.6087,1.6145,1.5904,0.0,1.6732,1.655,0.0,0.0,0.0,0.0,0.0,1.1192,0.0,0.9794,1.0205,0.9083,0.859,0.8885,0.9234,0.9382,0.937,0.9693,0.9662,0.9326,0.9581,0.9758,0.9812,0.0,0.9673,0.9808,1.0186,1.0513,1.0849,1.1341,1.1522,1.1587,1.1712,1.1042,0.9616,0.7212,0.5431,0.3975,0.2023,0.1364,0.1298,0.0654,0.0471,0.0406,0.0115,0.0,0.0,0.0,0.0,0.0056,0.0165,0.0161,0.021,0.0364,0.0409,0.0354,0.0354,0.0354,0.0354,0.0202,0.0202,0.0152,0.0,0.0,0.0,0.0,0.0,0.0,0.0,0.0,0.0051,0.0152,0.0202,0.0354,0.0758,0.0808,0.0808,0.0808,0.0657,0.0404,0.0051,-0.0505,-0.0909,-0.1162,-0.1465,-0.1617,-0.1617,-0.1617,-0.1617,0.436,0.4861,0.5139,0.5401,0.6026,0.6789,0.7474,0.7555,0.7723,0.8353,0.7974,0.7712,0.8263,0.9795,1.18,1.4444,1.5795,1.6559,1.6513,1.6359,1.6245,1.6472,1.6535,1.6654,0.0,0.0,0.0,0.0,0.0,0.0,1.1715,0.0,0.9836,1.0014,0.8682,0.8142,0.8434,0.842,0.8644,0.9043,0.9445,0.9503,0.9378,0.9666,0.9822,0.9808,0.9581,0.9612,0.9805,0.993,1.0269,1.0728,1.1152,1.1522,1.1776,1.1712,1.1071,0.9923,0.8067,0.6568,0.5097,0.3102,0.222,0.1924,0.1287,0.1101,0.1029,0.0572,0.0342,0.017,0.0056,0.0,0.0,0.0,0.0,0.0,0.0,0.0,0.0,0.0,0.0,0.0,0.0,0.0,0.0,0.0,0.0,0.0,0.0,0.0,0.0,0.0,0.0,0.0,0.0,0.0,0.0152,0.0606,0.0657,0.0808,0.101,0.0657,0.0556,0.0707,-0.0101,-0.0606,-0.0808,-0.1212,-0.1465,-0.1617,-0.1617,-0.1617,0.3559,0.4406,0.5014,0.4754,0.5434,0.6404,0.737,0.7527,0.7641,0.833,0.8221,0.8474,1.0092,1.225,1.44,1.6224,1.6594,1.6855,1.7364,1.7366,1.7366,1.7424,1.7424,0.0,0.0,0.0,0.0,0.0,0.0,0.0,1.1506,0.0,0.0,0.8239,0.7654,0.7532,0.7872,0.8211,0.8789,0.9561,0.9595,0.9666,0.9774,0.9805,0.9822,0.9819,0.9798,0.9802,0.9819,1.0162,1.0286,1.0425,1.1031,1.1522,1.1776,1.1458,1.1454,1.1403,0.9831,0.8494,0.7127,0.5016,0.3528,0.2542,0.1892,0.1708,0.1742,0.1686,0.1277,0.0713,0.0165,0.0,0.0,0.0,0.0,0.0,0.0,0.0,0.0,0.0,0.0,0.0,0.0,0.0,0.0,0.0,0.0,0.0,0.0,0.0,0.0,0.0,0.0,0.0,0.0,0.0,0.0,0.0051,0.0303,0.0455,0.0455,0.0657,0.0657,0.0455,0.0354,-0.0051,-0.0808,-0.0859,-0.1111,-0.1617,-0.1617,-0.1617,0.3525,0.4447,0.5183,0.492,0.5277,0.5963,0.692,0.7267,0.7819,0.9519,0.9265,0.9441,1.1609,1.343,1.5046,1.6454,1.6972,1.7255,1.7455,1.7485,1.7485,1.7485,1.7485,0.0,0.0,0.0,0.0,0.0,0.0,0.0,0.0,0.0,0.0,0.9275,0.8073,0.7808,0.8487,0.8568,0.891,0.9466,0.9466,0.9496,0.9551,0.9646,0.969,0.9693,0.9781,0.9822,0.9822,0.994,1.0122,1.0365,1.1031,1.1522,1.176,1.1523,1.1478,1.1371,0.9849,0.8536,0.7255,0.5616,0.4222,0.3144,0.2543,0.2369,0.23,0.1907,0.1607,0.1257,0.0711,0.0269,0.0,0.0,0.0,0.0,0.0,0.0,0.0,0.0,0.0,0.0,0.0,0.0,0.0,0.0,0.0,0.0,0.0,0.0,0.0,0.0,0.0,0.0,0.0,0.0,0.0,0.0,0.0101,0.0202,0.0404,0.0505,0.0606,0.0657,0.0303,-0.0101,-0.0556,-0.0909,-0.1263,-0.1617,-0.1617,-0.1617,0.3287,0.4311,0.5245,0.5083,0.5049,0.534,0.6391,0.6941,0.7714,0.9411,1.0144,1.1047,1.2933,1.4512,1.575,1.6558,1.7002,1.7292,1.7461,1.7485,1.7485,1.7485,0.0,0.0,0.0,0.0,0.0,0.0,0.0,0.0,0.0,0.0,0.0,0.0,0.8239,0.7805,0.8384,0.8467,0.8695,0.9022,0.9148,0.9289,0.9384,0.949,0.9537,0.9544,0.9639,0.9683,0.9683,0.9683,0.9859,1.0218,1.0755,1.1177,1.147,1.1401,1.1411,1.1249,1.0144,0.8744,0.7247,0.6235,0.4868,0.3531,0.3085,0.2974,0.2913,0.2451,0.2143,0.1896,0.1508,0.0845,0.0207,0.0052,0.0,0.0,0.0,0.0,0.0,0.0,0.0,0.0,0.0,0.0,0.0,0.0,0.0,0.0,0.0,0.0,0.0,0.0,0.0,0.0,0.0,0.0,0.0,0.0,0.0,0.0101,0.0253,0.0253,0.0404,0.0657,0.0303,-0.0101,-0.0505,-0.0909,-0.1364,-0.1869,-0.1869,-0.1869,0.2744,0.3986,0.526,0.5121,0.4616,0.4458,0.5676,0.6566,0.7248,0.7712,1.0696,1.3407,1.4082,1.5562,1.6706,1.67,1.6706,1.6887,1.7412,1.7485,1.7485,1.7485,0.0,0.0,0.0,0.0,0.0,0.0,0.0,0.0,0.0,0.0,0.0,0.0,0.7889,0.7277,0.7336,0.7905,0.8193,0.819,0.8673,0.9093,0.9378,0.9378,0.9381,0.9381,0.9381,0.9381,0.9381,0.9381,0.9613,0.9899,1.0189,1.0474,1.082,1.1105,1.122,1.1196,1.1025,0.9426,0.7358,0.7179,0.5532,0.3587,0.3587,0.3587,0.3574,0.3514,0.3077,0.2599,0.2501,0.166,0.0672,0.0152,0.0,0.0,0.0,0.0,0.0,0.0,0.0,0.0,0.0,0.0,0.0,0.0,0.0,0.0,0.0,0.0,0.0,0.0,0.0,0.0,0.0,0.0,0.0,0.0,0.0,0.0,0.0,0.0,0.0101,0.0404,0.0404,0.0,-0.0808,-0.0808,-0.1363,-0.2422,-0.2422,-0.2422,0.2373,0.3514,0.4696,0.5207,0.5105,0.4884,0.4808,0.5359,0.6662,0.9272,1.1835,1.3883,1.47,1.6166,1.7129,1.6761,1.7008,1.7304,1.7461,1.7485,1.7485,0.0,0.0,0.0,0.0,0.0,0.0,0.0,0.0,0.0,0.0,0.0,0.0,0.0,0.8189,0.7649,0.8022,0.8267,0.8385,0.8437,0.8735,0.8929,0.9072,0.9174,0.9279,0.9282,0.9334,0.9381,0.9381,0.9381,0.9613,0.9903,1.0015,1.0362,1.0809,1.0748,1.0875,1.1017,1.0838,0.9206,0.7187,0.7093,0.5532,0.3587,0.3587,0.3557,0.3519,0.3501,0.3317,0.2978,0.2597,0.2209,0.1778,0.1263,0.0858,0.0556,0.0556,0.0253,0.0,0.0,0.0,0.0,0.0,0.0,0.0,0.0,0.0,0.0,0.0,0.0,0.0,0.0,0.0,0.0,0.0,0.0,0.0,0.0,0.0,0.0,0.0,0.0,0.0051,0.0101,-0.0253,-0.0657,-0.1061,-0.1463,-0.1917,-0.2422,-0.2422,-0.2422,0.229,0.3261,0.4342,0.5241,0.5216,0.4834,0.4516,0.4929,0.6278,0.9339,1.1639,1.3395,1.452,1.6145,1.7255,1.7044,1.728,1.7485,1.7485,1.7485,1.7443,0.0,0.0,0.0,0.0,0.0,0.0,0.0,0.0,0.0,0.0,0.0,0.0,0.0,0.8804,0.8029,0.7886,0.814,0.8318,0.8318,0.8712,0.8885,0.8888,0.9028,0.9066,0.9072,0.9164,0.9205,0.9205,0.9205,0.9319,0.9489,0.966,0.994,1.0269,1.0395,1.0528,1.0731,1.0733,0.9133,0.7083,0.7083,0.5532,0.3587,0.3587,0.3545,0.3492,0.3469,0.3395,0.3211,0.2878,0.2748,0.2522,0.1765,0.1362,0.106,0.0858,0.0556,0.0253,0.0051,0.0,0.0,0.0,0.0,0.0,0.0,0.0,0.0,0.0,0.0,0.0,0.0,0.0,0.0,0.0,0.0,0.0,0.0,0.0,0.0,0.0,0.0,0.0,0.0,-0.0303,-0.0757,-0.1363,-0.1665,-0.2118,-0.2725,-0.2725,-0.2725,0.2159,0.3013,0.3961,0.5116,0.4972,0.4517,0.4625,0.5039,0.5987,0.8352,1.0374,1.2205,1.3677,1.5647,1.7077,1.7312,1.7412,1.7412,1.7412,1.7412,0.0,0.0,0.0,0.0,0.0,0.0,0.0,0.0,0.0,0.0,0.0,0.0,0.0,1.0726,0.9523,0.8371,0.721,0.7712,0.7989,0.0,0.8602,0.8881,0.8881,0.8881,0.8885,0.8885,0.8885,0.8885,0.8885,0.8885,0.8885,0.8937,0.9213,0.9379,0.9489,1.0036,1.0312,1.0366,1.0637,0.9133,0.7083,0.7083,0.5532,0.3587,0.358,0.3537,0.3477,0.342,0.336,0.33,0.3195,0.318,0.2977,0.1967,0.1714,0.1564,0.106,0.0909,0.0707,0.0202,0.0051,0.0051,0.0,0.0,0.0,0.0,0.0,0.0,0.0,0.0,0.0,0.0,0.0,0.0,0.0,0.0,0.0,0.0,0.0,0.0,0.0,0.0,0.0,0.0,-0.0051,-0.0555,-0.1613,-0.1664,-0.2219,-0.318,-0.318,-0.318,0.0919,0.191,0.2902,0.3811,0.4263,0.4614,0.5118,0.506,0.5527,0.7731,0.9319,1.0875,1.271,1.4716,1.6107,1.6159,1.6574,1.6869,1.6869,1.6869,0.0,0.0,0.0,0.0,0.0,0.0,0.0,0.0,0.0,0.0,0.0,0.0,0.0,1.0726,0.9523,0.8371,0.721,0.7549,0.7662,0.0,0.8322,0.8598,0.8598,0.8826,0.8885,0.8885,0.8885,0.8885,0.8885,0.8885,0.8885,0.8885,0.8992,0.9323,0.9706,0.9871,1.0198,1.0637,1.0692,0.9133,0.7083,0.7083,0.5532,0.3578,0.353,0.3476,0.3418,0.3358,0.3297,0.3196,0.3184,0.318,0.313,0.2927,0.2522,0.2219,0.2069,0.1715,0.1261,0.0707,0.0606,0.0505,0.0051,0.0,0.0,0.0,0.0,0.0,0.0,0.0,0.0,0.0,0.0,0.0,0.0,0.0,0.0,0.0,0.0,0.0,0.0,0.0,0.0,0.0,-0.0404,-0.0959,-0.1613,-0.2017,-0.2573,-0.318,-0.318,-0.318,0.0407,0.1036,0.1839,0.323,0.4247,0.4979,0.5229,0.5166,0.5425,0.6511,0.7965,0.9505,1.1261,1.3085,1.4673,1.5642,1.6065,1.6352,1.6644,1.67,0.0,0.0,0.0,0.0,0.0,0.0,0.0,0.0,0.0,0.0,0.0,1.4008,1.3127,1.1978,1.1219,0.9955,0.8251,0.8371,0.8156,0.7607,0.8211,0.8543,0.8712,0.8826,0.8885,0.8885,0.8885,0.8885,0.8885,0.8885,0.8885,0.8885,0.8885,0.9213,0.9651,0.9761,1.0091,1.0527,1.0637,0.9471,0.7861,0.7307,0.5888,0.4307,0.367,0.3437,0.3362,0.3331,0.3278,0.318,0.318,0.318,0.318,0.318,0.2977,0.2725,0.2472,0.2169,0.1816,0.1312,0.1161,0.111,0.0807,0.0555,0.0454,0.0707,0.0353,0.0202,0.0707,0.0303,0.0,0.0,0.0454,0.0555,0.0051,0.0958,0.1311,0.0807,0.1261,0.1513,0.1513,0.1513,0.1059,0.0,0.0252,-0.005,-0.0857,-0.0604,-0.0907,-0.1664,-0.2219,-0.2422,0.0201,0.0413,0.0962,0.2986,0.4294,0.5046,0.5223,0.5314,0.5363,0.5377,0.6702,0.8217,0.9451,1.1265,1.3169,1.4931,1.5473,1.5875,1.6506,0.0,0.0,0.0,0.0,0.0,0.0,0.0,0.0,0.0,0.0,0.0,1.4987,1.4987,1.4493,1.3344,1.3073,1.181,0.9398,0.9464,0.8868,0.7662,0.8211,0.8654,0.8885,0.8885,0.8885,0.8885,0.8885,0.8885,0.8885,0.8885,0.8885,0.8885,0.8885,0.9103,0.9434,0.9706,1.0036,1.0366,1.0637,0.9915,0.8751,0.7723,0.6553,0.5337,0.4119,0.3661,0.3524,0.336,0.3219,0.318,0.318,0.318,0.318,0.318,0.318,0.3079,0.2623,0.2522,0.2371,0.1865,0.1814,0.1865,0.1865,0.1563,0.1513,0.2065,0.1261,0.0908,0.1864,0.116,0.0555,0.0555,0.1361,0.1513,0.0606,0.2167,0.2821,0.1915,0.272,0.3224,0.3224,0.3224,0.2368,0.0606,0.1412,0.1411,0.0403,0.1308,0.1258,0.0252,-0.0705,-0.1209,-0.0294,0.0,0.0855,0.2986,0.3567,0.3886,0.5107,0.531,0.5286,0.5365,0.6379,0.7265,0.7504,0.982,1.191,1.2747,1.4136,1.53,1.5946,0.0,0.0,0.0,0.0,0.0,0.0,0.0,0.0,0.0,0.0,0.0,1.4987,1.4987,1.4493,1.3344,1.329,1.2146,0.9739,0.9743,0.914,0.7934,0.8322,0.8654,0.8885,0.8885,0.8885,0.8885,0.8885,0.8885,0.8885,0.8885,0.8885,0.8885,0.8885,0.9103,0.9434,0.9706,1.0036,1.0366,1.0637,0.9915,0.8844,0.8601,0.7684,0.6444,0.5097,0.4723,0.4484,0.351,0.3187,0.318,0.318,0.318,0.318,0.318,0.318,0.318,0.313,0.3079,0.2927,0.2422,0.2669,0.2967,0.2967,0.3317,0.3765,0.4314,0.3469,0.297,0.3616,0.3169,0.2771,0.2771,0.2922,0.2922,0.2771,0.3022,0.3123,0.2972,0.3123,0.3224,0.3224,0.3224,0.3073,0.2771,0.2922,0.2667,0.206,0.2211,0.1959,0.1356,0.0754,0.0503,-0.035,0.0,0.0627,0.1533,0.2606,0.3598,0.4223,0.481,0.5217,0.5363,0.5826,0.6323,0.6985,0.814,0.9673,1.1588,1.2837,1.3986,1.5244,0.0,0.0,0.0,0.0,0.0,0.0,0.0,0.0,0.0,0.0,1.5517,1.5517,1.5517,1.5244,1.475,1.46,1.3722,1.2023,1.1156,0.9904,0.8263,0.8429,0.8654,0.8885,0.8885,0.8885,0.8885,0.8885,0.8885,0.8885,0.8885,0.8885,0.8885,0.8885,0.9103,0.9434,0.9706,0.9921,1.0163,1.0438,1.0158,0.9522,0.8757,0.8147,0.7427,0.6171,0.5792,0.5533,0.4392,0.4083,0.3934,0.3381,0.318,0.318,0.318,0.3682,0.4083,0.4083,0.4083,0.4182,0.4576,0.4822,0.4918,0.462,0.472,0.5068,0.5617,0.4768,0.427,0.4818,0.4169,0.3521,0.3224,0.3728,0.3879,0.3274,0.4277,0.473,0.413,0.468,0.4979,0.4979,0.4979,0.4979,0.4979,0.4379,0.3825,0.3317,0.392,0.392,0.3369,0.2513,0.2161,-0.0352,-0.0051,0.0307,0.0491,0.1623,0.2877,0.3512,0.4214,0.4854,0.5271,0.5365,0.5659,0.6487,0.693,0.7867,1.0221,1.1252,1.2398,1.432,0.0,0.0,0.0,0.0,0.0,0.0,0.0,0.0,0.0,0.0,1.5891,1.5891,1.5891,1.5891,1.5891,1.569,1.503,1.3819,1.2136,1.0398,0.8598,0.8598,0.8712,0.8885,0.8885,0.8885,0.8885,0.8885,0.8885,0.8885,0.8885,0.8861,0.8824,0.8824,0.902,0.9316,0.9584,0.9773,0.9983,1.0257,1.0274,1.0048,0.9112,0.8756,0.85,0.7232,0.6846,0.6573,0.5529,0.5033,0.4684,0.4131,0.3831,0.3682,0.393,0.4632,0.5231,0.5231,0.5231,0.5432,0.6224,0.6623,0.6672,0.6274,0.6323,0.6573,0.7123,0.6318,0.5819,0.6321,0.547,0.4672,0.4277,0.4832,0.4883,0.4076,0.5482,0.6034,0.5233,0.5937,0.6387,0.6387,0.6387,0.6387,0.6387,0.5636,0.5033,0.4626,0.5432,0.5584,0.5186,0.4225,0.382,-0.0341,-0.0399,-0.0153,0.0688,0.0737,0.1147,0.3401,0.3732,0.3909,0.4961,0.532,0.5437,0.5493,0.6379,0.7313,0.8069,0.9171,1.0761,0.0,0.0,0.0,0.0,0.0,0.0,0.0,0.0,0.0,0.0,0.0,1.5891,1.5891,1.5891,1.5891,1.5891,1.5891,1.5351,1.4169,1.1873,1.0131,0.8881,0.8881,0.8881,0.8885,0.8885,0.8885,0.8885,0.8885,0.8885,0.8885,0.8885,0.8797,0.8723,0.8723,0.8799,0.8937,0.9249,0.9504,0.9754,1.0124,1.0224,1.0188,0.9906,0.9841,0.9598,0.8328,0.7928,0.7673,0.6623,0.5579,0.5033,0.5974,0.5479,0.4983,0.5974,0.6274,0.6323,0.6323,0.6323,0.6323,0.6373,0.7223,0.7922,0.7872,0.8273,0.8825,0.9377,0.8535,0.8035,0.8574,0.768,0.7036,0.6986,0.6587,0.6287,0.6237,0.6337,0.6387,0.6337,0.6387,0.6387,0.6387,0.6387,0.6387,0.6387,0.6337,0.6287,0.6284,0.6337,0.6337,0.6287,0.5734,0.5484,-0.1,-0.0719,-0.034,0.0,0.0256,0.0607,0.1529,0.2021,0.2663,0.3862,0.4174,0.4465,0.5137,0.5671,0.6323,0.7257,0.8131,0.9223,0.0,0.0,0.0,0.0,0.0,0.0,0.0,0.0,0.0,0.0,0.0,0.0,1.5867,1.5572,1.5541,1.5879,1.5891,1.4965,1.3073,1.22,1.084,0.8885,0.8885,0.8885,0.8885,0.8885,0.8828,0.8794,0.8794,0.8794,0.8794,0.8794,0.8703,0.8564,0.8564,0.8691,0.8912,0.9223,0.9413,0.9626,0.9883,0.9912,0.9807,0.9742,0.9721,0.961,0.9141,0.9023,0.8825,0.772,0.7173,0.6775,0.6473,0.6124,0.6077,0.7173,0.7422,0.7624,0.8322,0.8471,0.8471,0.8471,0.8772,0.9023,0.9023,0.9175,0.9377,0.9579,0.9278,0.8981,0.8825,0.8478,0.7982,0.7288,0.7036,0.6786,0.6437,0.6387,0.6387,0.6387,0.6387,0.6387,0.6387,0.6387,0.6387,0.6387,0.6387,0.6387,0.6387,0.6387,0.6387,0.6387,0.6184,0.6137,-0.1494,-0.1074,-0.0657,-0.0348,-0.005,0.0198,0.0514,0.0945,0.1595,0.2659,0.3279,0.3792,0.4524,0.506,0.5659,0.6434,0.6869,0.7633,0.0,0.0,0.0,0.0,0.0,0.0,0.0,0.0,0.0,0.0,0.0,0.0,1.5867,1.5559,1.5529,1.5879,1.5891,1.475,1.2413,1.2417,1.1223,0.8885,0.8885,0.8858,0.8807,0.8807,0.8777,0.8632,0.8632,0.8632,0.8632,0.8632,0.8547,0.8411,0.8411,0.8536,0.8752,0.9057,0.9242,0.945,0.9698,0.9726,0.9579,0.9579,0.9579,0.9579,0.9579,0.9579,0.9426,0.8726,0.8273,0.7922,0.7571,0.7471,0.767,0.8372,0.8524,0.8726,0.9426,0.9579,0.9579,0.9579,0.9579,0.9579,0.9579,0.9579,0.9579,0.9579,0.9579,0.948,0.9126,0.8924,0.8528,0.7832,0.7434,0.7039,0.6686,0.6487,0.6403,0.6443,0.6408,0.6403,0.6446,0.6408,0.6387,0.6387,0.6387,0.6387,0.6387,0.6387,0.6387,0.6387,0.6387,0.6387,0.0,0.0,0.0,-0.0237,-0.0193,-0.0196,0.0588,0.0614,0.0691,0.1487,0.2621,0.3522,0.3522,0.4534,0.5326,0.5326,0.5382,0.5986,0.0,0.0,0.0,0.0,0.0,0.0,0.0,0.0,0.0,0.0,0.0,1.5873,1.5891,1.5891,1.5891,1.5891,1.5891,1.475,1.2413,1.2417,1.1219,0.8875,0.8875,0.8797,0.8703,0.8703,0.8621,0.8476,0.8476,0.8472,0.8469,0.8472,0.8391,0.8313,0.8313,0.8322,0.8432,0.8726,0.8977,0.9236,0.9529,0.9579,0.9579,0.9579,0.9579,0.9579,0.9579,0.9579,0.9579,0.9579,0.8874,0.8273,0.9327,0.9579,0.9579,0.9579,0.9579,0.9579,0.9579,0.9579,0.9579,0.9579,0.9579,0.9579,0.9579,0.9579,0.9579,0.9579,0.9579,0.9579,0.9579,0.9126,0.8825,0.8825,0.7832,0.7238,0.7188,0.6686,0.6438,0.6611,0.6457,0.6446,0.6619,0.6457,0.6392,0.6392,0.6387,0.6387,0.6387,0.6387,0.6387,0.6387,0.6387,0.6387,-0.257,0.0,0.0,0.0,0.0,0.0,-0.0097,-0.0301,-0.0257,0.0573,0.102,0.1484,0.2088,0.3275,0.4086,0.4086,0.4817,0.5547,0.0,0.0,0.0,0.0,0.0,0.0,0.0,0.0,0.0,0.0,1.5535,1.5487,1.5867,1.5891,1.5891,1.5891,1.5891,1.475,1.2413,1.2417,1.1155,0.8774,0.8774,0.8693,0.8547,0.8547,0.8465,0.8381,0.8381,0.8265,0.817,0.8282,0.8241,0.8102,0.8102,0.8321,0.8676,0.8775,0.9076,0.948,0.9579,0.9579,0.9579,0.9579,0.9579,0.9579,0.9579,0.9579,0.9579,0.9579,0.9377,0.9225,0.9529,0.9579,0.9579,0.9579,0.9579,0.9579,0.9579,0.9579,0.9579,0.9579,0.9579,0.9579,0.9579,0.9579,0.9579,0.9579,0.9579,0.9579,0.9579,0.948,0.9229,0.8825,0.8184,0.764,0.7238,0.6686,0.6438,0.6611,0.6586,0.6624,0.6747,0.6632,0.6567,0.6567,0.643,0.6387,0.6387,0.6387,0.6387,0.6387,0.6189,0.6089,-0.3494,-0.2777,-0.1798,-0.0819,0.0,0.0,-0.0386,-0.0552,-0.057,0.0,0.027,0.0772,0.1258,0.2365,0.3212,0.3212,0.4099,0.4945,0.0,0.0,0.0,0.0,0.0,0.0,0.0,0.0,0.0,1.5838,1.5608,1.5565,1.5873,1.5891,1.5891,1.5891,1.5891,1.5024,1.3181,1.2597,1.1371,0.9459,0.8859,0.8537,0.8394,0.8394,0.8313,0.8174,0.8174,0.8123,0.7995,0.8136,0.8123,0.7988,0.7988,0.8237,0.8627,0.8775,0.9076,0.943,0.9579,0.9579,0.9579,0.9579,0.9579,0.9579,0.9579,0.9579,0.9579,0.9579,0.9579,0.9579,0.9579,0.9579,0.9579,0.9579,0.9579,0.9579,0.9579,0.9579,0.9579,0.9579,0.9579,0.9579,0.9579,0.9579,0.9579,0.9579,0.9579,0.9579,0.9579,0.9579,0.9476,0.9175,0.863,0.8134,0.7587,0.7089,0.6768,0.669,0.6695,0.6749,0.6874,0.676,0.6671,0.6622,0.6497,0.6388,0.6239,0.6337,0.6387,0.6387,0.6239,0.6189,-0.4164,-0.3628,-0.2778,-0.1659,-0.0782,0.0,-0.0332,-0.035,-0.0472,0.0,0.0,0.0771,0.0706,0.1679,0.249,0.249,0.3246,0.4198,0.0,0.0,0.0,0.0,0.0,0.0,0.0,1.4056,1.46,1.5624,1.5838,1.5891,1.5891,1.5891,1.5891,1.5891,1.5891,1.5339,1.4132,1.2839,1.1606,1.0359,0.9099,0.8384,0.8245,0.8245,0.817,0.7988,0.7988,0.7988,0.7988,0.7988,0.7988,0.7988,0.8038,0.8187,0.8482,0.8726,0.9031,0.9286,0.9529,0.9579,0.9579,0.9579,0.9579,0.9579,0.9579,0.9579,0.9579,0.9579,0.9579,0.9579,0.9579,0.9579,0.9579,0.9579,0.9579,0.9579,0.9579,0.9579,0.9579,0.9579,0.9579,0.9579,0.9579,0.9579,0.9579,0.9579,0.9579,0.9579,0.9579,0.9579,0.9579,0.9579,0.9076,0.8577,0.8088,0.7617,0.7191,0.6848,0.6762,0.6765,0.6926,0.6813,0.6692,0.6622,0.6605,0.6393,0.6042,0.6239,0.6337,0.6337,0.6337,0.6337,-0.3179,-0.3583,-0.3583,-0.1838,-0.1247,0.0,-0.0231,-0.0093,-0.0142,0.0,-0.0301,-0.0253,-0.0512,0.0461,0.1229,0.1229,0.2202,0.3231,0.0,0.0,0.0,0.0,0.0,0.0,0.0,1.3073,1.4277,1.4493,1.5405,1.5891,1.5891,1.5891,1.5891,1.5891,1.5891,1.5146,1.3572,1.2654,1.1308,0.963,0.8731,0.8231,0.8085,0.8085,0.8019,0.7988,0.7988,0.7988,0.7988,0.7988,0.7988,0.8038,0.8233,0.8482,0.8775,0.9031,0.9282,0.9529,0.9579,0.9579,0.9579,0.9579,0.9579,0.9579,0.9579,0.9579,0.9579,0.9579,0.9579,0.9579,0.9579,0.9579,0.9579,0.9579,0.9579,0.9579,0.9579,0.9579,0.9579,0.9579,0.9579,0.9579,0.9579,0.9579,0.9579,0.9579,0.9579,0.9579,0.9579,0.9579,0.9579,0.9579,0.8928,0.8432,0.8333,0.736,0.6777,0.6793,0.6465,0.6362,0.6598,0.6546,0.654,0.6622,0.647,0.6411,0.6337,0.6139,0.6092,0.6092,0.5837,0.5734,-0.3494,-0.3941,-0.4065,-0.3005,-0.2444,0.0,0.0,-0.1017,-0.0758,-0.0878,-0.0544,-0.0249,-0.0398,0.005,0.0448,0.0448,0.1342,0.2109,0.248,0.0,0.0,0.0,0.0,0.0,0.0,1.1655,1.2965,1.411,1.5244,1.5891,1.5891,1.5891,1.5891,1.5891,1.5891,1.5388,1.424,1.2793,1.1488,1.0285,0.8841,0.8113,0.7988,0.7988,0.7988,0.7988,0.7988,0.7988,0.7988,0.7988,0.7988,0.8038,0.8287,0.863,0.9031,0.9133,0.9381,0.9579,0.9579,0.9579,0.9579,0.9579,0.9579,0.9579,0.9579,0.9579,0.9579,0.9579,0.9579,0.9579,0.9579,0.9579,0.9579,0.9579,0.9579,0.9579,0.9579,0.9579,0.9579,0.9579,0.9579,0.9579,0.9579,0.9579,0.9579,0.9579,0.9579,0.9579,0.9579,0.948,0.9381,0.9381,0.8928,0.8482,0.8233,0.7718,0.7242,0.6848,0.6592,0.6381,0.6327,0.6226,0.6275,0.6419,0.6398,0.6287,0.5987,0.5887,0.5889,0.5992,0.5737,0.5586,-0.4034,-0.4433,-0.4499,-0.4183,-0.359,-0.3071,0.0,0.0,0.0,-0.1444,-0.0782,-0.0197,-0.0048,0.0,0.0,0.0,0.0,0.0,0.0,0.273,0.0,0.0,0.0,0.0,0.0,1.055,1.1842,1.4051,1.5244,1.5891,1.5891,1.5891,1.5891,1.5891,1.5843,1.5581,1.5006,1.3137,1.1841,1.1084,0.9187,0.8187,0.7988,0.7988,0.7988,0.7988,0.7988,0.7988,0.7988,0.7988,0.8038,0.8187,0.8382,0.8733,0.9133,0.9236,0.943,0.9579,0.9579,0.9579,0.9579,0.9579,0.9579,0.9579,0.9579,0.9579,0.9579,0.9579,0.9579,0.9579,0.9579,0.9579,0.9579,0.9579,0.9579,0.9579,0.9579,0.9579,0.9579,0.9579,0.9579,0.9579,0.9579,0.9579,0.9579,0.9579,0.9579,0.9529,0.9529,0.9282,0.9133,0.9133,0.8878,0.8528,0.8137,0.8076,0.7698,0.697,0.6843,0.6571,0.6158,0.6004,0.5959,0.6077,0.6186,0.6037,0.5586,0.5536,0.5636,0.5942,0.5636,0.5536,-0.4049,-0.4926,-0.5302,-0.4359,-0.403,-0.375,-0.2905,0.0,-0.2335,-0.1574,0.0,-0.1001,-0.0136,0.0,0.0,0.0,0.0,0.0,0.1403,0.1753,0.2913,0.0,0.0,0.0,0.0,0.0,1.2503,1.4083,1.5244,1.5891,1.5891,1.5891,1.5891,1.5891,1.5662,1.5311,1.4736,1.3551,1.2258,1.0815,0.9862,0.892,0.7988,0.7988,0.7988,0.7988,0.7988,0.7988,0.7988,0.7988,0.8283,0.8726,0.8726,0.8775,0.8924,0.9377,0.9579,0.9579,0.9579,0.9579,0.9579,0.9579,0.9579,0.9579,0.9579,0.9579,0.9579,0.9579,0.9579,0.9579,0.9579,0.9579,0.9579,0.9579,0.9579,0.9579,0.9579,0.9579,0.9579,0.9579,0.9579,0.9579,0.9579,0.9579,0.9579,0.9579,0.9381,0.9236,0.9236,0.9031,0.8825,0.8825,0.8627,0.8432,0.8382,0.7819,0.7449,0.7361,0.695,0.655,0.6204,0.5833,0.5667,0.5655,0.5691,0.5684,0.5584,0.5338,0.5388,0.5636,0.5388,0.5388,-0.4276,-0.4637,-0.4725,-0.5046,-0.4513,0.0,-0.4364,0.0,-0.3452,0.0,0.0,0.0,0.0,0.0,0.0,0.0,0.0,0.0,0.0,0.0,0.2413,0.0,0.0,0.0,0.0,0.0,0.0,0.0,0.0,1.374,1.4367,1.4453,1.4694,1.5173,1.5227,1.4679,1.336,1.2635,1.1423,0.985,0.9069,0.8432,0.7988,0.7988,0.7988,0.7988,0.7988,0.7988,0.7988,0.8187,0.8382,0.8577,0.8931,0.913,0.9278,0.9525,0.9579,0.9579,0.9579,0.9579,0.9579,0.9579,0.9579,0.9579,0.9579,0.9579,0.9579,0.9579,0.9579,0.9579,0.9579,0.9579,0.9579,0.9579,0.9579,0.9579,0.9579,0.9579,0.9579,0.9579,0.9579,0.9579,0.9579,0.9579,0.9529,0.9381,0.9282,0.9133,0.8981,0.873,0.8581,0.8581,0.8333,0.8187,0.8187,0.7895,0.7664,0.744,0.6616,0.6073,0.5862,0.5562,0.5388,0.5388,0.5536,0.5536,0.5388,0.524,0.524,0.5338,0.5087,0.5035,-0.4328,0.0,0.0,0.0,0.0,0.0,0.0,0.0,0.0,0.0,0.0,0.0,0.0,0.0,-0.0314,-0.0045,0.0,0.0,0.0,0.0582,0.0,0.0,0.0,0.0,0.0,0.0,0.0,0.0,0.0,0.0,1.2838,1.3015,1.3505,1.4333,1.4466,1.3931,1.2599,1.2124,1.1019,0.9312,0.8726,0.8283,0.7988,0.7988,0.7988,0.7988,0.7988,0.7988,0.8041,0.8187,0.8382,0.8531,0.8931,0.9282,0.9579,0.9579,0.9579,0.9579,0.9579,0.9579,0.9579,0.9579,0.9579,0.9579,0.9579,0.9579,0.9579,0.9579,0.9579,0.9579,0.9579,0.9579,0.9579,0.9579,0.9579,0.9579,0.9579,0.9579,0.9579,0.9579,0.9529,0.948,0.948,0.948,0.943,0.9236,0.9084,0.8931,0.8726,0.8432,0.8283,0.8283,0.8137,0.7988,0.7988,0.7988,0.7885,0.7585,0.6672,0.6123,0.6039,0.5589,0.5288,0.5288,0.5336,0.5286,0.509,0.509,0.509,0.509,0.4885,0.4834,0.0,0.0,0.0,-0.5339,0.0,0.0,0.0,0.0,-0.5236,0.0,0.0,0.0,-0.1749,-0.139,-0.107,-0.0131,0.0,0.0,0.0,0.0,0.0,0.0,0.0,0.0,0.0,0.0,0.0,0.0,0.0,0.0,1.1733,1.194,1.253,1.3505,1.3317,1.3137,1.3077,1.2807,1.1614,0.9608,0.9558,0.9019,0.7988,0.7988,0.7988,0.7988,0.7988,0.7988,0.7988,0.7988,0.8333,0.8775,0.8825,0.9126,0.9579,0.9579,0.9579,0.9579,0.9579,0.9579,0.9579,0.9579,0.9579,0.9579,0.9579,0.9579,0.9579,0.9579,0.9579,0.9579,0.9579,0.9579,0.9579,0.9579,0.9579,0.9579,0.9579,0.9579,0.9579,0.9579,0.9381,0.9236,0.9236,0.9236,0.9187,0.9187,0.8733,0.8432,0.8432,0.8187,0.7988,0.7988,0.7988,0.7988,0.7988,0.7988,0.7992,0.7995,0.7444,0.7141,0.7138,0.6134,0.5584,0.5584,0.5085,0.4834,0.4834,0.4834,0.4834,0.4834,0.4784,0.4937,0.0,0.0,-0.2661,-0.4566,0.0,0.0,0.0,0.0,0.0,0.0,0.0,0.0,0.0,-0.2285,-0.1298,-0.0978,-0.0402,0.0,0.0,0.0,0.0,0.0,0.0,0.0,0.0,0.0,0.0,0.0,0.0,0.0,0.0,1.0123,1.0984,1.2506,1.208,1.1766,1.157,1.0958,0.9948,0.8528,0.8528,0.8333,0.7988,0.7988,0.7988,0.7988,0.7988,0.7988,0.8038,0.8382,0.8627,0.8825,0.9175,0.9426,0.9579,0.9579,0.9579,0.9579,0.9579,0.9579,0.9579,0.9579,0.9579,0.9579,0.9579,0.9579,0.9579,0.9579,0.9579,0.9579,0.9579,0.9579,0.9579,0.9579,0.9579,0.9579,0.9579,0.9579,0.9579,0.9579,0.9381,0.9187,0.9187,0.8886,0.8684,0.8684,0.8535,0.8333,0.8137,0.8038,0.7988,0.7988,0.7988,0.7988,0.7988,0.7988,0.7988,0.7988,0.7487,0.7188,0.7188,0.6487,0.6134,0.6134,0.5586,0.5334,0.5334,0.4985,0.4784,0.4784,0.4784,0.4834,-0.2417,-0.2025,0.0,-0.3652,-0.3327,0.0,-0.5031,0.0,0.0,0.0,0.0,0.0,0.0,-0.2851,-0.2169,-0.1078,-0.0673,-0.0359,0.0,0.0,0.0,0.0,0.0,0.5179,0.0,0.0,0.0,0.0,0.0,0.0,0.0,0.0,0.9527,1.11,1.0824,1.0534,1.0391,0.9854,0.9069,0.7988,0.7988,0.7988,0.7988,0.7988,0.7988,0.7988,0.7988,0.8038,0.8187,0.8531,0.8775,0.8977,0.9327,0.9529,0.9579,0.9579,0.9579,0.9579,0.9579,0.9579,0.9579,0.9579,0.9579,0.9579,0.9579,0.9579,0.9579,0.9579,0.9529,0.948,0.948,0.9381,0.9327,0.9327,0.9327,0.9327,0.9327,0.9327,0.9327,0.9327,0.908,0.8935,0.8935,0.8535,0.8283,0.8382,0.8333,0.8187,0.8038,0.7988,0.7988,0.7988,0.7988,0.7988,0.7988,0.7988,0.7988,0.7988,0.769,0.7487,0.7487,0.6986,0.6686,0.6686,0.6137,0.5787,0.5584,0.5233,0.4985,0.4784,0.4784,0.4784]}]]